GFSMA_con_3kmhel_000.txt.gz
Helicity
109 96 82 83 118 101 89 86 97 77 133 143 139 137 137 138 139 145 143 134 120 111 90 75 67 60 57 55 52 40 31 31 33 33 30 24 21 18 15 15 13 15 16
123 108 113 97 119 119 80 105 125 113 123 165 178 187 189 186 167 160 163 159 153 140 115 94 83 78 70 70 69 71 68 64 61 58 42 37 35 33 33 34 27 24 18
142 138 133 125 137 143 132 133 128 131 145 156 184 205 222 218 214 207 204 197 185 160 148 116 103 98 93 90 88 88 89 108 116 109 83 68 68 60 45 35 25 18 7
186 162 173 180 183 191 171 178 189 196 192 195 199 210 229 223 221 229 237 245 244 249 198 154 139 121 108 100 101 100 100 117 129 123 100 86 78 71 47 35 29 23 21
223 241 240 238 235 226 238 227 226 252 247 238 229 225 231 252 240 238 269 266 274 268 278 224 174 159 143 128 111 103 106 120 128 118 101 84 73 54 40 43 42 40 38
267 296 305 291 303 287 264 287 281 270 277 288 256 253 248 239 261 278 291 272 278 296 308 286 270 237 174 152 127 104 102 98 104 98 86 69 51 41 49 56 52 46 39
282 317 343 325 324 320 292 297 305 299 282 311 288 272 230 238 295 323 320 287 296 313 305 311 302 283 261 166 130 108 87 79 70 68 64 63 52 55 63 62 60 55 48
280 310 340 355 344 329 308 323 333 330 294 321 304 305 258 240 283 275 268 286 270 280 273 261 278 303 293 252 195 116 95 82 61 54 51 61 63 67 72 75 77 62 47
187 209 224 275 291 301 285 313 338 332 317 305 330 301 312 303 241 215 206 218 238 336 313 274 238 230 227 206 165 143 127 103 73 70 78 79 84 82 88 81 74 63 65
206 215 228 240 274 312 289 300 343 364 320 298 330 315 304 333 328 282 295 308 312 312 298 241 197 191 179 193 170 163 146 116 83 82 80 87 97 99 88 84 84 122 133
192 224 237 222 213 256 264 290 290 311 319 313 320 346 320 309 297 342 318 341 409 443 362 267 237 242 212 202 206 184 147 140 120 101 84 94 107 105 101 117 157 141 118
142 198 224 229 211 208 223 230 248 276 336 351 351 366 403 418 383 380 368 323 360 369 423 435 332 281 243 238 220 210 167 148 125 96 95 109 117 142 187 157 139 124 122
101 102 157 210 238 221 204 199 205 236 292 352 371 412 403 427 406 405 396 367 345 373 383 381 423 323 281 258 207 203 217 187 159 118 113 128 160 223 190 156 132 133 135
74 88 91 110 177 194 164 167 188 206 234 287 304 360 400 408 394 383 400 361 340 321 327 403 368 356 304 274 252 201 246 230 189 146 147 164 263 230 204 163 157 157 148
85 83 75 86 90 97 119 146 184 174 208 249 274 296 352 346 355 408 398 384 361 295 316 303 361 422 399 305 295 311 318 268 223 193 200 239 258 212 182 148 151 151 128
88 97 103 105 98 91 97 105 122 133 149 197 255 264 292 307 306 363 403 357 350 349 303 310 294 377 415 412 346 382 314 313 233 211 246 287 245 197 155 136 139 137 144
69 71 72 80 91 110 124 132 118 110 126 141 169 201 217 226 276 303 347 325 330 334 349 297 256 290 395 490 491 371 339 360 366 258 269 294 231 182 144 132 143 146 172
50 52 65 83 88 91 90 101 120 131 133 143 134 142 145 178 201 259 326 345 347 328 286 263 222 272 365 431 473 430 361 323 418 320 256 239 187 132 120 156 159 170 205
32 35 39 50 61 66 68 73 82 109 113 97 107 118 114 118 145 190 274 340 406 376 340 268 223 254 405 454 525 452 367 320 318 283 255 217 163 142 166 168 171 180 190
20 24 40 51 58 67 78 89 99 89 71 86 106 126 126 118 111 119 155 217 301 311 326 358 245 298 569 539 490 525 432 394 380 344 277 244 214 175 178 175 168 165 198
44 36 30 33 40 51 65 72 50 67 80 83 74 85 122 128 112 102 130 126 168 272 272 318 288 388 563 579 532 537 390 481 329 370 322 323 284 239 218 171 167 170 195
41 43 45 45 46 55 62 67 105 88 39 28 40 71 96 96 80 66 77 86 117 166 133 251 419 433 464 489 462 585 494 540 445 315 340 292 270 221 216 231 155 182 150
27 22 22 16 28 36 48 85 89 37 37 32 46 57 71 99 105 86 43 63 87 135 172 183 154 295 461 502 452 542 427 458 425 325 345 254 245 157 213 197 128 137 119
17 26 30 46 48 55 40 72 80 63 53 48 44 40 55 67 73 79 87 59 89 86 171 205 196 205 247 428 434 455 382 526 504 381 258 230 211 217 216 172 128 105 125
40 39 40 40 50 69 88 95 94 66 57 60 53 57 59 57 38 67 86 97 58 106 201 264 199 220 306 466 563 643 477 456 410 296 245 233 184 251 208 176 175 122 119
67 69 85 68 54 86 82 90 87 60 62 51 58 41 39 52 56 51 71 50 7 127 239 290 336 302 441 370 384 532 537 607 610 347 234 231 216 225 173 192 191 189 168

GFSMA_con_3kmhel_003.txt.gz
Helicity
103 117 149 146 130 122 111 108 102 99 107 113 121 159 148 150 174 197 203 188 182 151 131 122 115 102 94 88 81 74 71 74 66 59 61 45 46 48 47 43 34 25 24
169 167 161 156 145 164 164 145 142 137 133 143 129 145 149 164 185 205 235 233 205 191 158 133 123 119 114 105 105 101 103 91 88 81 70 53 58 57 52 50 46 39 33
214 222 198 187 188 193 191 172 156 171 161 145 170 174 180 176 189 210 234 248 252 218 213 157 141 132 128 119 113 113 124 128 117 118 112 104 87 84 56 50 45 45 32
223 223 223 220 255 245 247 238 210 193 207 203 194 189 200 215 224 233 241 261 275 280 248 217 193 168 153 129 115 112 115 131 136 134 141 129 104 91 64 45 42 38 28
257 280 262 229 278 297 298 296 269 260 229 212 206 192 201 219 234 252 276 286 295 299 303 255 244 215 184 157 110 102 108 124 140 149 145 141 118 103 70 44 45 37 32
285 316 293 254 270 279 279 308 269 277 254 248 230 217 231 213 232 256 253 278 283 316 319 293 280 255 212 178 131 96 95 115 119 136 141 145 120 101 65 43 46 38 37
275 301 290 297 331 324 314 336 307 289 262 337 273 230 205 206 229 264 271 294 304 342 337 330 334 312 270 201 170 127 100 73 87 104 114 108 101 76 43 45 46 39 34
275 295 286 302 344 334 314 343 348 305 291 356 322 317 224 167 230 240 249 269 271 307 343 349 328 327 310 286 232 169 115 83 66 60 65 77 81 60 51 53 44 49 51
216 245 237 270 280 343 315 316 323 309 287 288 341 339 312 275 183 151 148 179 196 233 270 273 289 277 274 283 246 194 145 100 42 51 45 48 86 77 74 70 75 74 58
176 194 214 244 260 293 273 286 305 305 297 275 335 369 326 338 287 207 169 195 203 230 301 332 323 336 320 303 257 233 168 111 65 51 50 49 78 82 75 89 95 76 60
96 122 180 244 267 257 257 240 207 225 261 277 291 316 346 304 282 333 274 154 228 254 283 313 343 379 369 339 285 232 168 111 63 51 58 56 72 83 81 104 83 73 128
93 103 114 172 209 222 243 237 208 162 221 232 257 266 308 345 284 293 320 276 250 196 246 254 279 323 370 390 354 253 204 128 95 62 60 65 75 81 88 88 83 145 132
166 175 145 114 96 123 163 195 182 171 173 202 206 256 280 312 284 280 293 282 234 225 239 273 272 268 299 356 350 322 214 179 113 105 86 77 79 101 114 108 159 152 138
152 157 187 194 180 139 112 115 155 181 161 172 163 194 235 253 292 291 268 230 220 225 235 222 257 275 271 256 294 290 236 176 170 130 120 93 103 140 177 216 179 165 149
97 108 106 118 135 150 163 168 156 150 139 141 126 134 158 187 218 234 270 279 270 314 260 206 221 241 272 263 266 281 237 188 149 167 178 186 165 223 314 267 205 190 172
89 101 109 112 116 122 124 140 148 148 158 155 145 147 148 158 172 204 247 295 332 355 360 278 253 321 378 303 230 264 295 280 222 189 198 238 191 277 354 264 235 211 196
69 68 70 80 94 108 119 133 134 134 155 182 186 182 179 166 170 171 173 204 263 319 334 319 343 285 354 289 270 267 346 361 312 192 258 227 224 299 336 270 236 213 193
26 23 31 44 56 69 82 96 107 125 169 192 195 194 188 186 182 166 172 176 195 242 285 273 277 274 318 367 278 290 315 329 354 298 208 269 272 378 274 233 219 212 196
34 30 29 28 30 42 55 66 94 107 84 79 93 108 118 119 123 133 144 152 158 150 175 223 236 271 283 444 412 364 346 345 400 393 334 363 292 347 284 209 193 199 159
68 69 60 54 61 53 47 68 72 68 88 99 100 102 89 93 107 116 130 132 140 142 131 138 177 213 302 538 480 409 426 375 431 421 431 266 343 299 223 217 168 131 103
69 63 58 64 56 66 69 68 88 111 100 65 33 32 57 76 85 91 129 124 143 162 157 138 131 130 164 368 396 358 441 453 386 495 517 474 469 489 311 198 176 121 134
55 53 55 55 61 73 67 95 177 129 73 47 13 28 44 35 45 84 92 80 107 136 134 140 127 113 111 148 213 355 460 605 376 441 536 611 515 479 298 240 138 120 123
43 55 64 58 73 73 46 82 127 121 85 55 54 57 56 54 67 74 71 86 85 71 78 106 107 87 95 90 139 208 268 494 453 647 275 505 449 393 291 150 115 92 119
31 37 42 57 70 85 67 146 139 122 71 77 84 73 75 85 87 80 79 73 50 62 71 89 109 78 66 122 131 192 333 583 761 467 589 434 387 368 202 161 59 88 134
18 11 20 32 38 105 185 208 169 110 106 113 80 75 80 74 76 94 69 71 63 47 65 81 57 46 26 62 108 379 383 605 600 595 524 396 384 373 231 146 116 108 129
26 18 20 56 58 116 147 151 93 72 111 126 103 61 64 60 67 86 78 87 89 62 62 60 20 18 21 43 96 246 310 488 638 634 425 438 413 352 215 144 154 177 166

GFSMA_con_3kmhel_006.txt.gz
Helicity
68 84 101 130 153 168 159 127 110 97 96 90 98 111 95 102 125 140 145 135 135 129 108 111 114 116 115 105 99 94 91 89 90 87 81 78 70 72 75 61 58 52 52
88 99 130 157 162 180 169 161 148 145 137 130 105 123 123 118 143 150 169 161 158 176 158 129 122 119 114 110 105 108 117 111 99 99 101 97 91 81 71 78 64 46 59
137 134 163 185 167 167 158 170 163 161 164 152 152 147 155 160 164 164 177 194 193 179 184 150 130 125 123 110 107 109 126 134 126 121 120 121 120 117 100 88 73 63 47
189 179 184 176 178 194 206 231 238 219 228 229 184 194 176 175 163 169 180 204 219 230 208 189 167 146 143 131 110 102 110 121 130 137 132 121 120 128 125 113 98 91 57
224 238 241 239 248 251 247 247 231 269 212 230 221 193 195 192 185 186 195 212 235 255 254 204 198 190 170 144 104 78 79 92 100 109 117 126 130 135 138 126 108 104 77
227 244 231 238 281 261 236 260 236 258 257 216 186 168 168 184 194 206 207 211 221 252 278 263 250 221 176 172 145 109 95 95 88 83 97 115 118 125 137 131 108 99 81
219 227 219 221 280 273 243 249 260 232 236 279 237 172 175 183 190 224 221 227 232 237 248 260 265 259 252 203 182 157 139 119 107 102 107 102 103 109 123 120 101 88 84
188 195 210 218 247 267 245 243 272 253 252 279 275 230 206 123 169 179 195 188 189 213 235 253 240 234 268 300 293 230 180 142 93 72 79 83 84 87 89 89 86 73 89
123 153 171 215 227 285 258 252 279 299 241 203 266 264 246 251 200 126 105 85 102 157 188 168 205 234 228 254 250 250 221 172 111 64 46 57 51 55 59 55 66 62 67
74 94 123 156 182 232 261 258 255 281 246 242 205 275 257 274 266 195 149 120 127 155 187 208 221 225 245 250 234 228 215 215 145 87 60 45 39 35 28 42 52 48 64
159 158 155 144 156 191 205 203 210 223 242 254 257 236 265 271 276 311 258 158 127 182 208 207 196 194 190 223 258 243 217 187 149 94 57 56 53 35 32 40 41 52 69
159 175 188 172 158 152 156 167 185 197 225 205 195 203 236 279 260 260 282 257 219 133 128 180 197 191 187 231 245 220 233 188 141 114 59 36 49 47 39 30 41 47 71
122 151 149 160 155 163 164 163 159 151 145 142 132 141 156 204 212 216 241 240 248 230 247 198 237 252 284 297 278 238 230 213 133 129 96 44 65 54 49 49 39 40 76
97 106 123 129 146 158 163 155 148 154 152 152 146 137 121 124 144 176 188 202 200 192 225 240 211 241 273 278 214 246 248 217 175 120 116 75 73 80 56 61 83 84 86
99 104 97 101 113 120 130 145 145 159 161 150 147 140 156 161 178 166 164 171 182 199 202 197 252 251 294 324 278 255 252 197 215 170 153 76 80 103 84 70 97 115 138
84 75 68 67 77 90 100 122 130 140 154 161 184 201 196 186 180 174 177 175 168 176 174 190 207 203 246 312 261 243 227 145 184 168 169 133 138 122 112 130 120 178 322
57 44 37 39 43 38 48 73 100 119 154 168 156 149 161 162 160 149 140 138 137 133 142 89 131 139 199 251 250 288 254 243 250 155 87 170 193 142 124 199 266 323 328
88 87 80 68 59 60 62 64 78 107 99 113 100 120 122 115 118 94 68 70 81 91 103 102 66 98 132 173 256 296 344 351 361 218 111 148 198 153 168 259 405 378 346
97 86 83 87 93 83 73 73 80 63 74 83 101 99 97 83 61 59 81 98 84 84 94 112 91 78 94 128 173 257 270 309 334 269 207 148 151 206 217 314 355 515 420
78 73 69 74 77 69 85 93 104 114 98 100 102 89 58 34 35 50 72 83 91 104 103 108 109 86 66 62 129 145 191 230 252 321 204 175 159 153 258 375 421 471 424
75 67 68 68 74 64 75 87 104 119 132 121 108 94 48 36 28 40 74 70 98 86 65 73 73 60 116 90 59 99 180 199 249 238 296 202 278 381 424 413 456 562 309
82 74 72 71 66 77 67 81 136 160 161 157 141 91 54 27 23 104 104 102 111 112 93 81 86 92 79 88 58 80 86 141 188 377 337 313 453 568 625 582 523 592 363
55 55 54 53 63 60 46 100 155 180 221 187 172 127 102 79 69 70 86 79 80 77 83 107 101 88 83 99 104 80 57 89 159 349 284 340 481 547 603 702 515 442 293
66 70 68 68 64 61 47 136 163 112 111 123 113 68 96 112 51 93 89 67 64 67 50 67 87 95 105 113 118 97 79 85 215 478 477 428 419 464 709 517 481 298 207
88 82 70 67 67 82 99 101 86 82 99 120 108 125 144 136 67 97 69 53 76 96 57 48 44 64 74 66 86 128 121 136 182 322 502 473 524 618 531 474 388 207 163
102 98 96 82 59 97 92 100 120 134 143 138 112 105 114 120 102 82 69 69 75 54 24 3 -7 18 57 81 92 106 90 138 178 207 338 537 542 538 360 396 317 263 102

GFSMA_con_3kmhel_009.txt.gz
Helicity
47 25 12 20 32 64 101 115 118 121 113 101 99 113 90 85 85 89 94 62 58 70 69 60 66 75 82 76 69 70 79 79 77 78 75 71 67 66 67 69 69 70 69
92 68 66 80 92 115 119 130 130 129 125 125 104 115 118 111 113 112 119 101 70 80 92 75 71 69 77 89 90 95 96 97 90 90 90 87 87 85 74 75 75 79 79
158 147 153 155 172 193 170 174 180 182 166 159 150 145 150 139 138 134 141 144 123 93 90 86 88 86 88 82 83 99 108 101 100 105 106 103 100 100 103 96 93 94 86
191 187 165 169 197 225 230 221 198 185 186 185 175 188 191 168 165 174 172 179 172 171 121 91 119 122 111 103 79 79 88 96 97 97 100 116 118 115 111 108 111 112 113
207 208 208 190 224 225 242 248 215 240 183 187 198 181 204 214 177 174 171 189 214 221 220 170 167 156 150 130 91 70 73 83 100 111 114 111 118 121 120 114 113 116 119
187 204 195 204 233 229 217 252 237 241 240 196 194 193 194 201 207 219 192 179 189 216 238 226 231 214 153 138 124 92 85 88 99 109 118 129 120 127 132 116 113 106 108
130 158 173 185 211 222 210 216 254 220 220 231 205 172 166 164 184 197 184 182 182 212 201 221 250 235 211 158 142 102 94 95 93 101 110 118 112 100 110 106 97 101 104
90 107 135 146 161 189 185 194 226 217 247 256 251 214 180 127 147 146 157 158 147 164 157 145 162 183 199 211 198 170 140 85 57 70 87 100 103 92 102 107 94 76 85
96 97 110 128 134 163 157 150 195 226 211 194 225 245 231 196 181 169 178 186 179 196 197 191 168 168 183 205 190 173 156 141 81 50 41 69 98 98 97 88 74 59 71
156 158 143 134 122 116 124 146 149 163 194 210 191 207 209 211 223 181 188 188 186 207 230 269 242 213 205 237 216 195 178 171 89 56 51 53 72 83 73 74 74 63 50
137 131 140 132 131 125 133 132 136 135 142 151 162 173 187 231 237 254 195 162 157 214 209 213 213 210 219 241 276 254 193 146 80 64 52 68 82 68 76 68 81 79 71
106 123 136 133 129 141 152 152 162 168 164 161 160 157 162 172 181 183 205 190 180 205 174 188 223 151 185 226 246 233 258 191 126 51 50 67 96 73 94 86 90 84 73
63 82 78 88 93 104 111 115 135 156 170 181 183 174 165 155 141 133 132 137 144 153 189 185 214 266 243 243 248 248 247 191 129 102 54 50 97 112 91 106 81 89 90
80 82 88 84 91 98 105 108 107 126 129 157 169 181 184 177 178 182 189 184 141 111 89 121 134 155 176 212 212 190 251 174 116 109 97 59 87 107 102 106 123 105 102
77 84 76 68 64 59 64 75 83 94 116 132 159 171 181 168 167 171 183 194 189 173 107 87 107 106 125 140 166 187 191 173 193 177 132 114 124 117 123 155 130 149 133
82 75 73 70 66 59 61 65 58 68 91 109 118 135 142 142 132 100 81 89 105 130 132 79 72 70 80 97 113 165 192 188 167 182 173 167 145 116 163 122 133 144 188
94 88 86 78 73 75 71 59 73 70 95 89 78 93 110 116 116 108 98 83 70 58 113 62 79 71 77 86 86 127 173 191 176 133 145 161 176 186 146 152 128 145 158
93 84 75 67 67 65 72 75 86 86 94 74 68 88 95 99 107 87 66 60 62 73 87 103 44 30 37 54 78 89 111 126 173 136 120 136 157 190 191 149 177 142 137
91 79 70 69 64 55 44 57 69 84 81 79 81 100 103 111 89 71 56 35 30 48 75 102 116 91 53 56 53 78 114 121 123 109 123 131 128 129 101 92 64 105 156
79 75 64 54 48 43 45 47 69 86 82 74 100 122 126 109 101 82 61 68 40 49 43 70 84 77 59 36 69 50 24 81 83 120 118 115 125 117 93 52 60 58 147
84 78 74 72 69 70 68 87 94 98 92 93 99 96 88 77 69 55 108 77 60 53 48 29 36 41 36 2 18 30 52 33 31 54 101 75 142 138 167 116 16 85 232
84 75 72 70 71 78 62 93 134 143 118 82 65 49 51 40 29 59 96 89 80 97 72 44 22 20 23 32 20 25 36 26 4 39 93 53 120 166 155 162 132 148 234
60 65 74 84 92 83 60 103 134 137 101 77 77 69 61 67 85 86 79 75 82 76 83 62 35 28 37 67 59 44 47 66 70 53 47 45 106 150 160 210 142 240 346
82 86 82 82 82 79 78 118 132 123 123 120 119 117 124 110 107 115 92 81 56 27 52 71 54 48 40 31 53 72 79 104 83 77 133 65 94 173 272 275 207 353 570
89 81 81 89 87 81 71 97 130 128 118 121 117 114 87 72 50 64 59 62 48 57 43 37 31 22 30 54 45 65 87 104 87 58 95 126 146 275 296 322 318 429 590
95 105 108 84 62 77 46 72 102 121 119 117 121 63 41 46 36 34 47 62 91 71 42 -29 -47 -33 -10 25 42 62 74 78 87 4 115 245 249 316 196 299 426 495 532

GFSMA_con_3kmhel_012.txt.gz
Helicity
92 89 78 74 73 76 90 87 91 97 114 112 112 133 130 135 136 139 131 73 35 24 20 17 27 37 39 40 60 73 66 60 56 59 62 60 57 50 50 50 48 50 51
116 113 101 99 109 137 139 136 139 133 137 145 123 146 142 146 144 152 155 139 74 50 50 45 46 51 52 44 52 83 110 115 102 90 82 77 75 73 67 60 63 60 56
130 124 129 136 149 163 151 160 161 167 157 164 153 151 155 157 166 171 185 180 165 117 88 71 71 74 75 65 54 57 60 75 80 88 100 106 106 105 102 99 96 92 80
149 155 161 173 181 189 185 187 169 161 172 179 173 168 178 160 153 164 175 182 178 181 142 86 85 85 93 87 73 69 72 65 70 72 78 89 99 102 105 109 111 114 110
144 157 167 151 155 165 178 180 160 187 146 147 168 153 156 176 180 182 186 205 211 209 216 157 153 140 134 119 87 73 80 82 86 89 93 91 93 105 109 122 116 113 115
105 132 147 141 130 130 130 151 151 138 175 157 154 144 154 177 180 205 198 203 206 199 212 192 189 183 133 113 89 76 81 98 112 113 108 107 109 113 115 100 105 127 124
66 83 96 86 88 103 98 99 108 123 125 154 152 137 130 142 161 174 182 182 172 191 184 201 216 219 215 142 114 60 48 64 89 95 98 102 112 120 127 127 115 103 115
112 102 92 89 90 89 91 105 126 122 126 119 161 136 111 94 121 115 160 187 174 178 169 192 204 211 219 233 194 121 83 49 48 51 76 92 98 111 123 137 131 123 125
115 108 99 85 84 74 70 80 88 82 95 115 123 156 162 158 136 139 178 188 171 177 213 190 204 218 222 237 219 194 147 116 51 56 61 77 90 90 92 107 123 117 122
84 92 91 92 83 80 99 95 98 99 114 116 123 127 148 164 174 132 132 185 184 206 188 211 192 208 223 257 230 215 195 170 104 84 72 62 67 74 74 83 107 93 99
73 71 88 81 90 90 103 109 123 129 120 138 145 156 166 169 174 201 168 144 167 193 172 171 151 155 198 200 237 223 205 179 85 80 72 58 56 53 64 81 99 111 89
35 50 63 59 58 68 82 85 91 101 117 130 143 159 168 171 163 172 173 155 137 117 122 147 143 130 136 142 146 154 157 196 87 67 44 47 43 41 46 51 100 115 96
29 40 36 42 39 49 51 51 58 68 78 98 116 129 142 162 170 173 177 163 149 133 97 70 75 98 118 139 146 124 114 112 108 84 84 63 150 116 84 53 36 101 98
35 55 66 68 65 63 59 60 58 63 67 94 110 133 134 145 158 171 174 177 132 93 84 83 95 113 107 88 61 52 100 91 103 99 89 63 86 135 176 165 89 100 89
75 84 82 77 71 67 68 65 50 56 70 79 89 100 118 115 134 156 171 189 237 206 121 54 72 74 82 71 62 67 62 48 43 41 58 105 124 131 134 168 122 145 87
96 91 85 76 70 65 53 57 44 59 61 72 75 78 80 95 109 133 160 177 174 182 184 106 37 38 29 49 46 43 35 32 49 58 65 59 64 101 132 127 163 164 136
95 72 66 60 58 54 54 54 54 47 67 66 56 62 70 85 97 119 130 131 129 127 136 118 92 39 38 17 13 32 48 41 39 33 72 75 77 62 75 112 108 102 110
71 70 69 61 56 48 41 31 28 45 37 44 37 37 44 52 73 71 79 74 75 64 88 62 35 11 20 36 35 31 23 23 39 45 18 47 75 100 84 80 91 110 112
89 86 69 52 42 37 38 28 51 51 54 59 53 59 62 46 50 42 50 57 30 76 47 51 64 27 34 18 17 48 38 22 28 66 92 91 69 93 120 93 101 74 82
71 69 68 61 58 59 57 80 104 112 113 104 102 71 47 44 41 49 25 34 48 44 9 -10 3 22 -5 -32 8 -1 -32 10 -1 33 56 76 49 69 47 55 61 56 34
90 85 80 78 69 66 76 115 133 139 138 138 106 74 58 47 51 70 79 60 66 69 56 62 57 21 33 25 15 -33 -7 -8 21 16 9 59 49 57 71 75 63 62 84
86 75 73 64 76 95 105 135 152 149 143 126 107 78 70 58 54 86 74 88 88 99 93 87 96 95 91 85 59 42 5 -11 -54 -11 -15 8 -6 -1 -21 -2 8 30 88
77 83 90 107 119 128 99 113 113 128 124 111 104 105 104 106 85 43 19 29 40 47 47 66 106 113 98 103 89 47 43 44 38 32 26 37 43 39 37 32 44 96 100
107 117 121 125 134 127 78 83 86 112 108 104 110 111 123 91 53 48 40 37 22 24 62 85 97 123 112 86 46 15 37 17 9 21 41 53 29 33 30 70 52 64 56
124 126 123 123 119 118 64 71 91 110 122 122 112 118 92 85 54 38 50 35 33 39 9 6 15 23 13 -5 19 30 32 8 -12 -55 -26 22 45 30 100 99 85 38 22
126 137 140 116 92 115 58 69 94 133 130 127 133 100 57 81 33 36 36 49 29 3 12 9 -7 -2 25 32 6 17 51 23 -4 -75 1 2 -13 23 -33 -3 -0 37 69

GFSMA_con_3kmhel_015.txt.gz
Helicity
57 50 56 56 57 58 60 58 57 55 51 47 52 57 58 59 62 90 94 83 63 48 35 37 47 50 48 47 52 58 68 96 108 91 72 64 65 57 44 45 44 44 42
67 71 66 68 71 75 73 74 74 76 75 69 65 60 63 67 67 73 85 77 70 67 58 51 45 49 52 54 58 72 68 64 94 113 120 111 98 89 81 68 64 65 59
76 79 92 98 101 100 90 89 83 81 79 79 64 57 60 55 75 76 90 94 81 74 78 69 64 63 62 60 61 71 83 67 80 110 110 111 118 116 111 108 101 96 92
88 98 106 104 98 92 87 81 67 58 61 73 73 71 72 70 74 80 90 102 104 117 116 82 82 85 84 75 70 66 84 95 82 87 111 123 129 129 125 125 124 125 123
68 72 72 71 73 68 64 60 59 65 70 74 78 68 71 80 80 92 90 97 107 136 149 112 125 115 103 79 82 83 94 106 115 122 120 132 149 148 142 141 137 137 139
60 63 66 64 66 55 48 50 51 62 68 69 80 89 86 90 83 88 79 81 79 87 101 103 132 138 118 89 62 63 69 89 101 114 122 120 121 129 139 145 138 134 131
113 106 92 96 88 71 68 67 57 55 61 53 67 49 49 63 40 72 104 98 88 111 112 119 146 146 146 121 103 96 81 68 68 76 95 111 113 116 125 131 127 126 120
134 113 105 94 96 83 94 87 76 50 47 53 44 46 19 41 4 70 69 81 61 79 86 96 98 104 127 141 156 150 135 104 103 88 81 64 70 91 102 107 113 115 116
101 93 82 68 66 59 54 50 55 57 46 52 84 80 77 131 108 117 125 119 83 103 83 75 87 68 78 99 113 130 135 133 101 83 84 92 91 89 86 77 79 90 110
80 79 69 63 60 54 77 77 90 96 110 126 118 132 147 155 150 79 121 177 109 129 142 118 68 54 57 90 79 68 81 138 94 59 60 62 61 66 65 80 86 86 74
70 74 59 50 51 42 61 77 89 94 83 87 90 99 109 128 121 188 128 154 137 118 113 107 97 92 71 51 77 81 67 83 62 51 71 93 79 65 56 57 63 86 82
19 25 19 18 23 39 57 64 69 72 84 92 100 110 127 148 152 180 180 144 118 97 100 121 118 115 106 92 69 55 68 81 70 75 72 56 80 59 68 93 51 77 93
24 40 52 65 70 82 82 76 75 75 87 89 92 107 120 132 126 133 142 143 123 110 102 117 132 140 122 128 122 92 73 44 27 44 71 77 71 102 89 75 123 88 67
36 57 81 83 88 92 91 81 65 54 53 43 48 78 76 80 77 93 108 121 128 137 127 114 132 129 100 119 96 101 67 69 60 54 65 63 39 51 78 85 90 106 68
56 98 103 98 90 80 71 54 36 33 41 47 56 61 52 50 53 70 91 113 136 162 105 63 65 48 78 57 38 40 30 33 74 96 92 100 88 65 50 54 61 67 66
111 109 94 80 67 54 49 51 45 47 65 62 64 60 61 69 85 89 115 123 156 177 165 113 57 83 124 54 14 17 33 45 46 50 60 64 84 81 77 80 72 88 96
109 89 77 67 62 60 54 46 45 49 69 66 59 59 78 94 106 96 101 113 125 129 145 126 100 100 76 19 -2 24 40 50 52 68 81 109 116 92 104 90 89 81 90
83 74 69 63 58 48 40 44 58 76 84 95 107 94 103 96 83 76 73 53 48 16 55 54 82 52 25 -12 -16 -20 -1 29 62 49 49 84 118 106 82 100 112 95 107
89 76 65 56 49 54 62 65 91 113 130 130 128 131 117 109 101 95 82 69 62 70 56 76 87 47 9 -4 -14 -13 -14 23 41 39 57 62 102 133 96 62 82 101 107
67 68 61 57 59 60 61 99 125 135 130 125 123 116 109 96 87 84 79 81 80 62 52 56 72 60 36 17 17 13 -1 27 30 23 10 46 94 120 153 121 93 82 83
62 50 52 56 57 76 111 124 131 137 139 134 126 116 109 99 87 100 123 107 96 105 113 101 96 84 71 50 69 68 63 69 54 52 30 66 75 106 118 99 119 117 57
59 57 58 61 88 110 102 124 141 146 137 128 114 104 114 99 90 70 52 40 57 89 92 93 72 71 60 71 92 63 136 111 124 31 42 72 82 123 102 111 30 28 43
59 59 73 85 96 105 97 99 96 121 133 110 103 112 120 98 69 71 51 46 68 44 57 97 105 107 55 40 33 24 105 51 -8 25 17 28 53 85 122 114 118 132 86
62 72 82 85 94 106 73 79 95 131 125 105 102 92 79 82 74 62 66 104 77 80 89 96 95 100 97 36 15 10 -22 -24 1 14 15 -5 27 9 46 73 97 117 97
80 86 85 80 92 102 69 85 100 127 124 110 102 86 71 82 57 16 63 100 77 104 84 36 32 23 8 7 -8 -15 -2 -9 -18 -5 10 4 29 29 25 53 65 87 101
89 103 96 99 74 97 69 68 96 133 118 119 93 76 57 56 33 66 104 87 99 100 87 55 46 37 31 7 10 -12 -13 -15 -32 -16 1 6 -17 -33 -51 -28 15 45 68

GFSMA_con_3kmhel_018.txt.gz
Helicity
53 51 49 54 57 57 62 67 63 62 61 59 63 64 69 74 78 102 106 116 134 94 63 58 53 46 43 46 54 67 67 63 79 107 116 112 108 96 78 63 63 59 52
87 92 85 79 74 75 81 78 74 71 68 61 60 64 70 82 83 88 109 102 132 122 96 75 79 82 77 66 59 75 81 75 67 78 101 122 127 120 118 110 96 85 83
95 90 86 83 81 79 72 74 71 69 61 61 56 62 71 70 76 70 80 91 91 108 118 71 54 65 77 79 77 87 106 117 111 110 111 129 146 154 154 144 139 131 126
86 81 75 73 84 83 80 73 72 68 68 73 68 64 70 71 62 66 73 76 79 83 96 67 64 60 49 53 62 67 90 108 116 114 111 97 120 143 161 157 143 142 141
90 76 80 85 83 78 78 74 63 65 64 70 84 77 75 74 62 65 63 61 68 84 95 85 108 115 126 90 64 49 51 77 100 112 117 117 106 116 135 155 166 162 157
135 111 104 103 88 79 84 84 80 70 62 61 68 74 77 75 81 96 95 104 95 91 98 82 84 92 87 87 112 114 95 76 83 81 95 113 123 117 118 140 155 150 158
146 139 117 115 104 91 89 80 73 68 62 61 63 60 57 -35 6 27 94 73 56 59 62 65 93 95 99 81 77 65 80 96 102 104 103 93 92 86 109 120 114 126 137
133 110 103 90 84 67 68 63 58 51 54 66 54 58 38 56 70 231 133 71 70 93 80 83 92 94 111 115 87 79 74 76 51 82 92 98 102 106 100 89 84 92 93
102 86 73 58 56 48 52 53 62 62 68 75 104 107 84 116 102 71 106 52 101 155 148 111 121 141 110 96 97 98 67 55 25 31 40 91 100 92 89 98 106 100 96
85 80 68 59 49 39 58 60 77 91 111 122 113 107 119 122 112 76 107 133 61 169 135 120 125 131 124 105 103 94 81 79 63 67 72 59 67 126 106 82 84 92 101
78 74 48 24 28 44 67 72 83 84 72 84 83 88 96 98 99 144 135 143 118 117 123 121 107 109 127 153 124 95 178 206 152 167 182 149 135 82 46 117 103 50 88
44 50 32 31 61 93 88 78 78 83 87 89 83 81 89 101 101 104 125 117 93 67 90 119 118 112 199 179 137 171 211 210 222 207 203 190 195 166 137 97 83 10 144
50 61 79 101 114 100 88 79 84 80 83 91 77 72 76 65 67 77 84 112 115 97 96 103 114 131 164 161 130 158 128 113 111 130 126 121 105 103 120 144 115 67 -12
76 101 105 103 97 88 89 89 75 74 62 54 55 53 67 68 82 90 111 136 157 147 140 132 150 168 151 164 161 157 143 140 66 91 137 145 141 119 88 81 78 96 48
92 99 98 100 106 104 93 80 73 60 66 75 72 83 100 107 125 138 174 202 220 252 228 162 132 102 113 124 92 139 172 97 68 69 70 71 87 98 98 82 88 67 76
112 114 115 108 102 94 81 69 67 75 84 96 100 109 124 135 164 177 185 181 191 233 269 218 158 108 99 78 133 127 113 50 22 40 76 68 58 90 93 93 80 70 100
126 111 106 102 88 74 65 70 82 86 99 104 112 128 127 132 165 168 170 167 174 165 213 200 153 110 81 71 73 54 31 17 12 -17 42 67 91 86 96 88 89 74 85
115 107 92 77 65 65 75 82 86 99 101 106 115 128 135 168 156 157 164 159 161 147 177 192 143 136 101 84 79 72 57 50 19 -11 -10 30 56 72 94 122 100 100 81
93 83 76 71 67 72 71 69 91 97 105 122 137 148 150 150 150 158 158 163 163 170 160 156 162 148 140 122 102 94 83 61 17 -1 12 22 24 45 63 102 123 117 90
82 84 75 70 64 62 64 91 98 108 128 147 148 152 151 147 156 151 149 144 137 129 123 138 144 129 117 95 110 112 69 45 44 32 35 51 37 51 69 150 124 144 117
79 72 67 55 54 73 86 115 118 131 135 148 148 143 136 127 93 96 140 111 111 115 127 122 127 109 94 109 106 98 88 47 9 12 -0 41 47 65 104 150 106 102 110
71 68 74 64 65 92 101 97 110 125 131 138 149 131 116 95 98 81 60 56 54 90 104 120 146 112 105 132 113 113 105 74 23 12 9 12 6 31 56 101 120 101 124
76 82 71 67 79 89 87 86 90 124 137 153 136 119 115 114 96 98 71 50 53 56 66 120 134 118 122 115 112 104 89 52 -27 -21 -7 -16 42 20 45 43 74 103 185
84 80 75 79 82 90 85 89 107 118 146 138 117 110 107 95 94 87 84 85 103 96 108 103 103 113 117 115 82 64 23 -40 -26 -17 -0 -10 -4 -10 6 30 84 128 169
90 80 83 84 84 85 95 100 98 132 134 114 114 105 95 94 64 44 71 105 99 83 50 25 34 18 20 8 31 47 -19 -66 -32 -47 -16 -38 -31 -29 -9 -2 77 125 131
85 94 87 97 95 83 64 65 94 136 128 139 108 104 83 83 45 43 79 80 83 66 68 48 50 48 38 39 10 35 -12 -57 -57 -29 1 -38 -29 -12 -24 14 40 71 93

GFSMA_con_3kmhel_021.txt.gz
Helicity
92 99 95 85 79 77 71 66 63 64 62 59 65 64 74 80 94 125 136 110 145 132 103 81 68 66 75 76 72 82 90 95 98 103 121 141 155 150 142 127 107 95 85
100 103 85 74 74 73 66 72 73 75 78 66 74 74 73 86 90 99 128 128 127 142 121 95 69 57 51 58 65 81 92 100 105 103 101 110 140 153 150 150 144 136 127
81 80 78 82 82 84 79 71 72 90 93 93 91 90 80 69 81 77 87 96 101 112 124 74 66 69 60 45 47 56 80 97 105 108 105 100 99 118 156 158 157 150 144
94 85 86 93 114 96 105 107 92 78 80 87 89 101 87 80 68 70 73 78 107 105 114 90 71 51 70 93 81 57 55 74 88 110 114 123 120 111 122 135 155 171 165
137 121 149 147 111 106 102 112 104 92 81 69 73 73 73 86 83 75 83 85 88 113 108 94 82 102 94 77 72 81 85 83 87 90 91 100 119 126 117 121 130 133 156
185 167 154 148 136 122 117 106 96 93 86 83 87 100 90 94 63 63 34 107 122 154 156 123 109 107 70 45 27 73 93 88 93 97 94 90 97 109 108 111 112 126 145
184 176 146 133 123 111 107 101 86 83 72 77 78 82 82 45 77 134 285 135 115 139 150 124 113 140 110 90 69 39 48 57 85 96 103 96 91 88 90 105 109 103 122
149 134 134 120 114 91 90 76 67 53 60 80 76 75 56 50 127 142 122 128 105 126 127 123 152 157 161 174 175 167 131 73 59 59 83 82 68 65 93 93 86 97 114
132 117 101 82 67 49 49 56 70 85 77 74 99 86 60 95 83 69 89 52 137 117 128 134 109 112 111 111 114 115 107 164 175 127 127 128 148 121 76 52 137 89 101
86 77 64 63 59 48 60 54 90 87 90 80 89 94 108 113 111 99 111 156 67 148 109 107 113 95 87 102 106 142 165 209 214 240 212 165 195 187 160 143 94 84 97
71 78 47 40 47 60 86 88 91 89 90 108 108 94 87 95 102 145 146 139 138 113 112 99 128 140 93 90 137 168 156 146 134 130 165 204 175 213 243 252 208 170 109
56 63 35 52 77 94 90 92 96 101 101 99 101 96 106 123 135 137 139 137 130 126 144 178 180 155 161 221 221 264 245 258 223 186 182 128 196 149 176 274 324 272 234
66 61 64 83 103 104 101 102 107 83 94 101 90 101 98 105 123 138 138 167 162 174 165 212 169 198 148 218 256 315 233 168 153 130 123 134 149 156 135 123 106 91 119
77 82 107 118 117 108 101 100 93 100 83 106 80 109 105 133 141 160 157 191 180 197 179 162 136 190 176 169 216 114 187 112 121 160 117 104 72 68 67 107 131 109 66
96 115 125 116 104 97 98 98 103 89 104 99 110 113 124 144 154 180 217 246 271 218 203 191 178 154 135 146 83 141 102 119 122 165 113 73 35 61 79 114 112 140 142
126 133 122 110 101 100 100 103 101 101 100 113 111 122 134 155 174 190 228 252 271 278 278 233 189 151 119 130 110 94 96 91 69 67 60 64 70 49 80 116 124 112 109
122 124 119 108 105 106 99 102 99 91 113 109 111 131 144 144 190 218 253 241 246 234 259 230 192 159 116 95 100 109 95 97 97 52 46 43 46 38 42 81 93 100 97
130 128 121 110 101 91 96 96 98 98 117 114 122 137 149 187 190 213 218 208 221 215 198 182 160 131 120 110 104 95 75 78 90 51 33 42 26 11 13 40 86 131 103
129 122 113 97 88 92 96 89 84 128 119 123 134 155 159 173 193 201 205 221 196 181 173 163 169 155 148 138 103 83 48 35 108 79 55 52 49 36 10 26 54 92 118
115 104 94 89 81 84 93 84 147 132 125 134 143 145 137 169 170 188 169 163 165 164 151 163 178 171 151 129 112 82 22 91 103 73 67 50 24 28 27 11 27 89 136
100 89 87 78 87 101 102 160 138 136 133 126 112 105 140 137 100 97 161 169 145 162 161 161 157 152 138 94 78 87 126 110 109 97 82 84 62 67 50 30 13 34 68
83 82 83 91 106 123 101 98 132 139 119 103 85 114 141 123 126 107 110 72 90 130 129 153 197 189 132 125 113 127 132 138 93 98 74 63 78 64 41 41 16 32 53
83 92 99 113 129 132 86 102 103 134 95 86 103 139 149 162 136 144 94 77 100 74 37 107 134 149 127 93 115 126 132 136 121 105 102 24 64 70 28 3 7 50 65
101 111 118 130 131 126 87 99 87 94 103 100 118 135 145 148 129 108 122 131 119 108 95 127 148 146 119 120 122 116 96 53 101 133 109 -9 39 -49 -28 -35 -5 20 55
112 119 129 119 113 128 91 78 92 101 115 113 133 145 125 124 95 83 114 124 105 105 87 64 53 26 11 10 33 55 28 -13 7 -5 101 -66 -52 -72 -89 -52 2 55 71
125 132 113 110 94 123 88 77 77 122 123 145 151 136 90 106 80 67 101 107 109 106 102 59 65 63 60 59 18 14 -31 -48 -24 8 -37 -68 -58 -72 1 15 5 10 -43

GFSMA_con_3kmhel_024.txt.gz
Helicity
94 103 96 81 71 71 71 68 67 64 68 67 63 62 68 80 99 132 159 120 110 121 85 70 66 51 46 45 41 56 74 74 74 77 68 72 87 105 119 123 124 122 111
103 104 86 70 74 71 67 83 87 84 77 81 86 87 77 66 65 72 76 76 63 69 72 63 53 46 45 49 61 50 51 79 98 95 92 87 83 85 102 129 138 138 134
87 92 81 79 107 120 112 106 99 109 115 103 83 73 80 70 58 56 69 84 90 77 96 68 50 62 57 48 46 52 55 60 63 74 95 106 105 100 87 89 101 138 151
158 126 152 151 132 127 143 151 134 104 93 84 76 79 88 87 80 74 79 88 106 115 118 96 99 68 48 15 33 48 60 62 68 76 68 74 85 99 104 103 102 104 124
201 220 209 188 196 176 160 133 119 109 79 81 86 86 68 61 73 66 80 133 132 132 125 125 136 132 82 62 47 33 47 68 77 90 87 86 84 84 84 90 98 109 124
243 244 216 183 176 163 137 112 102 83 76 73 80 81 69 81 84 146 133 116 79 66 73 104 85 111 182 200 224 159 123 89 87 77 75 90 96 89 89 80 78 88 95
186 195 175 147 126 123 102 98 69 66 59 64 46 41 67 66 81 108 98 63 58 97 112 129 138 100 73 67 52 88 125 123 123 137 103 81 86 94 101 109 105 89 66
159 125 110 96 88 86 96 86 74 33 35 53 29 30 3 11 73 55 73 86 85 76 69 72 75 76 72 56 40 45 48 70 126 158 144 136 157 166 162 139 140 121 96
93 80 69 65 70 72 59 54 60 70 48 57 80 62 45 42 47 23 71 30 58 70 96 78 62 95 87 105 107 97 99 116 144 160 153 159 141 133 159 180 199 183 139
66 61 41 38 35 41 65 60 77 76 93 87 80 107 113 121 92 60 49 122 67 115 88 94 92 67 103 98 85 95 122 204 239 253 251 215 186 160 142 138 170 228 229
42 40 33 22 27 41 66 82 90 96 89 98 98 101 103 117 112 138 121 131 138 109 116 106 97 106 118 93 108 117 249 265 253 245 199 180 179 158 163 186 120 208 183
50 55 43 42 55 70 72 75 83 94 90 98 106 117 121 143 128 139 138 135 125 132 135 168 148 177 141 121 167 209 216 170 136 153 180 154 131 139 115 110 158 192 252
48 51 54 59 70 82 90 92 92 88 89 106 108 121 142 139 134 153 160 164 163 157 175 176 178 144 118 176 181 146 164 114 131 116 90 121 177 187 171 193 189 136 94
57 71 74 86 95 95 93 96 93 97 98 111 116 129 134 139 142 149 162 175 171 178 177 159 167 163 127 170 100 116 112 132 99 104 96 114 152 135 143 127 90 106 136
73 81 85 96 94 95 98 96 98 100 114 123 132 132 142 147 156 160 176 182 193 191 200 185 175 144 172 129 122 132 109 48 66 38 57 51 79 89 80 88 75 88 117
78 78 94 97 95 98 100 108 114 118 130 141 132 135 135 145 150 162 178 191 225 245 227 200 191 179 146 147 132 103 96 71 52 42 47 45 59 73 60 67 70 69 66
77 86 94 96 97 100 105 119 126 127 132 139 129 136 139 136 154 172 178 200 217 238 270 232 201 164 142 111 104 84 118 118 124 34 42 29 18 33 47 50 46 54 53
87 96 99 100 102 110 120 131 135 131 154 160 139 138 136 149 143 149 184 183 216 218 227 204 198 181 147 113 107 105 119 120 133 83 13 27 29 56 45 51 53 49 44
94 95 104 108 115 120 126 132 130 164 161 142 139 137 127 121 123 151 165 189 193 194 203 216 229 207 177 163 162 155 111 112 96 85 21 31 32 57 42 41 44 45 42
91 98 98 108 119 122 123 116 146 158 154 156 130 120 105 109 127 130 145 153 174 205 205 216 227 229 178 170 137 168 108 91 65 36 69 47 31 32 28 44 50 48 58
87 89 105 116 116 114 119 128 142 164 159 146 125 106 109 101 62 83 149 169 178 179 186 204 197 210 170 129 132 124 121 48 46 83 93 108 74 78 81 54 53 45 54
89 102 109 112 123 132 99 78 107 153 155 135 122 112 117 100 108 108 116 77 84 133 156 173 163 154 114 128 132 164 139 102 68 87 102 94 92 105 106 99 31 20 43
95 102 108 123 137 140 69 69 81 135 148 136 116 126 133 144 125 134 95 73 121 70 73 129 147 150 140 137 128 139 133 142 130 92 80 39 86 114 112 79 31 39 37
106 115 123 128 139 128 52 62 64 132 145 137 137 135 132 137 115 89 100 127 138 130 127 126 137 131 121 97 85 62 35 -34 49 145 137 62 16 79 13 -14 -41 -17 -3
111 130 135 129 130 115 73 58 74 130 141 141 144 140 133 118 74 46 78 103 128 141 88 60 36 30 25 17 9 -21 36 10 10 15 122 20 -30 -15 -21 -14 61 37 30
121 130 124 121 97 112 75 58 107 160 161 163 151 148 88 92 48 24 79 103 108 101 98 74 83 78 65 82 29 38 -11 -32 -13 -10 67 -11 -19 -28 8 39 9 11 42

GFSMA_con_3kmhel_027.txt.gz
Helicity
101 93 85 75 65 71 73 64 65 67 64 59 54 55 54 46 31 21 22 18 28 33 35 29 18 16 23 19 23 28 42 43 39 69 82 82 80 57 60 83 102 113 114
101 99 92 96 100 108 110 103 107 112 120 119 92 69 44 40 33 31 45 49 45 52 61 70 70 39 38 49 43 49 55 54 41 39 42 65 73 81 76 68 71 88 108
112 111 135 155 145 151 173 177 176 128 96 80 65 63 64 60 56 65 75 96 95 116 140 165 166 175 111 74 60 40 58 69 62 63 55 49 51 64 76 79 85 90 86
180 200 185 187 187 184 162 138 115 93 86 79 66 73 64 44 51 68 93 109 117 126 127 152 181 177 192 177 174 147 140 99 74 75 80 84 84 83 66 57 69 87 93
232 194 171 170 171 154 138 113 112 92 75 80 74 78 67 73 93 125 146 133 116 89 71 77 92 110 139 170 162 151 150 163 134 141 131 129 140 124 101 102 96 72 63
201 179 167 158 144 128 122 104 99 86 71 60 58 61 72 90 109 122 91 75 86 53 76 95 84 68 86 126 137 156 160 142 104 95 107 99 90 86 88 72 85 105 120
184 155 123 116 112 99 85 86 58 55 49 66 33 40 31 46 84 82 68 84 64 99 100 92 57 49 53 76 90 109 113 123 127 133 131 113 80 76 51 78 91 114 103
131 112 92 73 67 62 80 76 55 35 28 44 6 -12 -29 2 84 50 68 74 83 79 66 75 42 61 70 92 116 149 158 173 173 182 176 172 163 123 102 122 150 121 116
100 76 60 47 53 50 47 43 55 60 37 41 67 41 40 63 46 43 45 49 60 66 87 59 71 82 87 88 84 81 113 139 183 215 239 284 316 299 266 230 217 172 174
79 67 57 46 43 29 51 50 68 63 66 71 53 97 96 116 79 70 146 83 63 94 80 85 81 75 84 80 92 108 125 188 205 223 239 238 225 215 220 221 212 227 97
79 55 40 35 40 40 48 67 78 90 76 75 83 85 92 97 107 140 110 139 113 117 107 103 94 100 100 91 85 113 160 174 187 189 201 217 229 221 209 183 160 186 212
47 47 48 53 54 59 66 71 73 82 79 80 93 101 118 122 120 117 114 111 127 144 141 149 131 128 115 100 113 92 130 155 156 169 183 194 198 203 204 223 227 149 156
47 44 43 53 54 66 79 79 80 84 82 91 96 110 131 148 146 168 182 166 163 169 173 146 142 131 135 134 93 96 140 101 112 141 133 136 150 202 190 206 184 190 153
59 52 60 69 75 84 88 90 83 86 92 99 105 127 142 133 140 174 193 202 185 193 186 154 143 135 124 111 140 96 119 102 96 72 78 95 96 111 107 159 166 134 104
71 71 74 76 87 96 96 92 87 89 98 106 118 133 140 129 150 163 188 197 228 230 209 160 143 120 138 140 118 112 128 79 60 55 66 80 66 90 131 146 141 142 153
82 81 81 91 93 91 89 91 95 100 108 121 134 143 144 142 163 163 181 197 203 220 245 167 143 142 143 150 130 108 119 47 42 45 47 53 58 55 91 83 94 78 64
87 83 86 89 87 84 85 96 104 102 125 139 127 157 146 143 161 170 171 182 197 215 224 185 175 153 138 145 154 120 90 112 131 37 40 34 64 43 52 52 44 51 70
84 90 90 84 83 88 97 108 121 127 140 147 139 153 155 157 159 157 174 175 192 192 203 180 185 176 160 160 138 98 74 96 123 86 75 42 39 30 19 28 43 71 72
92 86 85 84 89 95 106 114 123 128 140 144 146 154 152 149 147 158 166 171 168 160 170 195 205 215 211 159 131 111 133 107 110 38 57 42 17 23 24 30 51 76 76
86 85 86 87 89 99 108 110 117 145 160 158 147 152 141 139 142 144 150 151 160 163 167 192 218 211 190 164 164 134 104 112 110 119 97 63 16 6 12 39 47 45 45
86 81 81 86 94 107 108 105 131 161 167 156 152 153 142 107 92 105 134 141 132 148 178 179 171 183 174 109 100 119 141 148 142 143 138 138 84 124 128 54 37 26 31
77 76 85 100 110 104 67 98 125 154 159 158 164 156 160 99 87 61 72 60 67 130 123 166 189 154 130 131 127 175 194 162 98 102 127 126 139 132 111 101 27 15 25
76 82 96 114 113 128 103 101 103 140 159 175 168 164 154 130 94 123 78 46 79 64 45 97 115 130 119 134 157 133 106 121 138 155 98 88 153 137 117 126 23 -5 -25
84 98 109 107 135 135 96 98 98 148 164 170 170 163 129 126 111 80 94 104 142 103 107 112 126 126 133 96 54 29 -33 -24 122 149 151 73 137 47 64 71 34 16 5
100 112 113 123 138 126 97 97 128 168 175 185 169 153 120 111 71 32 74 101 88 101 55 42 27 24 11 30 53 4 93 -68 12 131 153 41 77 75 55 74 153 83 11
101 117 116 114 104 122 98 105 150 176 177 172 154 114 73 81 30 31 68 92 94 61 72 46 48 54 78 88 33 26 6 21 50 93 184 46 73 52 10 116 116 117 108

GFSMA_con_3kmhel_030.txt.gz
Helicity
58 76 79 77 57 53 54 67 80 91 99 98 97 97 71 62 60 50 54 68 104 122 118 113 120 118 114 69 54 43 39 53 50 46 44 36 38 56 58 51 58 56 60
98 102 113 119 129 122 136 130 119 122 122 94 80 68 56 51 60 76 85 91 143 169 174 183 189 180 175 179 148 115 97 106 119 113 98 89 77 60 38 39 54 59 70
129 144 153 176 162 135 129 128 118 99 99 89 80 76 69 68 84 99 107 112 117 160 195 202 216 211 227 232 227 216 208 187 156 143 131 116 115 106 101 79 70 47 49
173 156 150 150 130 120 107 95 86 94 100 93 83 93 90 96 103 132 152 151 144 133 137 190 194 203 207 222 215 198 186 190 176 174 139 130 159 150 140 131 102 74 81
166 148 138 130 109 105 111 97 103 95 91 97 90 82 77 88 121 146 133 121 129 96 97 146 182 196 205 202 204 202 186 169 168 170 174 174 160 163 143 123 130 142 127
172 147 142 127 110 113 115 103 112 110 95 69 62 64 79 96 120 126 106 105 107 78 97 110 112 84 131 150 166 164 180 186 175 167 169 147 116 96 112 115 124 114 109
169 146 131 122 99 90 86 93 74 84 78 73 55 62 70 94 100 153 98 167 75 113 115 113 65 41 78 143 162 189 199 209 206 208 198 194 189 175 147 129 116 122 101
160 136 110 90 86 75 88 85 78 62 53 54 19 1 3 37 81 52 96 60 96 73 67 74 76 77 82 103 111 177 168 181 189 184 198 194 204 191 203 204 198 162 159
134 109 91 71 63 61 72 68 66 67 56 48 49 46 32 66 54 36 47 73 57 76 66 76 78 88 98 102 116 123 163 171 185 177 165 171 187 206 220 231 239 237 241
120 97 74 62 63 55 71 61 70 67 69 72 51 90 60 84 68 60 90 59 53 68 61 79 88 87 107 124 131 137 155 182 192 168 166 172 174 182 187 199 215 234 243
111 92 74 63 64 65 70 85 91 100 80 71 69 64 59 83 87 127 114 104 79 81 95 104 108 118 113 121 127 118 151 152 124 158 176 166 155 156 181 196 188 196 227
104 88 73 68 72 86 91 92 91 94 83 76 77 89 96 94 106 109 120 122 140 148 162 158 149 142 138 136 131 134 111 96 121 119 128 137 215 204 173 158 196 227 201
87 80 75 86 90 99 107 104 97 92 82 88 88 97 119 137 160 174 170 155 175 198 207 201 165 172 159 148 118 82 70 95 100 109 150 138 136 147 163 159 186 165 135
90 80 87 102 117 122 115 108 92 88 88 96 103 118 134 151 166 181 208 217 175 210 231 230 189 164 147 123 85 55 111 64 76 99 119 133 134 130 144 146 118 94 59
105 113 115 125 127 122 118 105 93 92 96 98 109 129 141 144 162 178 213 235 269 260 238 230 192 153 144 138 109 90 116 90 69 93 103 103 104 114 100 106 119 130 77
121 130 131 134 134 120 103 99 100 103 105 116 114 130 143 164 178 181 197 218 240 272 326 212 163 141 132 141 105 99 135 68 74 56 61 86 88 90 69 80 79 51 59
134 137 135 136 122 107 100 103 107 102 119 108 123 139 155 156 166 179 190 208 225 224 253 205 176 145 132 123 141 139 112 118 98 19 41 44 51 65 73 88 93 106 127
139 131 132 123 113 106 103 109 113 107 105 134 148 157 160 158 163 161 185 192 205 200 209 181 173 156 154 148 114 100 98 98 121 73 20 30 37 43 51 60 69 82 81
125 133 131 123 112 103 101 105 99 110 139 151 149 161 156 170 171 171 184 185 178 175 181 194 211 207 195 147 144 125 91 69 73 38 37 17 14 20 23 28 28 43 48
134 138 129 111 103 103 98 93 111 134 143 148 158 172 181 180 164 156 156 155 172 170 169 195 215 179 189 140 149 80 32 53 122 143 93 55 34 33 18 21 32 45 52
135 125 114 108 108 100 91 104 125 132 145 163 182 187 172 140 112 131 156 167 148 151 175 163 167 189 186 63 66 87 135 148 145 115 149 199 126 128 134 57 41 30 29
128 112 113 105 97 100 99 106 126 157 166 170 166 162 171 128 121 106 99 72 77 125 113 170 152 123 108 125 128 172 162 115 7 125 132 141 145 134 132 137 22 -17 2
111 103 100 105 101 111 98 117 145 174 172 161 165 176 178 168 126 123 81 55 82 68 115 129 110 131 108 127 94 99 117 152 157 96 114 109 136 106 159 124 21 3 -5
105 106 101 96 100 97 120 153 150 165 160 160 169 176 173 130 110 88 103 137 152 98 88 105 118 94 97 85 62 42 21 69 177 197 138 83 174 142 144 144 90 66 36
105 100 96 98 103 112 120 136 144 153 138 140 157 172 114 103 68 39 96 105 96 98 79 38 46 42 43 36 22 -4 28 37 110 166 136 124 178 159 130 184 158 104 43
87 101 104 111 108 129 94 113 121 133 134 157 157 110 64 73 41 51 78 89 82 31 82 98 86 65 63 77 31 45 107 141 169 223 191 163 198 188 200 243 147 147 84

GFSMA_con_3kmhel_033.txt.gz
Helicity
57 64 66 70 61 49 56 74 85 94 97 93 86 80 79 81 79 71 71 106 143 147 142 147 141 142 122 122 167 205 198 150 143 143 133 122 105 98 79 63 39 28 37
89 75 105 114 113 103 103 103 96 91 85 68 65 68 70 75 85 93 103 126 181 208 195 207 202 216 228 210 223 226 222 228 229 217 217 200 193 172 123 101 91 79 58
100 96 99 114 111 115 110 104 91 78 81 73 66 72 85 107 105 128 159 148 160 198 213 210 217 225 231 222 221 225 224 217 214 206 207 184 160 148 124 123 137 130 116
117 123 126 125 112 106 88 79 79 72 73 68 64 84 97 89 119 182 187 171 171 146 165 192 205 221 220 218 222 205 186 168 190 201 188 167 164 159 172 145 138 132 137
167 149 121 120 107 106 103 89 96 87 77 79 79 80 90 102 146 186 167 172 162 139 112 154 197 192 192 189 186 177 178 200 188 182 169 157 142 126 126 115 126 144 145
178 156 138 130 111 100 105 96 103 99 83 57 59 67 87 106 153 175 159 167 135 97 111 111 92 90 151 153 163 163 184 187 173 173 174 159 140 141 147 160 161 134 127
188 163 138 124 104 96 85 88 77 102 86 73 47 71 98 122 121 129 81 106 118 78 107 89 81 80 87 145 181 170 197 202 208 211 201 198 210 203 197 178 163 150 153
181 157 122 108 102 82 94 92 91 73 76 66 39 27 40 62 104 67 101 117 109 70 84 75 95 105 109 103 119 145 171 186 203 209 247 236 224 219 213 208 210 205 194
171 141 124 99 87 70 70 70 77 80 69 59 62 59 45 70 70 55 108 118 83 71 65 73 77 88 97 110 123 149 168 195 207 238 223 206 216 227 214 194 195 200 207
159 136 116 96 77 64 84 75 81 70 67 71 72 101 78 92 96 101 103 102 59 61 60 70 74 77 96 108 102 138 156 182 209 205 201 233 242 214 211 193 163 152 170
154 133 107 93 90 80 80 97 100 108 93 91 86 82 79 96 89 146 125 101 66 56 72 66 87 99 89 107 124 111 126 163 162 170 209 207 183 199 165 234 267 242 204
138 128 121 109 105 103 102 104 110 120 112 105 93 86 86 96 110 109 131 118 107 93 133 127 106 113 118 133 118 119 130 122 129 151 151 159 151 206 186 187 179 164 167
129 140 125 125 112 111 119 123 125 123 109 100 88 96 110 124 138 144 138 126 138 142 129 174 132 143 133 146 145 114 98 97 124 131 137 136 147 159 166 166 157 147 143
139 136 137 133 138 138 133 131 120 109 102 100 101 112 119 130 143 158 162 157 129 158 162 175 111 119 106 132 112 65 138 103 122 130 132 137 152 163 154 147 150 154 157
140 144 144 147 145 140 138 132 120 112 104 101 100 101 127 127 136 154 175 189 210 202 168 190 162 143 126 133 111 114 142 89 63 81 105 116 124 120 134 161 194 186 177
156 157 157 161 155 144 139 132 118 107 105 108 107 123 130 140 143 153 170 171 187 218 310 229 189 157 149 160 121 101 120 45 63 52 57 73 74 93 98 110 116 120 124
165 167 166 167 158 149 138 126 113 97 112 108 118 129 125 136 168 166 164 173 191 201 256 242 217 186 171 148 131 107 99 97 110 -12 0 40 38 44 56 57 70 83 102
163 163 170 170 158 143 124 118 112 106 105 111 110 126 139 153 162 170 191 181 202 216 242 197 208 184 156 141 149 132 117 111 140 95 81 34 21 8 16 32 46 49 59
167 177 175 162 142 124 116 109 100 103 108 112 121 145 151 163 181 191 196 207 188 161 182 199 210 198 201 175 153 143 134 103 153 78 62 30 11 16 21 29 26 30 34
180 174 152 141 130 113 104 97 107 109 111 118 137 145 154 178 195 194 178 176 181 184 185 185 200 196 211 176 199 156 101 118 156 159 110 74 42 49 25 27 30 27 36
161 148 147 134 123 109 97 96 103 108 118 130 133 145 169 182 173 174 186 174 151 167 176 181 227 201 184 151 112 130 169 129 161 177 213 230 161 156 159 82 33 -25 -42
154 147 143 122 109 106 90 103 118 133 133 132 154 176 203 161 147 110 97 74 87 111 121 176 168 140 127 145 163 181 170 165 117 180 138 210 183 136 166 151 77 21 -3
146 143 122 112 112 107 82 97 107 134 143 163 179 196 190 152 113 131 90 56 76 123 96 115 140 149 139 143 93 49 94 153 223 224 123 234 190 178 179 151 59 37 12
134 122 116 112 109 108 97 96 93 156 177 182 190 168 150 124 108 82 104 129 96 98 109 115 118 127 100 49 37 86 125 173 260 249 188 241 236 234 191 204 128 70 28
120 117 106 105 115 109 82 105 143 166 169 176 151 131 97 100 67 39 104 106 94 101 85 49 56 55 44 41 62 106 129 112 197 213 176 204 237 227 204 273 233 112 62
105 105 109 114 92 111 104 125 135 165 168 156 142 108 90 85 41 48 85 84 91 95 110 99 70 69 82 114 51 82 132 156 192 230 215 224 229 202 201 331 234 210 187

GFSMA_con_3kmhel_036.txt.gz
Helicity
77 66 64 72 71 62 69 84 87 91 93 89 75 71 74 79 82 73 86 139 167 158 144 168 148 181 179 182 182 186 216 242 242 219 177 165 175 178 180 151 122 89 76
77 95 107 108 112 106 102 98 94 88 83 72 75 75 78 85 86 107 119 131 178 192 193 195 207 211 192 187 190 184 177 187 184 169 165 165 174 189 187 168 147 134 125
123 115 88 107 102 101 99 97 94 89 87 85 85 84 94 100 99 141 149 164 169 201 194 179 179 181 180 178 173 161 150 151 168 179 170 163 162 157 160 169 146 135 121
146 121 106 113 101 100 84 76 76 75 72 62 62 76 84 84 120 171 173 167 159 148 156 176 176 165 164 162 154 141 143 151 154 152 140 130 129 124 116 100 90 87 95
168 115 135 116 109 100 92 69 67 56 38 56 64 79 81 96 149 188 186 160 159 141 109 137 138 128 138 134 126 134 132 142 144 141 138 144 145 132 117 121 131 136 130
177 159 165 144 117 97 97 75 87 83 58 41 46 61 74 96 134 164 146 128 140 123 85 86 40 49 111 119 122 146 140 149 144 137 138 136 127 134 149 152 148 145 135
178 176 167 138 106 88 71 81 50 73 63 56 34 66 86 109 119 135 112 89 127 82 63 57 38 65 75 107 111 134 133 134 141 146 142 150 181 173 160 164 154 153 161
182 189 152 125 102 79 84 73 67 35 30 26 12 -3 38 64 132 111 73 114 102 59 58 76 76 84 94 104 90 122 114 132 140 144 158 169 160 158 160 185 206 207 190
208 174 144 114 99 69 55 49 43 52 50 43 48 35 22 39 60 57 117 81 111 61 59 63 57 54 67 86 91 96 91 123 129 151 171 171 183 170 201 209 200 186 196
200 164 138 116 100 74 70 52 55 41 31 47 51 82 77 88 66 70 75 103 71 69 49 61 40 61 64 70 63 78 104 111 135 160 161 182 170 215 206 189 183 184 163
193 155 130 118 105 85 80 84 84 80 58 59 63 73 90 105 108 142 138 102 65 58 41 39 88 30 41 57 71 63 35 82 105 132 149 162 202 198 205 200 178 252 339
169 148 135 120 109 103 105 102 97 98 89 93 91 90 82 91 102 100 121 103 83 47 103 74 62 80 84 93 73 75 97 120 127 133 161 168 168 169 171 179 190 207 223
147 140 128 126 117 124 125 116 108 101 100 105 99 97 101 107 122 130 130 102 98 85 36 116 31 60 45 74 107 111 133 150 165 164 157 152 158 165 172 173 198 207 199
138 120 130 140 146 138 133 125 107 106 107 99 98 101 113 118 133 144 146 117 80 108 94 91 78 20 74 104 54 40 107 60 96 130 129 136 148 154 164 173 171 164 189
133 138 149 159 154 147 141 125 115 106 103 101 104 109 131 123 137 145 165 179 164 127 103 128 114 135 113 98 73 84 112 67 43 57 53 71 96 113 131 131 163 153 158
146 152 158 156 145 144 137 124 111 107 117 114 115 117 121 143 154 178 202 206 214 207 267 216 169 147 126 137 106 89 129 47 34 22 24 20 38 58 76 76 117 109 123
149 151 150 150 149 141 130 124 114 105 118 113 116 118 123 147 185 202 213 212 205 202 235 239 202 169 158 132 150 130 109 99 112 23 35 39 36 29 19 24 39 52 64
149 148 152 157 143 131 126 125 116 110 110 117 113 129 137 158 173 183 191 184 201 204 243 226 202 172 165 155 141 106 113 144 187 125 42 23 27 22 19 17 20 25 33
155 155 161 147 136 130 123 113 103 102 104 111 117 129 142 163 162 158 170 194 198 189 204 213 213 195 215 157 140 146 124 158 180 84 60 62 42 36 14 0 -4 -28 -39
148 159 139 134 131 118 103 96 101 98 106 118 134 149 154 145 134 146 165 180 203 205 186 192 214 200 188 166 137 145 122 158 175 159 174 138 66 50 32 6 -18 -29 -40
154 135 134 132 124 104 94 89 92 101 118 137 136 134 131 121 112 151 190 199 175 170 174 188 205 143 130 102 127 158 121 131 211 225 230 231 213 224 216 112 70 24 -10
143 132 137 124 104 93 73 78 97 126 139 138 128 128 169 128 150 118 115 98 101 97 138 135 134 144 145 155 108 123 181 195 235 190 227 293 241 254 243 240 130 55 28
133 137 117 95 94 90 70 82 98 145 146 129 133 165 177 176 137 160 105 65 64 79 83 115 133 144 72 105 119 138 163 205 236 257 196 280 244 276 239 217 99 51 35
132 102 91 95 90 86 86 97 100 138 126 142 167 167 166 152 132 84 102 128 106 95 119 121 112 111 110 96 105 133 140 150 228 244 201 272 257 279 238 244 167 101 43
103 99 88 81 92 86 98 104 93 118 148 157 163 145 135 120 64 25 103 104 93 102 87 41 48 43 50 45 58 105 123 110 139 195 202 227 280 282 308 401 283 181 145
101 88 85 83 77 108 87 72 84 143 149 161 150 146 98 84 27 42 85 86 92 96 95 84 75 73 73 103 54 91 113 128 139 178 210 250 265 263 325 435 342 340 278

GFSMA_con_3kmhel_039.txt.gz
Helicity
74 77 84 88 95 84 85 91 91 91 88 79 73 72 75 81 81 84 96 136 144 145 146 164 171 169 147 140 147 146 136 148 146 147 146 145 141 135 138 132 129 123 117
69 94 110 118 113 99 99 89 84 82 71 71 75 81 89 90 85 107 114 127 175 184 189 182 169 160 154 151 141 128 122 119 120 133 134 123 119 116 111 130 146 146 124
85 111 122 103 98 87 95 90 85 80 78 79 80 87 96 96 98 124 134 137 145 193 188 181 169 158 153 143 133 131 133 125 111 102 108 110 106 100 100 111 124 119 111
150 160 138 114 114 96 90 86 73 68 68 65 65 76 78 73 110 135 138 143 149 143 157 193 174 149 130 125 116 110 123 117 111 109 101 100 103 105 99 90 85 90 98
189 195 141 109 117 102 97 73 71 62 59 55 56 73 71 91 134 152 162 145 153 136 125 131 135 99 97 96 95 95 102 111 107 97 94 93 91 85 85 86 92 103 93
213 189 141 117 115 114 97 78 74 67 57 48 40 52 76 91 116 152 158 118 125 133 121 102 68 56 69 76 89 101 110 115 103 95 90 84 85 77 101 105 105 97 88
183 172 129 146 135 120 101 82 62 76 67 49 34 51 68 88 100 118 98 112 126 119 97 88 75 58 67 93 94 95 103 101 102 106 102 107 115 127 118 109 101 96 108
223 176 153 146 121 101 104 105 70 31 28 32 10 -14 38 55 108 71 83 139 98 118 102 109 78 84 82 80 81 100 106 113 114 124 126 133 142 139 127 135 131 145 161
205 180 156 133 121 97 93 78 61 46 38 30 49 27 19 47 80 90 112 113 134 93 80 67 51 52 50 56 62 75 79 93 101 103 120 129 142 132 150 135 158 183 168
217 179 153 134 120 97 82 64 58 52 33 55 34 58 64 73 45 32 59 99 83 71 40 32 31 25 24 36 51 59 82 93 100 115 130 150 153 153 156 174 186 169 171
213 182 149 133 118 98 89 81 69 63 58 45 47 58 78 88 100 99 93 90 65 37 24 10 3 -7 -1 9 20 15 23 54 56 78 100 123 149 166 182 181 179 177 189
206 179 153 133 114 98 90 85 76 78 77 68 60 66 70 75 90 96 109 88 75 35 53 16 30 33 38 53 46 71 93 107 113 144 159 150 152 153 156 156 162 165 164
182 155 136 113 98 95 98 86 94 96 92 84 84 89 82 81 90 96 99 94 110 88 62 61 36 22 3 26 53 51 78 102 139 162 160 143 137 147 151 152 155 158 139
158 132 123 108 99 104 102 105 107 103 98 97 94 88 87 96 110 107 110 103 85 102 103 110 62 12 69 81 55 11 58 44 55 73 75 100 115 124 134 137 126 132 180
147 127 114 109 106 107 118 117 112 114 109 108 100 93 95 104 114 117 130 143 145 150 141 138 119 132 112 95 51 60 76 22 29 19 42 57 73 79 84 91 94 114 106
141 123 115 113 111 117 123 124 123 111 107 105 96 99 108 119 122 139 157 170 189 192 287 197 172 140 105 95 68 60 63 45 29 48 48 56 28 14 24 25 26 42 55
131 120 114 113 114 122 129 127 112 100 98 96 106 116 117 129 146 157 170 186 199 190 237 234 194 134 99 82 84 71 69 88 129 59 19 14 17 20 19 25 27 31 36
129 115 109 114 119 130 124 108 98 92 94 102 112 131 132 147 134 138 166 166 167 163 204 187 159 143 120 80 71 91 129 119 98 68 44 32 19 -3 -9 -6 -3 -7 -3
123 114 112 121 124 122 97 82 81 87 100 112 127 126 123 121 126 144 145 145 145 158 154 183 183 192 134 103 124 106 78 94 82 54 94 50 41 36 27 21 16 10 9
126 105 112 111 112 91 80 85 83 96 112 118 118 112 108 125 138 122 111 104 152 172 157 169 205 174 156 118 118 107 89 96 90 101 157 90 80 78 58 45 29 24 22
123 98 96 107 93 81 86 87 93 107 114 114 104 107 126 124 82 98 154 179 170 165 164 181 208 125 112 112 104 95 42 122 119 117 179 149 150 218 197 115 82 43 34
89 92 109 100 93 88 79 85 101 111 118 112 108 114 121 92 87 82 121 106 118 124 113 128 115 125 108 109 65 124 141 103 149 121 154 213 189 210 209 197 91 37 14
90 107 96 88 95 83 73 89 90 117 119 110 111 109 104 113 103 131 100 71 78 55 70 105 108 104 112 11 60 109 90 121 164 209 119 205 219 239 223 225 132 92 49
108 90 92 89 78 78 84 86 89 112 112 112 102 85 98 105 111 96 115 131 86 67 83 90 85 106 113 70 83 102 80 95 185 209 119 224 247 251 252 349 232 107 125
92 91 73 77 86 86 81 84 97 111 117 94 80 74 94 102 85 58 111 99 79 72 64 34 42 56 43 27 63 129 149 152 150 172 174 147 201 223 275 372 256 185 178
97 83 81 81 74 77 80 83 93 112 90 102 97 103 93 103 55 50 84 86 87 56 65 58 72 63 47 56 57 98 128 148 155 147 149 168 196 139 192 265 295 276 228

GFSMA_con_3kmhel_042.txt.gz
Helicity
82 78 78 76 86 95 89 75 76 63 57 57 53 57 60 64 68 78 97 140 141 142 180 192 178 161 154 149 139 126 118 125 124 127 140 138 134 137 139 140 147 143 127
85 78 104 101 103 95 88 70 78 62 66 64 58 58 66 73 78 93 105 124 183 203 205 183 168 158 154 149 134 120 115 112 114 113 115 121 114 111 114 121 130 135 137
72 84 93 87 69 70 68 69 66 65 64 63 56 64 72 80 85 92 105 127 122 190 190 186 172 159 149 138 125 117 111 117 115 97 91 92 91 89 91 90 88 101 114
102 126 120 103 77 90 80 75 69 64 61 49 43 58 59 58 83 97 108 124 138 127 126 162 154 142 128 111 96 98 98 102 108 101 88 82 80 83 85 84 82 80 85
134 152 116 110 82 89 90 71 65 58 52 41 33 44 59 69 90 110 127 131 136 126 117 110 105 87 92 82 86 93 99 98 96 100 84 87 87 81 82 76 80 96 103
183 206 136 124 93 93 78 60 58 59 53 39 29 47 75 82 94 106 122 113 113 113 109 108 98 85 61 70 79 90 98 99 96 94 88 84 76 73 71 80 85 77 73
259 209 136 123 110 100 79 64 61 61 52 45 32 54 65 78 80 89 90 109 127 105 98 108 95 80 83 74 82 103 106 105 108 106 111 108 103 105 98 97 90 78 78
273 227 136 132 119 94 89 84 64 45 47 56 43 29 55 64 88 89 103 108 122 127 129 107 99 97 95 93 98 93 110 122 141 138 132 134 139 136 130 132 125 126 127
245 191 139 128 117 96 89 85 73 57 54 56 66 50 44 85 97 90 101 109 115 127 113 92 83 79 77 80 74 87 107 116 129 136 144 150 152 158 164 159 156 160 149
197 180 147 141 119 99 91 81 72 70 58 66 52 79 89 99 84 71 80 60 121 80 69 68 65 62 63 70 78 73 97 103 119 123 131 145 152 151 151 165 169 176 181
249 195 162 140 119 102 94 78 70 76 79 75 85 81 79 75 80 92 82 100 87 68 50 42 32 23 30 33 45 45 86 62 66 73 85 107 127 144 169 184 192 196 220
220 187 164 138 119 103 86 77 82 86 90 94 89 89 83 82 92 102 100 93 87 59 73 61 45 43 52 60 67 104 101 99 118 124 131 132 135 139 139 145 152 164 175
209 186 150 127 115 103 90 85 91 86 94 96 91 90 87 91 106 98 105 100 106 92 76 54 66 51 73 80 108 107 120 111 116 133 130 132 151 168 173 170 166 157 151
186 166 147 133 117 100 88 91 89 90 100 91 93 101 107 104 106 106 114 110 97 90 95 83 104 143 127 103 128 56 73 72 43 29 61 96 99 111 116 121 128 145 158
188 156 135 122 109 97 100 93 93 88 93 106 112 116 116 116 114 116 121 121 111 107 121 129 116 182 184 163 125 119 113 68 67 53 58 65 58 57 64 63 59 58 71
168 141 125 109 96 100 98 85 83 107 111 127 122 119 115 119 113 115 121 133 146 153 215 190 181 195 172 167 128 92 90 77 45 36 33 22 27 35 35 33 29 35 38
150 133 112 99 97 91 88 89 105 117 124 119 116 115 110 110 114 126 142 157 174 187 220 219 199 169 149 123 120 112 117 91 112 38 37 28 23 16 3 -15 -20 -15 2
150 129 112 101 91 94 98 100 114 119 110 112 115 110 104 123 122 139 160 171 194 200 213 183 172 149 139 120 100 96 94 99 92 50 18 21 10 9 11 20 10 11 19
146 127 105 92 93 99 94 105 115 106 101 100 106 106 116 132 136 162 167 185 191 186 175 194 187 160 151 129 87 109 75 75 70 37 24 18 24 28 22 27 -11 -2 21
133 121 106 99 100 93 98 107 97 90 94 100 105 110 126 133 141 149 157 159 171 175 154 171 181 183 162 113 108 92 72 64 78 68 79 52 40 41 39 39 37 26 20
133 118 100 98 93 99 108 99 86 90 96 104 107 117 126 136 118 132 175 159 163 172 166 170 196 185 120 103 77 65 75 64 77 83 99 120 109 138 154 100 81 47 49
127 99 96 99 97 97 107 82 92 100 101 105 108 117 128 124 133 124 133 113 108 126 142 159 157 132 88 84 74 61 64 24 15 76 85 188 144 162 193 184 98 73 57
99 99 103 98 94 95 95 96 93 92 110 110 112 120 133 159 144 151 116 61 76 70 85 112 112 86 83 64 81 53 18 16 128 144 110 212 164 189 185 206 179 112 42
100 99 101 97 88 92 92 86 88 85 104 113 116 119 140 142 131 107 96 123 123 91 81 95 75 69 74 90 79 14 9 42 161 165 102 185 145 162 200 261 160 60 100
103 98 90 85 91 88 95 89 86 98 114 115 120 109 124 90 69 67 116 117 94 71 59 45 32 22 29 12 49 95 92 93 117 114 121 89 116 147 132 242 158 128 150
98 87 85 74 84 82 87 74 89 121 121 138 124 104 85 92 77 62 99 96 91 58 53 47 51 45 39 43 31 79 115 116 112 98 118 96 101 67 81 198 230 268 209

GFSMA_con_3kmhel_045.txt.gz
Helicity
80 93 98 79 91 114 117 73 59 47 48 54 48 50 55 61 70 73 132 135 135 176 203 195 168 147 136 131 125 114 110 110 109 111 103 107 110 113 118 122 128 141 145
92 102 113 139 120 93 89 65 73 69 58 56 52 51 52 57 68 99 118 156 172 198 180 167 148 136 130 126 123 109 99 90 96 98 90 91 101 103 105 109 113 116 124
107 115 115 90 83 76 76 73 61 59 57 57 48 57 63 71 65 76 102 141 104 140 146 146 135 133 129 123 118 107 101 94 96 97 95 79 86 96 99 98 97 100 105
115 86 124 103 74 79 86 86 77 63 59 48 43 49 59 57 63 80 83 107 128 102 96 120 113 106 107 111 106 98 103 98 95 96 108 101 90 90 94 97 100 99 93
135 120 126 114 82 98 96 85 84 71 48 34 26 44 70 61 83 91 109 110 119 114 117 105 72 72 85 93 97 99 102 105 102 101 104 98 96 92 88 87 83 85 97
173 166 146 135 111 96 91 91 75 58 50 36 24 41 78 81 94 96 101 91 107 101 111 102 102 102 89 81 78 90 104 110 106 104 105 103 96 90 84 81 84 89 79
203 188 189 153 132 105 105 87 68 55 53 44 21 46 56 75 77 93 89 99 110 90 107 114 117 105 103 101 82 98 96 101 108 110 104 101 95 94 91 87 90 90 94
270 237 215 185 155 118 115 96 70 49 49 49 33 9 42 80 74 80 115 121 110 128 119 128 115 109 116 102 105 107 111 125 134 139 152 144 133 134 130 129 130 134 129
302 275 231 198 174 135 122 102 82 78 51 39 64 52 41 79 117 117 122 110 109 137 123 116 101 105 109 97 106 118 110 104 107 123 124 123 126 130 138 149 161 163 172
328 271 223 209 158 140 119 94 85 75 58 66 37 82 102 129 117 116 148 92 132 123 109 111 103 90 82 90 97 87 91 102 109 106 95 100 112 132 160 181 192 204 202
361 291 277 231 179 144 119 96 85 84 77 76 81 83 89 93 96 126 108 114 137 132 122 100 70 75 52 74 95 90 101 105 73 59 50 64 95 139 165 178 188 219 251
351 260 234 198 156 138 114 100 90 85 88 90 90 102 111 119 136 144 135 116 114 98 109 99 101 68 69 57 95 87 122 100 91 73 71 112 145 158 175 200 204 209 203
338 291 250 174 149 134 114 98 92 75 88 92 93 110 120 113 126 133 138 132 139 130 109 90 104 110 130 200 161 109 145 87 75 63 72 100 137 162 162 153 147 154 165
293 228 226 158 150 121 106 89 78 82 94 80 103 118 123 122 136 142 150 148 133 143 141 109 145 128 200 170 206 161 174 115 71 44 62 91 98 92 98 103 95 95 76
280 269 196 177 139 115 97 85 97 83 85 108 112 108 112 125 140 139 146 151 156 159 153 138 128 216 226 235 200 205 171 84 39 43 53 58 40 46 53 48 40 41 44
207 190 183 149 125 105 99 94 88 104 114 117 111 109 128 144 147 149 149 154 169 179 211 205 198 209 207 227 188 146 133 49 68 41 44 34 44 48 45 28 21 17 15
209 182 169 133 113 106 97 92 114 119 106 99 106 122 134 132 135 140 150 161 178 185 210 227 216 213 207 175 159 138 110 123 109 55 38 24 34 30 18 21 -7 -12 -2
195 196 145 129 118 106 101 112 113 109 100 98 122 134 122 126 135 135 151 160 184 190 207 194 216 201 166 133 123 114 116 134 119 58 23 17 17 14 5 2 23 21 23
219 166 142 123 108 108 111 113 116 101 95 112 121 119 121 128 134 150 167 184 199 219 227 232 219 193 172 149 125 125 123 95 114 68 19 22 22 5 27 38 29 7 -24
182 154 133 120 113 110 109 115 94 90 103 107 106 111 116 127 135 164 204 211 218 227 221 225 209 184 162 132 128 124 110 112 86 89 58 69 -10 29 45 40 32 17 -10
171 149 124 108 106 111 123 107 101 106 101 99 104 108 123 151 152 146 185 191 193 210 204 188 177 166 153 119 106 105 102 81 94 93 107 112 107 149 143 105 69 39 34
152 126 112 107 112 108 121 104 100 97 88 96 117 130 145 144 160 175 153 151 139 163 146 151 153 152 116 112 105 91 78 91 96 88 89 82 121 165 162 168 80 48 11
122 111 102 119 99 99 119 96 86 82 92 100 120 135 150 166 178 183 172 130 140 70 50 90 122 128 113 101 94 117 105 95 118 124 78 123 148 163 153 155 136 123 25
110 107 112 92 93 95 108 85 86 76 94 109 123 128 144 155 160 158 177 162 136 106 90 111 116 115 106 98 126 121 99 98 126 142 95 120 154 136 122 198 181 80 56
111 99 100 90 83 80 124 95 90 100 110 108 115 141 149 144 117 110 137 146 114 109 76 46 58 26 16 10 40 100 110 113 117 134 128 138 118 138 129 188 180 123 141
107 95 84 71 85 78 100 114 107 93 110 146 158 136 107 122 113 98 111 115 104 90 76 62 67 64 58 59 28 73 109 131 134 126 158 127 105 83 71 186 159 184 134

GFSMA_con_3kmhel_048.txt.gz
Helicity
72 56 99 90 107 142 140 130 95 64 67 80 64 57 52 65 80 112 89 135 141 171 175 151 126 107 103 101 89 89 90 83 92 101 99 90 86 95 97 102 111 119 123
47 91 137 166 160 148 146 118 104 99 82 73 66 58 66 78 88 113 98 113 138 146 146 123 111 107 106 107 96 89 84 84 90 96 96 101 93 96 100 102 102 104 110
104 172 191 151 108 131 119 133 117 103 105 78 64 61 70 78 78 95 121 105 95 108 107 103 104 99 94 95 93 93 90 92 93 96 97 100 99 90 101 108 105 102 103
197 223 182 159 134 116 184 147 131 114 96 77 57 44 56 66 68 108 118 127 91 84 85 91 89 85 83 92 98 100 97 102 103 107 110 111 109 108 102 103 108 110 112
215 229 202 186 146 156 146 145 147 111 97 76 47 33 63 60 73 106 133 135 116 122 87 75 72 84 78 88 87 90 104 112 108 106 109 111 110 103 105 102 93 90 94
245 236 206 192 201 190 148 124 134 117 89 64 37 31 64 59 78 94 109 100 105 111 93 97 91 92 109 93 91 90 97 104 110 115 111 111 107 99 85 82 80 79 80
326 284 256 264 211 162 131 130 133 112 100 68 48 46 40 54 59 60 81 76 108 90 89 100 105 87 83 99 95 82 99 93 100 97 98 107 104 99 89 80 73 67 60
371 308 327 301 271 237 197 155 108 102 71 73 48 29 44 44 44 48 96 133 120 135 143 120 105 88 97 99 87 88 106 102 96 103 116 128 124 117 118 120 118 119 119
489 403 372 322 278 242 225 214 155 127 71 53 61 34 51 40 52 102 120 139 119 137 118 96 95 97 106 95 84 99 93 73 83 81 101 97 93 94 100 108 118 127 139
423 386 359 343 322 278 251 188 145 108 80 62 53 63 77 85 81 96 145 161 179 171 135 123 105 111 102 106 82 93 85 78 76 80 86 83 83 94 110 124 134 149 165
410 368 359 353 335 281 229 187 155 123 99 80 74 71 86 88 99 133 112 126 114 99 113 120 113 103 89 82 82 89 68 71 69 69 61 51 58 77 86 106 127 176 185
472 441 374 386 351 271 239 200 138 133 111 102 93 93 94 105 128 157 166 148 123 105 130 108 97 91 90 78 89 139 128 106 71 43 30 35 71 101 139 159 165 167 151
492 453 397 359 310 278 214 174 136 116 107 101 102 107 121 116 134 157 170 152 165 145 115 106 96 96 104 151 166 174 176 132 121 87 68 80 103 136 131 133 131 137 145
417 386 354 299 279 227 197 144 112 96 99 90 97 115 121 124 151 167 165 159 139 166 165 106 105 99 141 145 163 156 182 177 116 76 82 106 121 127 118 100 109 107 60
405 382 314 284 240 209 177 125 98 88 84 88 96 110 119 131 158 155 161 176 188 184 156 145 131 145 135 144 143 154 159 119 99 88 95 106 92 81 83 75 59 46 42
385 351 323 258 264 188 163 116 93 93 97 102 114 127 139 154 155 151 157 164 181 201 225 216 178 167 151 158 149 136 149 89 80 67 67 59 49 39 50 48 25 20 19
328 286 267 207 189 176 135 113 104 98 101 109 124 134 138 145 131 146 160 164 177 197 203 204 196 174 199 178 164 165 136 141 143 65 52 27 25 44 25 17 23 26 19
289 282 242 209 193 174 131 119 110 115 109 115 132 142 129 134 147 151 159 161 191 201 215 185 196 204 211 184 172 155 146 133 129 49 10 28 11 24 9 18 18 10 6
334 311 249 218 194 142 126 124 124 122 117 127 121 117 113 134 143 153 171 195 207 198 217 234 223 209 198 177 158 148 135 119 103 69 29 15 29 13 21 23 19 6 21
299 229 203 197 146 121 115 118 123 120 131 121 103 109 120 127 137 160 174 178 182 199 200 222 229 212 176 140 145 146 129 120 105 98 65 43 30 40 27 34 19 30 28
243 199 211 144 113 98 118 126 124 140 125 108 102 111 130 135 126 134 165 193 200 211 218 206 188 178 151 136 126 117 138 122 110 106 80 160 107 143 138 76 79 72 57
226 170 128 103 105 108 118 132 130 116 96 101 112 110 121 120 132 146 156 158 165 178 187 178 174 154 130 122 133 138 143 120 108 91 115 147 122 144 136 141 84 79 76
152 135 114 109 102 111 123 122 100 94 95 94 99 110 125 139 145 175 154 134 136 105 90 115 122 121 113 107 139 144 144 134 146 126 122 114 131 139 137 131 74 103 123
122 124 108 101 101 100 111 105 100 98 89 91 98 108 131 149 161 159 176 184 165 139 110 115 105 105 116 92 100 116 102 120 116 113 104 125 163 127 101 137 133 85 104
111 109 103 99 106 117 91 105 103 94 101 101 113 132 148 163 146 117 166 156 125 106 82 29 20 19 17 13 39 97 102 105 106 100 121 119 115 95 103 125 116 89 182
111 93 96 82 80 84 78 84 86 99 108 116 132 142 104 132 113 91 120 115 103 81 82 87 85 74 68 99 42 89 105 123 122 96 131 96 73 57 32 129 121 181 173

GFSMA_con_3kmhel_051.txt.gz
Helicity
85 94 63 52 42 65 55 90 94 112 111 106 99 76 74 87 88 80 78 119 131 144 130 113 99 101 93 91 84 83 80 78 77 83 81 86 81 76 86 99 112 120 121
82 79 78 85 82 93 119 127 148 148 127 103 104 89 87 92 89 82 79 98 120 122 111 104 99 95 93 88 83 79 78 83 85 78 81 84 91 87 86 98 104 108 113
76 103 119 156 148 157 197 182 156 158 169 120 101 86 81 81 96 96 93 98 104 109 99 95 92 91 85 88 86 84 81 80 86 86 90 89 100 103 102 104 107 109 112
115 172 202 181 164 182 184 178 162 146 145 141 91 73 70 71 81 110 93 99 87 85 90 92 91 94 86 93 94 91 88 92 94 100 104 106 102 105 110 103 99 104 103
222 265 245 214 220 222 196 156 153 139 141 120 88 78 62 63 71 98 104 89 76 78 68 70 89 102 98 94 92 91 88 91 96 102 112 111 118 115 109 110 110 103 95
304 303 257 253 259 265 212 171 162 173 141 110 84 85 61 55 54 68 77 79 82 100 91 92 95 77 87 73 84 96 92 94 88 106 109 111 115 117 109 99 96 91 92
356 314 283 292 270 267 209 174 161 154 159 122 97 90 78 60 42 39 52 82 84 87 101 101 71 66 66 73 84 95 82 91 100 87 87 90 98 100 98 91 85 81 74
463 349 311 311 298 304 246 195 185 182 182 149 98 75 91 74 46 36 59 76 97 116 107 94 81 74 65 71 71 77 77 79 76 79 82 95 110 105 102 94 98 106 109
530 424 348 363 343 315 262 212 192 197 172 146 116 87 90 61 67 72 82 99 139 147 147 127 97 75 74 78 79 78 65 64 65 60 62 82 88 91 87 95 101 105 105
598 460 417 394 372 330 296 253 220 200 166 124 123 116 106 96 78 84 107 142 173 177 138 102 98 109 97 98 89 67 50 56 60 68 70 81 84 88 96 102 108 111 136
644 533 448 408 399 349 287 268 259 225 183 132 106 93 100 104 118 123 102 126 149 129 120 141 108 117 126 124 100 79 54 52 63 66 66 71 84 101 110 109 125 144 175
625 534 488 438 409 373 283 265 281 248 205 157 112 100 96 99 108 132 120 118 107 91 124 117 117 127 132 114 146 170 154 129 103 93 80 69 75 84 109 135 153 173 157
599 565 537 485 411 352 284 281 249 264 189 143 108 107 111 118 131 139 149 132 140 121 102 93 100 100 116 137 125 142 147 147 133 119 104 100 126 148 159 167 160 163 157
569 562 511 436 357 336 265 274 270 220 165 131 113 110 114 119 131 146 153 155 139 151 160 99 108 97 93 89 104 124 156 172 146 127 118 139 147 159 154 136 122 146 138
551 524 477 419 352 295 231 244 218 182 147 106 101 114 117 127 153 167 182 178 167 154 135 133 106 115 93 91 94 114 139 117 99 109 121 132 142 135 133 131 120 127 75
478 468 428 386 338 232 259 208 217 164 135 119 102 108 119 131 153 170 165 170 182 186 218 207 161 133 113 115 113 133 140 102 105 98 108 111 111 107 95 123 82 68 66
412 393 357 319 219 279 228 255 156 104 106 105 108 108 122 142 162 165 168 166 166 189 199 196 183 155 171 155 157 159 153 161 152 86 103 96 86 101 96 75 72 46 32
376 359 340 336 210 249 202 237 123 125 108 103 103 119 121 154 148 145 155 148 174 183 194 156 165 162 169 169 173 172 175 165 164 98 58 50 52 62 42 37 28 40 34
367 318 283 322 261 247 191 117 131 129 109 105 113 112 126 130 136 144 147 159 175 181 188 202 189 183 191 162 161 175 175 154 140 60 46 44 44 33 31 36 36 41 43
386 253 320 319 326 201 118 129 146 131 130 137 136 134 122 125 123 129 144 152 164 178 183 188 197 192 157 131 155 161 135 124 129 115 94 44 20 36 44 48 47 43 47
294 249 290 301 141 116 118 136 126 134 133 141 140 133 130 116 114 139 175 184 190 191 201 213 205 186 147 147 142 117 126 129 125 108 87 82 113 146 141 78 56 54 55
301 313 176 139 112 112 132 140 134 137 136 129 121 121 119 122 133 130 142 143 153 176 197 213 194 161 145 120 121 120 147 146 128 74 96 108 111 132 132 114 40 52 80
258 186 158 117 125 114 119 134 142 126 119 113 106 122 137 145 162 159 148 134 132 123 110 142 138 125 120 114 133 151 152 133 135 124 109 99 123 114 131 103 57 66 74
116 69 111 119 99 100 118 128 134 119 110 106 118 130 133 125 147 163 182 186 173 133 121 120 116 116 116 104 100 108 104 132 129 105 98 110 113 110 111 118 87 32 47
124 92 81 105 103 88 88 100 106 97 113 111 110 109 125 149 136 126 179 184 153 121 79 29 30 36 38 24 50 117 129 138 132 117 111 124 106 117 106 100 67 4 84
83 92 95 88 68 76 61 74 79 95 97 104 110 125 115 140 132 116 141 138 114 79 82 79 81 66 66 91 51 113 152 164 160 132 151 157 127 106 46 142 98 156 155

GFSMA_con_3kmhel_054.txt.gz
Helicity
84 67 40 52 46 54 44 45 59 90 107 123 116 110 92 80 77 75 81 120 154 158 139 119 112 102 90 85 82 79 79 79 75 77 80 80 85 89 88 93 105 107 108
94 88 64 47 56 59 58 82 106 117 130 113 122 116 116 95 83 82 84 102 127 132 126 117 106 97 94 86 81 80 81 84 86 85 87 89 97 98 98 100 106 108 111
96 88 80 73 78 95 132 159 159 162 159 138 133 110 104 93 84 88 91 99 111 115 108 106 102 97 98 101 87 84 85 89 91 96 101 109 108 119 119 114 112 113 113
111 114 126 121 153 176 183 186 183 176 154 133 121 113 99 84 86 88 88 85 79 83 90 95 92 97 107 110 110 109 92 85 90 95 106 112 118 126 132 133 129 118 116
147 191 179 194 195 213 191 202 184 151 136 125 107 106 98 88 80 81 74 68 57 63 63 81 95 103 102 106 105 104 100 89 94 94 111 124 123 126 125 121 122 123 114
233 227 238 262 252 256 239 218 192 176 139 117 120 125 105 93 78 66 61 62 62 65 71 76 87 84 95 94 93 96 103 95 93 94 98 113 118 128 123 114 110 105 103
271 269 302 329 291 276 246 230 222 177 156 133 153 147 117 105 89 70 58 65 71 82 87 86 83 87 80 73 74 84 96 86 91 93 91 90 97 105 108 111 99 87 83
349 322 352 349 315 312 284 244 217 190 166 169 171 175 149 118 113 99 90 88 98 120 128 118 95 80 80 80 70 76 82 90 91 97 95 92 100 117 113 100 89 87 82
465 396 377 414 389 356 290 247 220 189 191 199 205 169 152 104 97 111 126 141 145 159 154 144 118 115 102 93 85 86 76 78 87 90 95 99 102 102 96 98 97 97 98
469 418 433 450 406 374 317 277 237 208 204 197 205 197 175 139 112 111 118 140 173 172 157 124 129 127 145 143 136 123 101 84 80 92 104 106 100 97 99 94 108 101 125
430 474 462 504 456 420 382 326 279 241 209 205 204 192 173 165 153 149 129 135 154 157 137 151 141 177 186 187 172 176 192 158 127 111 107 104 96 92 96 105 107 142 147
498 467 498 515 491 454 424 326 285 265 231 252 194 214 178 141 125 133 137 137 138 138 166 161 176 183 173 174 182 178 149 130 117 110 104 87 82 87 99 133 138 141 157
531 484 520 513 508 437 404 372 352 311 241 251 201 231 147 141 131 139 145 136 149 132 135 128 120 156 174 170 118 137 127 130 123 118 106 102 121 148 175 162 161 182 174
600 571 538 495 483 456 441 393 365 328 214 267 227 210 150 137 133 132 138 154 142 158 178 119 127 127 125 83 84 86 118 116 127 135 149 174 189 185 183 179 184 185 161
612 550 475 464 456 460 422 397 323 305 282 207 248 160 139 125 131 134 151 152 157 146 133 134 112 110 91 75 63 88 101 100 110 133 143 154 165 180 168 164 142 169 154
502 460 435 404 430 421 419 354 338 269 212 221 214 171 98 115 124 138 143 171 202 190 209 180 164 133 106 104 92 115 133 116 119 119 114 135 147 138 126 128 149 125 109
418 389 384 408 387 392 343 366 373 246 231 269 179 128 119 115 122 132 159 199 180 200 212 205 185 165 165 146 154 166 158 174 165 100 115 118 104 104 136 118 104 103 80
366 390 401 421 403 323 384 261 299 275 161 92 99 85 95 115 122 140 182 156 182 188 211 171 183 181 169 166 175 168 183 180 179 119 89 74 78 81 78 83 76 78 76
380 409 433 408 331 357 287 282 223 208 231 181 123 103 129 142 155 177 163 165 177 182 184 196 178 193 187 180 167 161 187 157 152 70 40 46 63 66 59 56 63 67 54
419 455 466 444 410 299 311 343 309 206 139 107 150 152 157 161 142 140 145 145 153 162 172 190 208 208 206 165 164 183 160 128 131 124 96 39 28 38 64 63 62 63 63
488 482 393 364 309 262 244 210 146 149 141 159 167 168 159 146 119 126 152 145 169 193 201 228 233 248 199 161 175 131 123 121 117 115 116 74 134 156 165 102 80 60 60
544 375 388 193 212 118 105 120 151 168 163 146 145 160 156 155 172 169 162 165 170 202 221 233 233 197 171 151 122 119 118 103 84 79 123 100 123 132 143 136 45 27 40
303 305 193 152 135 129 111 121 139 152 134 136 143 146 150 145 150 162 167 177 184 164 154 185 195 157 137 117 123 117 103 114 118 124 115 141 133 135 145 119 38 37 38
298 170 109 84 84 70 75 97 115 112 129 122 114 114 121 131 145 154 177 201 202 174 159 164 145 133 132 114 93 92 91 120 144 146 129 160 141 159 134 142 82 3 4
128 92 73 72 47 66 74 74 105 110 109 104 100 123 124 131 142 135 175 193 177 149 111 47 45 45 50 37 48 107 118 117 125 128 121 125 146 143 120 132 100 1 54
58 35 18 29 75 80 59 75 87 85 89 107 121 119 132 149 128 112 167 177 154 117 110 85 94 67 68 81 53 108 129 137 132 95 112 144 132 110 28 135 112 173 164

GFSMA_con_3kmhel_057.txt.gz
Helicity
88 84 57 55 49 55 54 64 68 84 109 130 120 100 88 78 72 70 76 112 155 141 114 101 96 91 89 84 79 78 79 79 82 83 84 88 90 98 100 105 107 111 114
106 94 69 58 61 55 64 74 83 106 126 130 145 121 100 88 82 79 88 110 138 124 112 102 93 88 90 86 81 74 76 85 85 85 87 93 98 107 113 114 112 114 117
111 100 84 77 64 68 90 103 133 143 149 141 139 119 112 98 88 92 93 106 120 120 106 98 96 93 93 95 88 88 80 81 84 88 97 101 101 107 119 125 126 126 124
118 115 113 93 92 94 114 151 170 176 153 127 118 113 109 97 84 89 93 90 87 95 92 92 96 99 99 101 97 96 92 73 77 79 93 93 93 94 104 118 120 119 115
142 145 124 119 145 155 177 200 191 159 136 129 125 120 109 100 85 86 82 80 76 80 76 84 93 101 102 103 104 100 95 84 81 76 74 86 92 96 105 110 111 117 117
171 171 163 174 216 233 226 214 201 176 136 131 137 126 124 124 112 94 77 86 81 89 101 100 100 93 99 99 100 97 102 96 86 81 77 79 85 91 101 108 109 106 101
202 205 214 222 265 275 224 237 221 178 165 146 151 138 137 135 130 113 100 98 106 107 119 124 114 103 101 98 89 85 101 95 92 87 83 85 77 81 92 100 98 97 96
246 253 264 257 281 321 299 282 251 234 197 164 148 157 139 143 160 147 129 117 117 128 151 156 145 130 114 108 101 101 102 105 103 96 96 97 96 94 93 92 86 89 89
291 295 265 320 323 325 342 301 286 257 246 206 166 173 174 139 148 158 160 154 150 171 181 174 162 150 136 135 138 126 121 109 96 93 99 103 107 98 87 83 85 83 94
372 363 330 340 382 416 406 338 300 304 287 243 225 205 214 191 170 155 162 161 176 184 191 170 159 163 189 199 211 200 193 166 145 129 119 112 109 104 92 83 79 81 86
371 392 401 394 409 439 408 376 333 299 301 268 250 219 225 233 201 222 163 158 158 147 160 169 164 202 239 247 207 193 194 168 143 124 105 97 95 94 90 92 97 94 113
447 425 429 412 381 396 412 400 331 282 309 283 263 242 216 212 206 228 212 177 159 164 171 175 209 229 241 226 214 231 186 148 136 112 101 94 91 88 92 103 104 113 113
480 427 489 461 425 403 439 415 344 345 324 314 291 275 265 229 217 231 202 176 156 154 166 166 197 234 228 215 181 172 144 139 132 125 114 108 107 121 143 138 130 139 150
466 481 497 511 465 418 444 398 358 379 378 380 322 292 248 221 211 203 157 153 174 171 164 129 176 183 196 153 114 108 112 106 108 102 104 113 138 155 157 161 172 177 185
494 531 508 493 468 450 404 385 404 409 434 395 335 295 245 193 184 175 156 137 130 162 126 146 140 136 138 109 78 84 78 65 69 88 97 119 144 157 171 179 189 178 175
469 497 505 465 459 398 354 398 431 441 417 417 283 333 262 187 223 225 176 139 151 148 186 150 155 151 132 121 96 106 114 95 100 114 115 133 133 142 146 138 137 125 99
403 430 432 403 400 390 390 423 416 415 445 340 379 310 197 216 153 127 147 166 147 186 195 194 183 172 168 144 141 162 143 157 156 110 127 131 133 115 97 94 79 76 75
353 373 349 394 441 437 413 421 378 364 314 309 386 255 273 140 195 163 140 151 151 159 193 175 181 178 172 154 150 155 158 166 177 133 101 100 97 76 72 55 65 62 68
326 367 414 489 525 467 432 374 356 346 304 269 265 238 152 177 139 133 130 141 153 164 188 206 171 178 164 152 171 168 180 173 179 94 69 87 76 67 75 76 76 86 86
357 409 451 467 431 426 399 376 384 286 294 177 142 173 145 130 125 143 148 135 152 172 178 185 186 203 192 154 181 171 187 178 173 139 101 63 29 42 68 69 81 90 92
417 449 505 521 490 451 337 411 322 287 126 84 88 122 122 141 134 128 147 150 159 175 184 195 210 237 204 173 171 183 192 161 130 128 118 96 112 154 155 90 71 52 62
452 480 487 428 392 365 337 268 221 92 99 97 87 112 124 154 163 163 150 147 165 190 199 220 230 211 174 181 180 167 166 136 91 71 118 123 115 148 162 135 55 29 31
437 422 400 329 322 242 135 117 84 87 84 93 118 131 130 143 154 145 136 138 155 143 160 187 193 175 173 145 154 144 125 122 122 121 112 139 130 151 143 116 40 31 25
285 270 232 204 142 74 32 47 60 80 108 114 109 116 115 110 113 113 138 168 184 163 161 171 157 143 138 120 111 109 101 118 132 125 106 153 114 129 119 135 72 9 -5
175 199 157 78 9 10 43 62 84 85 87 108 101 105 102 107 95 112 157 171 156 144 114 53 63 54 52 44 59 111 123 120 115 109 106 116 119 88 112 106 61 -1 8
95 95 26 3 37 65 62 85 73 86 98 108 119 111 103 125 116 109 161 162 143 117 112 96 96 72 73 84 57 119 139 147 124 86 87 142 118 84 25 113 104 166 141

GFSMA_con_3kmhel_060.txt.gz
Helicity
85 82 76 77 73 76 70 74 77 83 88 96 96 94 93 86 76 69 68 107 162 139 104 96 87 83 81 74 71 71 72 74 73 76 81 82 86 90 93 92 91 95 97
105 93 92 80 79 76 83 88 86 95 108 103 106 100 98 93 83 82 87 113 143 119 100 93 91 87 82 74 68 69 68 69 71 71 76 78 80 83 91 93 92 98 101
123 109 106 98 80 82 92 112 115 126 139 135 127 118 108 94 87 89 99 122 134 127 101 94 92 95 93 86 81 75 68 59 61 64 72 79 78 81 89 92 95 96 98
137 122 116 100 101 107 110 129 144 158 155 134 123 114 110 100 93 94 100 105 105 114 107 99 97 95 99 100 90 82 77 61 56 56 66 72 78 76 83 86 89 89 93
136 142 122 101 136 133 138 171 177 175 161 144 126 120 115 107 90 101 107 109 108 108 112 118 124 118 108 104 101 88 82 78 72 67 66 65 75 78 79 81 83 82 82
149 153 136 137 168 179 181 200 217 205 160 152 157 137 115 98 104 105 107 103 110 112 113 145 145 121 129 108 100 93 90 93 87 77 73 73 69 67 67 70 74 77 72
185 143 150 160 200 216 200 217 248 217 200 185 192 154 133 123 121 120 127 132 126 128 133 131 126 115 114 116 110 102 99 98 98 86 78 79 72 71 64 67 65 64 61
226 202 187 189 217 242 248 276 291 267 223 183 178 179 136 135 153 165 161 143 140 150 145 156 145 142 131 118 107 118 116 113 106 92 86 81 81 79 70 66 60 57 62
271 231 260 256 231 259 267 293 309 294 278 214 188 180 162 133 153 166 171 166 170 176 180 174 171 158 148 141 148 152 157 163 146 123 110 106 103 89 78 75 73 71 63
293 288 284 277 287 293 299 355 366 339 270 232 205 193 240 204 177 167 184 186 182 191 199 191 177 169 163 163 180 190 197 185 162 138 116 104 96 89 84 81 77 71 71
328 325 300 336 345 344 353 369 383 345 294 276 279 232 249 258 251 257 218 179 181 171 175 179 173 169 180 192 185 193 210 190 155 127 108 92 83 79 76 76 72 77 83
392 362 338 332 369 384 389 381 369 334 313 280 291 277 267 272 261 273 296 259 234 200 205 175 174 172 186 202 202 222 202 169 146 124 114 102 98 96 100 101 105 110 108
362 341 372 410 406 412 389 406 372 358 323 295 299 305 300 317 272 301 325 251 251 251 223 190 181 178 184 192 182 214 166 151 137 125 107 103 111 120 127 125 121 120 127
269 367 406 408 447 448 432 415 398 362 333 308 328 323 355 290 339 260 297 260 285 243 238 199 173 149 133 190 173 147 131 102 100 96 100 101 116 128 140 143 142 145 144
315 320 388 477 428 402 399 387 393 371 365 400 403 382 353 366 357 334 304 268 221 194 210 191 135 131 129 159 124 110 86 60 64 75 62 61 81 99 115 121 137 147 137
314 328 383 422 437 416 382 382 375 388 417 436 440 392 480 355 422 397 363 335 237 213 202 141 129 139 155 138 100 97 93 63 69 80 80 89 107 122 115 100 96 96 101
294 303 324 357 372 392 381 393 403 426 437 445 451 428 326 361 273 242 259 194 181 160 225 174 144 156 152 133 125 128 113 127 135 96 109 129 151 138 112 115 88 79 62
246 279 316 352 386 404 408 418 454 457 419 395 403 339 337 304 239 170 141 95 121 144 159 158 157 146 128 119 117 121 123 138 151 107 107 139 155 123 107 79 76 66 64
222 254 317 359 384 424 466 477 485 474 404 398 306 318 283 218 153 102 81 115 114 129 150 164 147 126 115 114 134 135 140 144 151 106 107 134 124 98 86 70 59 70 50
316 318 365 406 454 510 547 586 536 441 401 279 263 235 203 119 73 89 104 107 134 131 131 141 149 153 139 118 144 133 131 148 168 156 134 103 80 74 64 67 64 50 41
306 348 431 471 493 467 439 412 417 253 256 255 206 126 76 27 56 104 133 123 113 133 140 152 150 164 159 143 136 153 172 160 148 125 125 124 121 149 182 113 79 51 50
337 383 410 441 431 415 378 239 265 265 196 113 88 70 91 117 134 106 111 121 116 136 151 157 165 157 150 156 170 154 162 137 121 95 127 135 134 159 175 140 55 39 45
250 312 311 308 323 225 144 182 135 118 59 43 65 92 111 97 109 105 106 128 144 120 124 150 164 163 170 144 151 131 113 122 131 142 134 163 139 163 125 118 38 37 29
262 232 218 225 185 152 139 118 66 38 73 90 91 75 80 99 102 103 119 132 126 114 131 154 157 142 131 105 101 105 106 137 172 163 148 187 122 131 94 117 55 -12 3
203 155 180 136 91 53 66 45 32 65 66 83 89 102 90 99 102 110 126 117 112 128 114 70 60 37 30 22 46 109 131 145 155 154 163 131 168 128 103 86 2 -46 -0
143 122 75 29 29 33 13 48 77 68 78 99 107 107 101 100 88 95 147 150 138 113 93 72 68 52 58 69 46 109 149 172 165 155 181 233 217 144 81 119 96 147 124

GFSMA_con_3kmhel_063.txt.gz
Helicity
81 82 79 80 84 85 80 82 78 76 72 76 79 79 82 83 85 76 68 86 177 139 94 86 73 65 59 57 55 57 61 61 62 65 70 76 82 82 84 82 84 87 88
86 85 81 84 87 86 91 88 83 85 89 87 94 93 95 93 86 84 87 100 150 117 98 85 70 63 60 59 56 53 52 50 54 57 64 71 72 78 83 83 81 83 90
88 89 86 88 85 91 99 106 108 106 108 98 102 102 102 106 104 101 100 110 115 124 103 96 87 83 72 64 61 59 51 42 46 47 51 59 63 62 65 68 68 71 78
94 92 95 86 87 104 108 115 125 121 126 117 118 117 111 103 96 98 101 110 123 123 126 110 97 88 89 89 78 64 58 50 41 42 44 43 47 52 55 60 66 63 67
101 102 99 82 93 114 115 128 146 143 139 127 127 121 110 103 96 90 90 112 126 133 128 127 128 124 122 105 83 78 74 69 57 49 42 43 50 51 51 52 52 56 60
117 110 95 81 111 130 141 149 158 165 148 155 145 129 121 111 100 84 94 117 129 129 131 129 130 133 127 121 98 90 82 75 70 64 55 57 58 56 51 50 47 48 48
142 119 115 91 121 148 160 146 192 176 199 194 188 143 124 122 110 107 119 126 137 140 136 139 134 124 117 130 112 97 91 77 76 78 77 68 64 57 50 47 44 45 46
174 168 150 152 141 169 167 194 238 260 234 208 202 185 125 111 120 130 147 151 154 159 155 154 152 141 140 131 119 110 98 98 94 89 92 89 82 73 65 55 49 48 53
224 218 202 209 193 202 223 234 254 271 304 237 233 218 179 133 131 137 142 154 164 176 185 181 179 175 162 148 137 131 146 128 123 118 114 110 103 83 66 59 54 53 55
216 237 237 249 251 261 254 274 288 304 349 324 277 203 218 211 189 180 146 157 179 177 198 198 203 199 186 169 165 164 157 140 125 120 114 106 94 77 66 62 62 59 61
212 228 237 277 291 322 280 313 325 314 333 329 360 315 235 238 250 255 177 210 203 221 239 221 223 206 206 180 153 158 164 147 136 129 115 105 101 91 82 77 78 79 75
248 259 276 273 280 302 313 339 346 318 336 326 304 297 302 285 269 289 295 249 256 235 253 228 204 189 203 198 181 175 168 156 137 119 121 116 105 98 98 101 101 99 95
240 228 271 293 296 289 298 342 359 334 344 343 299 304 283 277 264 301 316 296 288 340 272 248 208 188 177 202 219 208 162 135 120 119 111 110 117 110 108 105 100 101 102
185 181 216 233 258 286 333 345 353 339 353 364 295 286 311 295 288 329 359 306 282 417 287 267 278 221 166 165 189 172 109 99 104 101 102 109 105 103 110 108 109 116 124
212 191 179 221 241 259 290 334 362 353 347 369 350 373 391 360 421 412 382 377 390 295 363 308 322 193 150 140 142 122 96 79 78 78 72 66 67 76 80 80 88 103 109
134 138 157 208 268 293 296 336 361 349 383 394 391 399 435 452 488 491 388 432 383 307 289 214 143 184 141 119 111 109 96 70 59 58 55 53 70 87 86 79 75 85 96
146 148 188 211 212 294 331 354 371 378 419 429 435 475 533 522 495 431 439 292 244 216 151 167 157 133 109 95 109 114 103 97 94 70 74 97 119 111 106 106 96 102 111
170 181 200 224 243 288 322 364 379 396 443 506 516 521 484 376 310 288 230 164 182 146 146 137 118 102 105 91 79 93 100 98 97 87 82 108 123 126 111 98 98 100 92
226 252 271 266 256 323 401 421 470 511 536 499 438 394 370 270 215 214 209 144 118 93 99 130 110 104 115 95 76 70 77 93 99 68 75 102 98 87 83 81 84 81 74
237 244 299 329 360 393 433 470 493 495 477 384 336 345 228 203 156 125 85 84 98 94 101 120 112 106 93 81 92 89 100 104 110 93 74 59 42 48 48 60 77 72 61
347 362 366 398 396 415 394 417 418 378 323 290 273 182 148 116 74 48 90 86 88 109 104 104 102 105 96 98 115 118 114 105 101 66 70 60 83 87 115 110 102 75 77
297 341 388 359 364 355 309 282 240 253 226 186 122 100 83 77 80 96 96 78 78 99 108 123 127 117 127 125 113 116 109 107 102 44 71 82 86 114 111 85 48 49 55
240 223 166 242 207 180 209 210 214 184 92 64 69 82 79 100 107 104 107 115 110 126 144 146 142 135 124 113 115 99 68 64 68 111 89 114 94 89 79 92 51 44 22
186 130 171 199 169 161 138 106 82 53 61 81 96 106 121 100 94 102 95 114 130 147 154 139 118 104 85 66 52 49 52 61 81 93 77 130 73 95 97 117 77 -4 -1
153 132 121 107 101 57 43 65 56 46 61 78 64 74 87 103 104 116 135 131 136 125 92 78 69 56 37 21 44 68 67 81 93 94 90 83 104 110 114 130 71 67 74
73 55 58 27 32 23 37 42 40 48 72 75 77 96 111 116 123 132 152 126 107 80 72 77 62 50 49 47 44 70 80 92 95 103 130 136 126 93 106 171 162 173 123

GFSMA_con_3kmhel_066.txt.gz
Helicity
62 69 71 77 76 80 77 73 68 67 57 60 64 70 73 72 79 73 69 74 142 122 85 73 64 57 54 55 52 57 58 55 57 56 57 60 63 66 69 71 72 71 75
61 69 72 76 85 85 86 81 79 79 78 74 80 80 75 83 87 87 87 102 159 122 92 76 65 61 55 53 55 52 53 53 51 50 51 56 59 62 65 69 70 69 71
58 69 73 84 83 90 87 91 96 91 94 96 89 86 83 88 90 86 83 93 97 131 102 87 79 79 71 63 55 59 57 46 46 41 40 43 50 53 57 64 64 65 63
60 75 90 94 83 94 98 95 96 102 100 102 109 107 107 97 88 84 81 83 83 87 113 102 92 84 81 68 81 80 63 56 43 41 37 34 35 42 49 52 55 58 58
66 81 91 95 92 103 105 95 97 100 116 113 121 122 116 105 99 103 88 88 88 96 98 140 130 119 102 107 104 84 74 67 58 50 39 34 38 36 38 41 45 42 46
85 95 89 80 100 119 107 109 107 116 111 122 134 131 123 114 110 105 102 92 97 109 107 118 125 127 132 125 110 105 93 79 66 64 56 48 43 43 37 40 42 46 47
95 98 99 87 95 115 120 120 119 135 155 163 169 159 132 113 108 112 113 104 114 120 123 127 125 131 132 138 133 126 116 92 81 76 69 64 55 50 47 45 46 48 52
92 125 113 120 112 117 124 139 159 191 167 188 190 177 169 138 123 121 127 122 119 136 142 143 138 138 143 129 148 149 136 123 111 102 92 90 85 80 72 67 56 52 55
106 117 124 151 154 159 183 177 196 201 239 203 208 224 237 187 184 156 138 139 141 155 151 158 165 161 163 163 151 156 166 144 129 125 116 107 94 81 73 68 65 58 53
141 122 123 144 177 235 235 254 275 249 253 266 276 235 282 295 201 181 165 139 154 153 169 192 183 190 191 195 210 224 178 155 140 132 118 99 88 82 78 78 76 66 63
139 155 153 152 177 220 208 257 320 297 314 282 323 356 259 247 249 274 219 212 203 207 185 221 213 212 201 223 200 198 184 166 156 138 107 93 92 87 89 91 91 91 89
166 158 187 196 215 239 206 248 266 291 335 323 298 314 346 336 314 292 272 296 211 202 240 283 267 280 224 220 231 216 189 156 143 127 103 84 90 105 120 105 96 95 98
172 163 155 173 215 239 264 256 260 272 324 338 340 347 332 304 290 282 316 345 301 296 261 272 344 311 251 256 240 191 199 146 137 122 107 85 105 120 108 96 93 98 100
147 128 139 145 155 177 229 251 269 262 273 318 291 326 385 344 310 324 327 337 321 331 344 351 354 301 286 232 240 219 161 137 131 115 82 88 100 102 104 101 100 101 98
176 157 151 144 173 195 218 231 270 263 250 323 404 404 355 388 396 409 389 409 331 354 389 438 402 356 267 259 160 178 154 131 98 79 78 65 66 81 81 84 88 91 101
149 136 141 139 158 187 210 233 280 301 305 340 379 478 442 409 390 372 407 447 465 440 440 329 367 390 301 197 157 126 116 117 67 60 53 54 63 66 73 69 55 50 67
158 133 123 122 110 123 168 248 321 355 360 394 384 465 459 404 347 393 392 373 363 375 293 322 227 178 148 124 111 111 110 76 77 61 43 56 75 66 46 36 44 73 88
143 123 109 124 141 155 174 219 280 318 356 387 390 387 388 353 366 349 329 305 317 261 282 172 192 179 146 153 155 115 112 106 95 73 74 89 64 59 65 75 93 84 60
174 167 158 148 170 190 216 279 333 402 421 410 371 364 326 286 283 248 224 234 219 208 142 155 151 132 113 121 128 116 115 110 106 63 84 99 86 90 81 63 57 45 32
172 195 208 223 229 244 282 335 382 425 425 383 330 310 279 266 235 237 198 191 141 116 112 111 117 139 126 100 96 79 98 109 100 90 106 80 61 58 41 45 35 25 35
184 218 246 257 283 304 315 354 344 345 339 327 326 295 245 246 203 165 135 116 127 131 135 133 118 118 113 98 117 135 120 104 102 109 108 81 79 74 67 54 50 47 59
177 206 266 322 343 376 326 336 244 243 260 242 229 235 212 138 105 111 103 85 100 111 127 138 137 112 104 135 128 106 116 140 140 54 62 59 66 74 80 62 35 33 38
211 287 343 313 302 253 197 182 189 191 208 166 165 147 92 82 70 80 77 88 95 99 104 121 121 123 123 122 144 100 85 74 60 52 59 66 60 60 53 55 32 42 40
131 143 162 184 167 114 171 147 118 117 110 86 73 82 89 92 82 90 87 95 111 123 138 145 125 99 94 75 64 53 44 42 49 55 62 80 57 63 58 73 62 34 19
115 94 78 51 52 32 28 31 28 46 37 41 73 80 101 98 92 84 123 140 135 137 113 86 60 37 20 12 32 60 58 65 74 66 64 71 61 67 95 107 59 49 79
62 35 45 10 19 22 24 40 41 23 35 54 78 96 104 115 140 153 137 124 109 89 65 41 34 33 43 48 57 70 83 89 90 86 103 114 78 58 58 110 83 100 80

GFSMA_con_3kmhel_069.txt.gz
Helicity
57 49 58 61 66 75 70 71 64 79 66 72 67 73 79 77 86 87 130 109 117 107 81 68 62 59 60 61 62 63 58 57 57 56 56 57 63 65 62 60 65 68 72
74 67 76 77 74 77 78 84 89 97 84 82 82 88 89 94 86 100 119 119 161 123 88 71 66 60 59 54 54 55 58 60 61 58 56 57 60 60 60 59 58 61 65
78 79 79 107 87 79 76 100 109 112 101 103 100 99 101 93 99 109 120 143 118 129 104 81 75 66 62 58 61 60 61 65 62 56 52 49 48 51 55 56 59 62 63
72 83 94 99 107 80 100 124 124 125 117 121 112 120 117 117 102 104 116 140 130 90 104 99 91 84 83 74 70 69 79 73 53 50 44 44 43 41 42 44 47 52 60
64 88 102 102 107 149 130 134 134 133 132 138 132 134 129 129 118 119 114 124 139 132 90 133 137 121 105 100 92 92 97 78 64 51 44 40 41 37 39 37 36 38 39
78 110 111 105 120 159 174 145 143 148 139 140 145 163 154 148 143 141 129 136 133 135 131 171 172 153 136 130 122 121 112 92 78 68 61 56 51 50 43 43 39 41 48
104 104 120 114 132 138 196 150 152 149 153 165 192 204 193 155 150 153 145 153 151 147 138 163 134 139 155 156 149 138 135 109 98 88 80 73 70 64 56 49 46 47 44
148 151 133 138 135 159 165 182 143 196 181 213 276 222 203 179 161 171 178 177 169 176 152 167 170 165 158 142 179 169 148 138 142 131 114 106 95 86 78 69 65 57 54
179 182 184 184 161 161 176 204 192 210 239 247 250 322 263 238 208 173 198 203 187 208 190 180 187 189 221 209 203 185 193 183 165 151 132 116 106 94 89 73 58 50 50
144 179 179 182 181 189 188 197 232 267 281 286 279 229 333 344 239 218 189 181 200 221 225 222 223 250 236 229 269 271 216 208 191 161 141 130 106 96 93 83 69 72 63
108 140 162 176 173 207 190 212 222 271 312 307 346 385 306 303 316 338 291 239 233 232 262 258 249 251 255 269 274 282 256 210 202 183 138 134 116 93 84 85 88 87 90
157 121 127 131 169 216 228 242 261 280 315 300 337 346 385 398 376 397 356 342 294 258 257 299 318 339 301 285 366 323 304 269 208 223 162 115 107 92 95 100 84 86 87
163 160 132 121 141 183 237 259 248 307 316 331 342 366 383 386 429 348 366 390 414 396 346 329 339 341 322 317 366 329 331 242 272 179 153 121 112 96 101 89 88 78 87
161 134 138 130 132 144 183 235 268 284 297 269 270 326 409 455 457 450 393 425 553 446 418 390 326 362 387 318 356 340 335 335 220 132 128 114 105 122 80 81 76 74 83
192 228 172 147 149 154 162 186 236 264 285 267 301 464 521 440 429 486 608 597 331 244 300 313 348 419 424 416 344 260 227 261 155 87 76 77 89 81 69 68 65 76 79
203 194 172 178 156 142 149 171 222 252 313 384 407 424 407 383 388 400 366 424 416 247 177 218 298 294 298 320 298 222 179 94 101 105 88 95 90 64 69 71 64 68 71
220 192 166 145 135 131 140 202 236 277 329 350 358 351 360 343 332 318 304 259 262 203 193 214 239 251 266 266 208 179 139 165 127 74 70 72 59 54 54 47 53 61 61
274 269 231 189 173 150 147 140 156 180 203 243 271 313 319 310 261 260 191 210 215 247 215 230 223 212 171 139 128 116 97 84 98 73 66 72 54 65 61 47 53 58 58
189 207 214 204 196 203 194 168 164 194 212 227 250 298 288 262 242 211 219 158 171 199 228 236 210 120 110 101 97 109 115 105 99 80 89 81 85 87 75 77 70 50 41
123 136 158 156 170 179 210 228 225 243 275 308 371 364 291 267 222 237 183 195 174 146 133 125 111 124 131 101 95 91 101 139 114 100 103 89 74 65 54 62 34 30 32
154 169 155 171 163 177 191 232 248 287 300 334 341 296 211 178 172 168 182 126 171 137 134 126 95 86 109 112 117 149 142 133 121 127 125 91 87 80 80 48 45 43 59
118 142 158 202 180 191 240 260 269 278 285 272 224 164 134 176 164 188 155 135 101 64 93 106 119 107 113 155 179 163 166 123 97 67 78 65 88 88 93 85 34 36 48
150 155 200 227 245 236 225 212 231 238 243 131 173 94 118 87 85 65 67 89 94 95 97 121 135 146 149 151 139 92 73 66 75 91 70 85 113 91 100 84 36 37 44
108 104 98 107 106 90 134 147 133 114 71 68 53 40 17 21 69 84 86 91 110 117 123 132 122 87 68 71 69 78 74 71 68 72 80 111 99 83 92 103 62 19 10
83 61 48 45 40 41 51 52 40 20 19 23 24 29 49 73 99 103 108 131 148 149 107 69 29 9 8 24 43 74 80 77 82 89 88 82 97 92 101 101 76 13 47
16 16 8 14 29 29 30 35 27 24 28 46 75 93 120 126 133 145 141 133 129 82 32 28 32 33 35 54 50 101 96 104 112 95 134 134 119 82 64 163 99 131 106

GFSMA_con_3kmhel_072.txt.gz
Helicity
119 63 98 78 58 97 43 79 70 58 64 76 79 83 98 126 138 126 128 126 150 121 95 86 74 71 66 67 68 63 63 62 61 59 58 58 53 54 54 58 57 62 65
115 72 83 96 76 113 58 105 72 111 139 99 99 121 139 150 138 135 147 133 167 142 102 89 76 72 68 67 68 62 61 63 61 63 64 69 67 59 59 56 52 52 55
108 96 118 128 124 102 101 114 110 142 170 132 137 144 154 141 131 132 178 181 177 150 116 94 85 74 72 70 71 66 63 68 76 76 70 64 57 58 56 52 45 45 48
108 115 114 142 145 134 127 125 147 167 190 185 173 168 162 159 136 131 163 185 173 158 134 114 101 86 84 81 73 74 84 89 90 84 64 59 62 60 60 53 47 44 40
113 138 126 114 152 127 117 141 160 193 229 220 208 178 192 175 153 143 145 177 171 171 148 136 140 130 108 95 99 90 98 96 90 74 61 54 56 52 56 50 49 45 40
147 163 153 145 140 193 156 197 186 186 228 205 211 192 209 195 168 164 176 165 209 219 182 197 196 190 153 127 131 120 107 105 97 88 75 69 64 58 50 46 43 43 43
194 185 189 164 170 188 234 215 215 203 220 238 256 264 253 187 177 192 190 196 218 222 268 257 240 220 203 162 159 151 141 125 110 102 89 90 91 90 80 74 65 56 48
210 245 231 213 188 207 271 242 238 254 233 262 294 307 246 232 190 192 210 217 227 258 247 267 226 224 219 215 216 179 173 146 135 126 127 123 122 114 104 92 79 67 60
216 225 241 243 227 230 229 286 266 259 248 273 309 319 223 228 222 203 200 227 257 306 276 263 265 241 220 220 209 205 177 187 162 154 143 138 145 137 116 116 105 93 79
155 165 243 237 248 245 235 246 290 295 351 316 336 253 272 268 233 227 216 207 233 280 295 294 304 278 319 313 236 204 186 185 183 185 183 171 167 154 144 115 102 89 82
109 117 147 198 223 231 223 209 242 277 312 396 409 408 254 274 313 323 288 294 291 290 300 312 313 360 350 368 332 272 224 192 188 214 204 192 191 179 160 140 120 109 88
140 157 123 108 150 201 226 188 194 231 278 347 432 424 427 387 333 391 379 376 335 362 406 417 407 382 386 412 366 320 294 252 180 212 234 243 218 170 196 118 96 93 84
153 148 146 125 144 141 174 207 208 241 267 325 354 404 396 363 370 351 383 404 435 513 605 779 602 547 527 455 426 345 423 344 226 214 201 193 161 204 142 88 128 121 97
173 155 170 177 151 144 148 154 186 218 238 267 307 353 379 371 400 417 368 391 410 513 555 602 720 684 546 309 186 157 265 304 254 246 192 163 142 145 102 103 104 95 82
235 252 262 210 161 141 131 131 162 186 230 267 293 357 422 463 437 400 391 372 376 331 372 451 413 267 368 293 277 254 212 199 201 133 106 105 77 74 91 106 93 81 79
261 240 222 212 215 202 184 173 165 178 219 270 301 346 378 379 385 362 340 326 330 322 241 243 324 227 182 270 194 189 168 146 106 79 84 90 86 99 91 70 76 68 73
269 294 251 248 233 221 196 159 164 183 203 227 250 271 292 277 279 266 252 247 237 235 146 189 244 149 190 155 201 171 129 126 119 75 90 84 92 91 80 78 78 78 81
248 260 266 241 226 205 193 199 212 220 222 235 237 242 236 232 249 232 211 206 169 185 169 126 161 146 152 158 133 116 103 90 104 89 79 79 77 84 85 95 83 83 81
173 185 174 169 163 168 163 166 185 218 237 224 221 215 211 214 243 222 191 188 184 140 161 127 142 125 118 110 84 72 92 110 96 84 107 100 119 98 97 87 84 72 56
102 119 136 157 164 187 184 177 183 218 240 251 262 268 259 216 195 194 217 126 96 140 110 142 124 96 85 91 97 110 121 110 119 134 134 100 81 66 66 57 41 42 46
152 143 135 168 151 155 158 157 171 173 189 218 215 214 190 201 216 165 153 91 77 98 109 78 63 74 97 108 100 125 141 139 92 83 71 56 63 57 73 67 54 48 53
125 129 172 165 159 140 123 155 156 138 180 199 209 212 185 221 208 241 114 87 75 45 51 71 95 99 97 121 148 134 74 55 75 62 85 102 104 108 115 115 50 44 51
96 99 125 106 110 88 109 119 149 129 142 168 159 130 109 112 77 61 14 27 82 82 95 104 108 130 138 125 63 57 57 74 97 109 107 98 112 105 99 76 43 47 44
89 92 75 58 50 35 55 65 72 48 50 53 57 42 21 32 36 21 75 74 74 91 94 129 143 107 62 43 55 59 69 62 71 81 93 120 101 87 77 112 74 15 27
65 58 35 14 17 6 29 39 39 38 50 58 62 68 72 72 109 126 130 132 126 134 120 94 49 12 11 12 23 75 73 83 68 79 119 104 69 65 68 82 56 23 71
20 8 -16 -8 14 5 35 37 54 55 69 82 89 112 138 142 140 136 143 139 123 100 82 42 37 34 23 34 29 70 95 93 75 72 83 80 76 46 32 98 94 92 82

GFSMA_con_3kmhel_075.txt.gz
Helicity
106 113 94 91 82 76 72 55 55 53 52 66 51 61 87 130 137 144 124 128 134 134 115 92 81 71 73 74 80 77 72 73 73 67 68 69 63 59 58 58 60 60 58
110 125 108 85 55 66 50 69 67 66 60 74 98 111 139 179 163 146 136 136 155 146 120 99 89 77 74 74 82 80 78 74 68 71 75 78 74 63 64 65 63 62 59
143 114 125 97 76 59 66 59 62 86 93 88 108 130 162 172 194 167 150 164 162 154 126 106 93 82 77 78 80 80 82 83 75 75 81 83 87 77 68 72 67 62 58
138 127 114 130 111 124 110 126 128 127 138 157 157 150 164 172 166 183 167 167 178 172 134 120 111 92 77 75 80 81 82 83 86 90 89 84 76 73 69 68 65 60 58
118 130 128 127 148 170 158 146 145 173 179 189 178 183 187 195 171 180 184 172 184 184 165 133 143 126 99 82 76 83 89 107 105 100 95 81 84 80 80 75 76 64 57
119 136 139 147 162 161 151 176 162 174 192 208 211 198 197 202 201 188 186 190 184 197 185 176 189 181 152 106 87 95 103 106 109 101 99 85 76 73 75 78 76 71 70
139 150 156 166 198 190 175 185 206 195 199 240 271 254 225 199 198 200 198 219 231 216 216 223 232 235 208 152 126 113 116 109 109 106 95 96 85 84 90 90 86 85 78
182 208 219 196 213 238 216 209 272 292 248 277 299 292 251 242 223 208 220 227 248 300 289 270 284 258 240 237 220 162 157 131 117 128 117 117 105 99 93 86 85 81 77
206 235 218 228 245 264 266 259 270 337 312 341 345 337 269 248 209 195 205 237 260 301 328 326 281 279 248 237 238 258 198 154 146 152 144 142 128 125 111 112 113 112 107
172 215 212 225 207 258 287 265 281 319 429 340 382 341 416 313 229 188 187 181 216 220 248 294 273 291 270 258 235 224 150 164 172 160 166 167 152 152 154 133 125 150 147
118 127 150 170 203 222 229 226 232 238 276 308 352 371 365 423 376 303 199 214 243 270 249 259 298 344 305 355 348 268 233 166 155 199 162 148 157 148 130 135 136 131 131
73 66 86 111 136 170 162 183 208 226 247 253 311 326 395 406 318 386 349 284 267 396 447 453 428 429 541 558 527 419 410 360 293 315 226 209 167 138 157 162 155 134 109
159 92 101 111 125 110 105 130 137 150 184 239 267 315 327 380 431 339 319 308 321 389 424 531 568 812 774 646 756 602 443 304 221 144 79 104 106 128 158 134 129 112 99
252 242 223 191 169 168 151 124 124 140 149 171 196 264 311 322 376 394 344 374 316 310 370 433 568 707 681 708 430 357 238 221 255 153 133 68 70 125 110 126 128 113 108
265 267 267 256 237 214 182 172 165 160 163 171 197 233 312 387 407 391 345 327 269 260 241 284 337 367 368 318 312 300 248 172 146 91 83 99 80 90 86 86 79 89 98
244 221 213 217 234 243 220 183 170 167 169 183 184 215 238 238 268 271 252 238 244 216 185 200 210 216 164 220 179 195 181 114 80 106 113 103 90 82 87 92 90 92 98
227 222 199 192 195 206 221 210 227 215 210 208 215 213 234 236 226 226 204 198 182 204 201 183 162 151 132 129 162 139 133 95 94 64 74 83 91 71 79 93 100 101 108
231 225 202 194 182 193 214 208 201 196 178 178 209 236 238 243 239 218 192 194 196 200 176 175 152 158 142 132 144 123 79 71 89 90 96 96 108 97 101 111 104 106 104
184 192 185 170 145 152 167 179 176 191 193 179 194 217 211 211 197 210 223 211 195 195 187 142 181 129 124 131 97 78 115 95 121 112 111 109 106 87 86 81 82 83 76
135 149 138 122 137 162 165 178 186 177 156 165 202 215 201 190 177 164 168 180 201 214 222 260 126 124 124 98 107 125 118 145 151 122 91 75 65 49 41 37 49 63 64
149 118 103 113 123 137 142 171 181 173 143 161 198 201 169 169 165 155 162 152 132 162 132 135 108 111 111 97 112 139 158 145 101 60 68 80 70 71 79 66 67 66 69
118 135 160 118 114 109 121 117 110 104 96 98 115 113 140 157 178 201 181 149 91 68 49 71 42 84 101 139 159 145 88 55 80 56 50 113 92 107 107 102 64 67 72
164 163 110 84 96 69 70 64 69 45 50 52 59 60 64 61 65 68 59 51 49 87 106 105 108 114 127 136 114 63 48 61 71 76 80 88 93 103 75 84 60 45 57
134 75 72 78 57 34 41 33 35 23 38 52 66 82 97 96 97 105 101 110 109 88 95 123 119 105 87 49 42 50 47 54 68 73 65 96 66 83 86 119 43 76 81
47 14 7 19 19 6 38 38 31 35 53 69 87 95 117 125 128 148 156 151 139 150 139 122 87 41 7 7 22 79 71 87 77 89 88 63 48 54 60 65 67 91 102
-17 -21 -7 -2 23 21 44 37 38 39 60 72 80 107 130 146 144 131 142 140 142 118 112 93 58 37 37 40 49 69 83 98 83 85 54 42 59 9 33 70 109 115 113

GFSMA_con_3kmhel_078.txt.gz
Helicity
78 64 58 77 79 86 72 66 60 56 55 46 52 63 60 71 99 120 84 97 109 113 103 93 75 63 64 69 73 71 68 66 65 69 71 67 69 69 64 68 66 64 65
93 83 72 69 70 76 71 69 65 65 57 75 58 67 80 97 129 140 115 112 117 126 105 97 82 70 65 68 72 72 65 67 65 66 71 78 73 72 66 65 62 59 60
114 106 91 86 65 66 53 58 46 62 61 85 82 85 115 133 154 152 149 146 134 128 114 88 87 76 70 67 73 74 72 75 74 75 85 90 95 85 75 66 60 65 63
134 135 122 108 86 83 83 81 62 60 65 66 80 89 129 165 167 171 177 172 172 167 127 97 91 84 77 66 70 74 71 79 84 78 88 89 98 88 83 83 76 72 73
135 150 152 133 126 126 119 113 105 129 142 122 123 117 144 169 177 200 189 183 182 187 175 118 114 110 93 67 66 70 76 83 83 82 86 85 91 99 98 90 90 80 82
141 152 147 145 160 164 160 173 163 169 173 174 176 164 169 165 184 210 216 205 202 199 191 166 159 156 129 101 66 67 84 95 92 88 89 88 88 94 97 91 83 80 84
142 151 155 163 191 189 186 195 213 183 172 202 241 220 200 180 174 207 228 241 230 222 213 183 184 196 176 136 106 77 83 92 99 95 89 89 86 88 93 105 95 94 91
146 153 168 172 191 208 181 194 231 224 206 263 280 286 225 207 221 226 254 261 249 277 253 227 220 217 207 212 179 117 120 99 90 98 103 97 99 102 104 110 107 96 94
170 167 170 200 199 212 206 216 233 253 213 270 315 307 265 224 177 147 167 230 247 262 257 264 264 250 220 209 181 190 260 177 146 114 120 123 117 113 103 108 99 103 102
179 194 189 201 196 226 221 224 264 300 338 270 295 235 340 327 259 212 183 140 142 195 240 252 272 303 284 262 188 199 287 316 201 151 178 178 135 118 123 128 107 84 97
173 174 171 162 163 192 197 210 248 267 256 248 309 283 289 361 384 320 217 236 207 235 257 290 317 339 358 316 299 295 244 331 380 469 353 434 546 291 240 137 103 109 95
150 143 164 177 155 162 177 162 154 171 186 182 196 236 257 282 281 356 342 321 313 304 341 364 383 397 398 391 486 385 462 413 336 343 222 241 188 182 118 90 103 81 74
170 132 142 100 108 112 152 165 151 127 122 153 144 168 196 198 263 277 232 324 329 311 283 307 336 376 436 492 435 558 544 395 303 175 144 87 88 58 85 65 69 69 93
224 240 222 174 143 140 166 189 161 139 136 138 149 164 189 202 255 262 276 315 308 283 285 275 278 336 396 484 455 397 390 264 160 86 74 101 110 79 94 97 96 113 109
236 249 250 255 258 227 205 167 160 166 177 177 183 192 189 208 226 237 268 289 298 269 188 186 260 235 328 335 323 364 228 159 117 86 76 81 89 95 96 117 107 102 105
213 210 217 214 204 212 204 212 199 194 190 168 179 199 218 213 208 231 236 233 223 222 241 220 216 227 220 219 209 158 122 102 109 84 83 120 128 89 69 71 66 68 68
249 244 233 228 213 207 201 193 188 173 172 190 216 207 199 191 207 220 230 238 222 171 184 195 199 189 184 167 154 101 131 133 135 93 78 77 61 77 68 66 77 76 78
241 227 213 207 203 196 193 185 157 162 170 187 191 194 168 162 199 190 181 193 175 157 145 181 182 155 168 133 189 147 155 129 90 73 73 71 83 86 88 97 89 99 106
199 201 190 170 164 164 167 158 153 191 204 199 171 161 143 160 185 159 161 161 158 155 145 140 157 152 191 216 142 136 131 111 95 84 100 106 100 88 69 62 64 67 64
169 162 160 151 153 152 137 139 176 186 197 169 153 151 139 163 160 157 158 160 161 149 151 175 157 186 176 118 138 136 136 140 132 117 97 90 77 46 41 47 55 63 64
154 139 144 142 134 123 101 151 153 165 157 154 150 134 126 127 141 127 100 114 139 153 153 137 138 118 133 127 97 114 135 138 123 102 64 43 57 62 64 61 63 65 72
164 150 148 119 117 130 141 122 93 93 86 84 75 70 87 89 90 110 111 109 110 103 108 107 105 109 88 97 121 155 162 138 113 45 55 80 60 77 76 87 72 74 76
140 138 135 138 153 115 87 84 80 41 31 35 45 52 69 80 96 105 113 126 124 128 117 130 136 125 137 140 149 148 105 76 79 69 54 93 72 87 73 80 48 64 90
111 114 149 155 129 72 62 47 42 32 46 53 54 64 81 94 99 128 144 147 148 148 139 133 138 132 126 109 98 64 55 63 64 75 75 73 78 78 71 95 79 120 155
106 120 97 81 69 41 45 39 36 35 43 54 62 70 94 107 123 130 139 150 153 156 153 162 123 93 67 30 26 82 80 94 85 89 82 84 65 62 78 74 77 82 110
61 48 51 40 36 34 29 35 34 30 43 48 54 67 83 98 104 100 115 116 120 121 128 117 101 77 45 42 66 69 78 105 101 109 86 72 88 60 61 59 78 117 140

GFSMA_con_3kmhel_081.txt.gz
Helicity
77 65 48 52 57 70 64 62 63 57 46 44 50 57 77 79 70 86 95 70 63 87 80 72 68 58 53 53 51 53 57 61 61 64 68 61 58 54 59 63 59 58 51
90 76 58 50 56 70 66 66 71 66 52 57 43 51 51 68 77 94 104 100 75 92 92 74 69 62 55 50 52 54 52 59 64 70 69 68 68 69 70 74 73 69 62
85 86 79 64 55 59 57 54 49 60 57 59 42 46 51 63 82 104 118 119 109 94 102 67 64 57 52 47 50 53 56 57 65 78 79 82 80 75 75 72 67 69 67
93 96 95 74 63 67 73 67 69 62 60 77 74 60 66 82 93 114 139 144 151 150 123 88 69 60 58 51 45 57 60 71 79 84 84 83 90 86 77 74 72 73 71
113 119 117 94 89 95 105 102 87 106 97 90 91 84 105 115 122 151 152 159 168 185 176 129 103 96 88 62 43 46 59 67 78 84 87 85 86 88 86 81 82 84 77
136 147 145 133 128 129 125 138 134 129 141 124 124 122 119 141 139 167 182 186 197 207 196 169 146 134 103 86 48 41 52 62 72 80 85 87 91 91 95 102 104 103 95
135 156 156 159 159 160 158 172 194 170 156 188 186 167 149 145 162 177 187 205 224 238 224 212 193 175 156 118 89 49 42 71 94 74 94 98 99 105 113 121 126 125 118
162 165 160 155 178 188 176 188 233 225 209 235 228 245 195 174 173 164 206 209 208 223 218 214 211 204 194 179 170 127 126 91 100 94 118 104 113 116 119 134 130 128 129
135 144 144 165 180 203 191 212 241 243 199 204 261 268 216 180 177 134 116 116 128 159 159 165 186 207 247 302 341 384 411 260 177 157 158 201 152 194 160 105 119 138 145
150 157 162 180 192 223 214 212 215 215 241 207 267 208 259 268 196 182 169 141 125 138 152 184 211 274 316 366 376 387 413 410 434 471 289 401 306 307 292 235 203 163 163
150 160 166 163 163 183 181 188 198 204 218 208 244 224 232 274 287 267 188 211 221 210 203 192 182 231 270 309 366 425 366 312 278 308 424 429 354 194 127 206 188 154 206
164 155 158 165 162 167 165 155 156 156 164 161 180 182 174 185 199 198 195 176 197 195 216 196 243 234 254 286 276 234 227 327 390 259 176 107 84 128 77 51 41 91 77
152 141 159 165 152 162 141 138 147 153 130 142 144 159 159 161 191 206 194 196 197 200 191 186 222 238 236 234 259 219 209 255 145 146 84 60 56 16 3 68 70 45 65
161 176 188 203 180 157 135 159 190 182 169 160 165 169 153 183 176 180 210 203 212 196 199 198 194 190 179 192 172 142 256 248 234 110 92 39 62 132 141 100 62 104 109
183 201 230 251 271 255 223 211 208 197 200 196 197 195 185 198 207 207 223 209 219 205 189 233 213 176 162 210 205 302 317 210 158 109 92 70 62 89 111 127 117 96 113
190 205 226 244 262 248 230 225 234 221 213 204 194 207 201 180 212 222 209 203 223 245 221 216 186 148 137 179 224 245 202 156 113 71 87 101 103 118 107 74 66 60 60
214 217 217 226 234 229 218 225 231 219 189 180 193 174 172 182 199 195 201 199 213 196 202 188 141 128 141 154 167 167 156 173 128 113 110 115 86 59 64 64 71 78 70
227 225 231 240 242 234 228 221 219 203 173 167 144 146 175 170 198 189 181 192 176 160 165 169 136 136 145 146 176 153 153 230 118 100 69 71 70 68 74 69 73 69 50
217 231 224 218 213 214 214 208 194 192 190 165 170 192 182 173 182 170 175 165 123 136 150 153 168 157 163 166 172 186 180 106 104 100 107 95 95 85 73 54 43 42 50
191 195 198 186 178 170 178 187 186 192 188 207 202 165 141 123 114 114 119 119 107 136 152 164 175 160 164 172 168 134 144 140 108 110 96 89 117 70 35 29 33 43 44
169 160 154 155 146 157 136 141 160 153 182 200 169 128 94 81 84 72 66 79 90 108 125 148 157 157 150 152 146 142 139 131 133 135 143 115 44 33 41 54 59 50 47
153 142 141 140 143 136 147 132 111 138 142 109 74 62 81 82 88 98 105 121 122 124 146 162 174 194 188 180 172 175 168 157 154 140 101 54 42 60 69 70 55 45 43
136 158 152 141 156 139 129 137 126 87 56 41 44 55 63 65 82 92 106 124 148 165 155 155 181 188 191 173 181 175 154 147 131 61 55 87 62 76 71 60 30 49 73
148 146 151 164 140 115 112 92 84 57 56 59 54 56 66 66 67 90 101 116 130 140 143 154 168 156 149 145 152 141 114 84 73 69 49 88 86 68 60 50 58 99 138
142 139 140 128 106 90 75 65 55 43 54 59 56 59 64 78 81 92 99 110 120 130 142 159 142 129 125 108 75 96 97 121 113 106 78 78 88 46 71 93 91 70 50
122 121 107 81 64 40 50 51 44 40 53 50 56 69 68 69 74 71 89 91 98 99 116 121 116 112 105 89 96 98 104 129 122 130 94 105 82 71 86 88 88 77 79

GFSMA_con_3kmhel_084.txt.gz
Helicity
61 67 56 55 49 53 53 50 45 42 42 43 50 65 59 56 56 57 57 47 48 37 55 50 52 45 40 42 44 46 48 49 50 53 64 61 67 62 67 66 65 59 57
69 66 59 50 44 52 56 53 49 47 42 42 38 51 59 54 56 62 66 71 61 62 60 50 49 48 42 37 42 47 48 53 57 63 72 79 78 78 79 82 78 80 72
68 67 59 51 47 57 54 52 45 48 42 44 35 45 51 55 58 68 75 88 81 71 72 52 46 49 46 38 34 48 53 61 69 76 80 83 85 85 87 88 89 85 83
78 73 62 49 59 62 65 66 63 54 53 63 63 55 61 68 62 70 84 91 100 104 97 83 66 61 57 45 35 38 59 70 80 86 91 94 95 97 100 100 101 99 96
89 98 91 70 86 83 78 78 71 86 85 81 83 70 66 67 70 87 90 99 112 132 143 116 89 83 80 57 44 34 63 65 72 78 87 96 106 104 104 109 112 117 113
98 116 112 91 105 106 94 101 97 108 123 107 99 91 91 80 97 109 109 121 129 136 142 140 123 116 90 86 53 36 36 64 54 63 82 111 114 125 118 116 123 137 144
115 134 135 123 125 130 127 145 158 140 136 165 161 138 125 127 121 137 144 146 138 143 141 149 147 135 120 100 101 72 69 99 150 117 103 97 150 158 144 143 143 141 151
124 132 124 132 146 151 146 165 199 185 173 204 212 199 156 129 136 113 118 121 115 139 146 155 149 135 139 143 149 121 136 206 296 325 239 224 189 119 134 89 128 142 133
140 143 139 157 169 177 172 190 211 218 195 188 204 225 192 155 160 128 107 102 113 110 86 73 88 101 133 170 183 255 301 299 267 277 272 215 181 148 152 247 274 306 228
135 132 140 162 168 191 182 187 208 221 237 204 238 195 249 277 183 159 162 139 121 112 112 117 124 129 166 198 183 220 267 274 292 229 340 236 179 111 133 120 84 126 197
122 136 151 157 161 178 166 178 201 203 221 226 225 231 182 196 183 185 152 167 186 143 147 134 136 147 179 176 218 188 205 225 192 200 191 309 229 128 131 96 24 31 50
134 131 138 153 161 170 168 165 165 167 163 161 148 166 191 170 153 164 173 159 178 187 150 154 155 158 155 149 161 164 157 138 124 183 269 215 165 83 38 31 15 -4 28
161 163 156 155 168 170 173 164 162 162 154 140 143 160 158 151 166 180 179 158 168 180 187 161 167 151 136 124 134 132 90 115 130 193 136 30 44 103 105 78 125 131 121
161 172 169 161 160 183 199 184 211 229 244 230 215 192 172 182 175 178 175 174 168 185 171 176 163 152 119 119 98 100 119 127 114 111 133 204 58 109 93 83 137 157 146
176 182 191 210 242 263 251 249 264 253 238 205 181 179 189 190 193 192 187 197 196 209 164 171 190 158 141 124 150 165 195 259 273 216 157 103 53 57 50 94 89 99 103
177 181 187 199 217 234 229 222 234 216 204 181 170 183 186 193 215 207 192 189 185 181 186 175 176 153 143 149 154 169 186 173 137 128 127 101 91 112 122 89 76 69 60
174 181 188 193 204 207 215 230 232 208 224 211 201 198 207 208 208 204 197 176 184 183 174 183 159 150 151 148 157 166 147 133 110 75 112 79 99 78 69 67 72 81 80
190 188 195 206 219 228 238 231 246 244 235 225 198 194 187 191 195 181 163 165 148 138 133 136 126 140 152 161 156 164 156 121 93 93 81 94 77 85 103 92 86 81 67
195 211 220 226 233 238 239 239 236 240 226 207 187 166 164 155 146 148 138 142 132 120 110 118 119 118 123 123 128 136 135 133 101 83 100 102 98 90 86 82 85 85 50
190 204 204 200 198 207 214 214 212 215 219 209 186 189 149 129 127 116 90 75 69 83 89 106 111 112 114 121 143 145 142 128 116 107 101 101 112 131 113 72 36 37 38
163 160 170 173 165 158 143 160 179 185 183 194 209 155 121 92 95 87 70 78 84 87 98 118 125 133 144 156 162 152 162 152 128 125 139 147 140 89 34 38 48 43 37
158 158 161 153 153 141 147 141 144 154 164 153 130 105 102 123 110 101 96 101 96 96 113 126 135 150 154 166 174 178 171 174 183 153 154 161 68 50 50 52 43 46 42
151 167 163 154 162 145 136 127 129 128 104 69 59 71 85 81 86 87 100 126 129 130 123 111 126 130 146 152 176 172 157 154 138 119 101 115 57 85 61 63 36 33 42
140 148 161 154 146 117 124 111 92 62 60 64 64 69 70 64 63 87 95 105 110 116 103 110 120 116 119 127 130 129 123 112 101 84 66 119 111 88 91 60 58 75 70
156 168 152 137 130 122 95 65 57 57 63 66 61 57 69 74 79 87 86 90 94 94 100 116 108 108 108 95 93 105 105 134 129 123 98 113 113 105 107 101 96 107 88
146 131 132 124 108 79 52 47 47 41 57 56 64 66 63 62 74 71 72 72 85 74 83 84 84 88 101 113 128 116 130 147 142 152 119 144 115 102 125 94 124 91 72

GFSMA_con_3kmhel_087.txt.gz
Helicity
58 63 63 58 52 45 40 41 41 38 37 38 41 45 46 43 42 44 42 40 30 32 39 48 45 42 39 41 40 45 49 59 61 64 71 73 75 77 81 82 80 82 80
67 64 64 59 52 50 48 43 41 40 36 32 37 46 46 47 42 40 42 42 40 41 40 41 39 41 40 38 43 47 49 60 69 75 81 89 89 93 99 102 101 99 100
69 66 55 45 43 49 45 45 46 42 40 32 36 43 48 51 54 49 52 51 54 50 47 39 40 42 42 37 35 47 51 52 71 85 97 107 107 99 102 109 114 115 110
50 56 44 33 41 49 51 51 54 49 44 45 52 57 55 53 56 57 56 57 61 64 66 55 46 41 46 43 32 34 61 73 64 80 94 108 122 127 112 108 113 119 121
45 46 43 44 53 57 59 64 56 63 71 72 69 58 61 57 64 70 60 64 65 76 81 74 62 58 57 61 48 40 72 78 79 76 71 97 106 106 116 129 114 120 122
46 53 47 46 62 63 64 74 73 91 86 90 95 83 75 72 87 81 70 77 83 83 84 84 80 81 74 66 59 57 59 109 129 117 121 112 122 181 121 88 99 132 145
51 62 64 58 75 80 77 87 103 100 107 125 126 110 113 104 103 76 84 84 101 99 92 80 89 94 92 82 71 54 57 70 132 204 151 214 190 88 123 152 141 158 182
59 60 57 67 77 96 94 102 127 146 144 152 158 163 131 112 112 105 72 78 53 69 73 75 67 56 58 94 110 82 66 72 139 181 334 255 189 148 149 232 102 82 136
94 98 97 104 106 112 110 115 145 142 142 159 152 204 207 180 179 149 137 117 89 65 72 82 80 86 86 86 120 113 113 153 168 195 223 264 228 195 168 106 107 106 97
108 113 123 125 118 129 123 125 136 147 173 173 204 181 211 245 206 170 141 132 123 109 112 114 126 115 118 120 133 121 114 162 178 145 106 193 184 168 98 37 2 51 46
83 93 105 113 113 143 126 128 156 162 184 202 215 241 201 194 185 189 180 137 117 122 144 134 136 126 99 121 140 136 114 113 95 76 128 181 191 147 113 59 57 21 38
113 104 102 104 114 128 128 139 155 161 164 173 180 191 175 169 166 177 158 139 139 153 165 153 133 133 111 124 119 124 117 92 86 87 58 54 180 178 47 52 14 53 56
145 162 159 137 138 140 153 173 184 179 179 180 177 164 131 124 168 166 162 146 146 151 155 157 142 140 130 112 113 122 109 76 76 92 95 125 128 228 296 227 149 88 159
190 189 181 173 154 150 164 188 215 215 205 223 237 216 188 184 179 179 171 177 150 151 165 163 143 113 118 140 115 126 113 97 90 110 193 206 179 192 175 121 155 98 47
185 188 187 186 198 209 197 222 254 301 302 261 229 200 175 176 188 187 189 173 182 155 143 170 136 133 134 137 138 128 137 167 196 212 210 147 122 117 111 106 111 97 72
171 162 164 179 191 209 218 251 289 271 261 229 193 171 171 188 192 194 181 180 187 183 196 196 152 136 129 118 127 123 126 130 157 174 165 132 90 135 106 97 99 60 76
167 172 180 181 192 201 212 232 239 237 228 233 199 192 200 194 184 168 160 180 192 172 160 158 141 116 105 98 103 107 98 98 100 128 117 123 98 85 95 79 78 86 86
165 170 186 200 211 221 227 225 241 243 242 243 244 220 191 160 161 152 163 163 158 139 132 128 97 86 89 95 97 96 100 84 85 98 113 109 99 115 131 118 101 90 75
162 175 185 203 212 219 238 250 252 259 253 239 210 177 160 143 149 151 149 122 101 91 85 86 95 89 100 98 103 108 103 98 88 92 106 99 82 76 82 98 101 98 96
158 172 177 186 203 211 221 222 226 229 227 214 197 182 159 147 131 123 89 72 77 89 96 104 103 104 108 108 113 111 117 125 116 113 104 93 92 111 117 117 108 96 56
160 169 170 176 176 178 177 185 190 189 186 205 195 174 149 122 105 73 61 78 86 92 97 107 112 108 114 119 119 120 120 120 125 133 133 124 119 111 114 107 73 44 40
145 149 158 156 157 149 142 143 153 167 166 155 153 146 130 119 83 84 99 111 104 92 97 97 101 110 118 115 111 115 116 116 121 124 114 114 95 103 74 54 51 43 37
130 140 145 145 147 132 115 116 139 146 142 131 101 78 79 72 79 89 110 124 120 114 108 88 97 99 105 96 103 100 100 98 99 96 80 111 79 93 61 55 44 38 50
119 124 154 153 152 134 122 113 123 129 110 77 57 62 61 66 76 81 83 91 94 99 83 83 93 88 84 77 71 76 78 70 65 75 69 113 104 107 88 73 81 98 87
135 139 139 147 155 136 109 103 93 86 67 60 62 57 62 65 78 83 76 79 77 77 83 88 82 85 71 58 60 70 69 77 94 109 100 116 124 124 131 118 101 119 132
136 139 160 147 127 114 90 68 51 50 58 59 57 58 65 65 71 73 72 64 68 61 60 60 63 71 85 97 106 83 90 94 106 121 136 133 131 132 147 121 107 108 106

GFSMA_con_3kmhel_090.txt.gz
Helicity
62 63 62 55 49 45 41 43 40 43 37 38 41 38 42 38 42 38 38 77 39 26 27 52 52 49 49 59 57 58 59 66 70 80 82 91 96 103 102 93 94 98 107
82 76 74 63 57 54 55 45 46 45 44 42 42 44 41 46 43 40 42 54 64 39 35 36 54 57 54 50 64 69 56 58 65 75 85 94 103 110 118 124 124 120 122
91 88 76 69 62 58 48 47 48 45 47 52 44 46 48 43 48 43 48 50 66 71 53 46 45 60 59 52 49 68 71 59 59 68 79 89 96 101 102 107 123 133 122
90 89 79 66 60 58 51 51 55 56 56 57 63 64 59 57 49 49 60 57 64 64 90 71 50 49 63 59 50 64 79 73 80 71 78 89 92 93 92 81 87 104 103
64 59 63 61 55 56 56 58 58 57 79 82 79 70 74 68 66 64 60 60 64 74 77 116 87 67 67 63 54 42 83 101 73 74 72 69 78 79 73 96 96 107 99
46 50 50 50 58 64 60 59 62 73 83 94 97 93 81 76 81 77 70 69 61 65 76 88 88 80 80 66 65 50 48 80 136 106 93 94 84 68 90 66 68 77 121
46 47 53 55 57 56 60 72 81 92 98 99 115 101 100 85 92 86 81 84 87 72 99 87 71 80 87 85 57 49 37 47 83 183 171 143 113 118 62 73 75 74 135
46 42 42 49 61 73 72 84 104 111 109 119 132 143 136 139 106 102 105 116 107 106 86 65 69 85 87 99 116 93 66 57 48 110 206 155 163 151 78 113 127 72 53
64 59 56 71 82 87 94 96 107 114 112 137 123 177 190 166 192 172 149 136 107 123 114 90 94 111 103 141 139 123 91 82 45 71 128 199 190 132 128 132 100 47 30
79 86 92 96 99 120 120 125 123 116 136 131 169 160 164 244 219 205 181 140 126 132 133 121 133 134 143 141 133 124 106 116 79 43 71 158 186 116 102 77 74 37 15
85 89 95 104 112 134 125 116 125 125 144 148 161 209 202 207 201 207 182 132 156 149 141 133 124 132 138 141 129 120 129 135 95 66 41 31 126 124 88 52 76 15 43
108 102 95 98 105 117 113 117 118 136 147 162 175 189 202 211 172 169 158 146 139 157 132 133 128 134 130 145 133 117 123 131 114 102 91 55 56 135 204 192 248 209 225
105 114 126 124 138 136 130 136 151 158 168 177 166 189 176 173 162 134 134 124 135 163 150 156 157 134 131 155 148 130 145 140 134 129 148 234 254 278 304 247 196 222 162
122 138 144 157 164 159 159 172 197 201 202 210 209 214 231 231 196 172 178 159 164 150 143 168 157 161 163 164 156 158 137 171 179 213 235 228 236 249 225 219 164 147 136
164 162 162 165 174 175 170 179 220 254 269 290 300 286 242 213 202 180 189 196 173 124 97 154 165 166 154 149 159 149 169 221 193 190 193 189 178 176 134 109 106 93 101
175 172 163 157 155 165 173 188 235 265 293 309 292 271 235 208 191 195 199 187 176 158 175 197 171 136 113 110 118 121 133 131 151 143 142 149 149 156 127 105 118 110 119
174 166 167 158 160 167 179 194 234 246 259 282 270 236 217 187 190 186 171 164 151 153 148 157 129 111 80 61 60 66 81 91 84 108 105 124 126 116 110 103 91 110 93
160 164 167 161 161 169 180 192 207 207 210 226 238 221 189 190 190 170 156 145 144 141 125 127 97 71 73 73 74 85 97 102 106 122 121 113 122 137 135 119 102 79 83
148 155 165 176 184 188 194 202 212 229 236 233 213 207 198 173 164 145 127 121 107 91 82 78 88 77 80 85 90 98 113 105 97 103 97 96 94 87 84 81 81 79 95
144 149 163 175 192 195 196 206 214 228 240 240 233 203 187 156 133 122 107 97 69 80 85 91 91 86 90 96 93 99 95 94 94 94 87 89 80 93 77 74 74 80 97
133 146 151 157 173 189 187 185 197 203 205 216 203 193 176 161 150 119 80 74 77 74 79 90 92 94 92 87 96 100 92 84 84 90 81 70 74 72 69 64 62 68 65
119 130 140 152 154 156 150 162 165 170 166 160 175 183 174 156 125 99 110 116 93 80 95 102 97 89 93 97 92 91 88 91 94 87 80 75 77 82 78 65 74 53 55
115 131 140 131 132 129 122 148 159 175 175 168 154 144 129 96 82 81 95 102 119 134 130 93 90 92 89 87 96 80 83 77 71 73 59 74 86 84 82 67 55 43 42
105 107 141 142 138 134 121 133 172 175 155 140 123 96 65 59 63 54 57 83 91 97 101 99 100 91 92 77 73 72 66 60 54 67 68 83 99 100 96 81 90 84 93
124 125 131 134 143 135 110 118 136 133 127 111 77 59 52 56 66 54 66 74 82 91 98 97 98 91 74 59 54 69 72 76 86 89 84 93 120 117 112 113 113 102 120
117 123 137 123 113 109 93 97 103 101 83 64 58 55 57 61 57 62 60 61 61 69 67 63 62 62 62 88 83 62 75 88 98 92 110 106 125 147 153 139 112 100 100

GFSMA_con_3kmhel_093.txt.gz
Helicity
41 56 61 58 46 59 50 43 45 42 34 37 39 37 41 40 48 51 68 96 78 55 46 69 78 71 66 72 76 71 69 65 65 73 73 74 76 77 73 70 72 76 86
75 85 90 94 87 90 75 64 57 49 42 37 41 53 44 48 47 55 52 82 96 77 59 52 70 79 72 70 76 76 60 64 67 72 74 70 72 74 76 75 73 74 85
91 94 93 100 94 92 81 73 64 53 48 46 45 46 52 50 62 57 56 54 104 93 82 63 59 78 97 77 67 76 69 68 57 57 63 60 61 61 59 61 62 64 77
91 99 104 101 98 99 82 69 61 59 61 61 62 64 65 64 56 57 69 75 80 76 104 88 73 66 94 94 77 76 82 67 61 58 54 47 47 50 50 51 46 73 86
86 98 100 93 89 87 75 69 64 67 77 76 78 75 75 72 74 71 71 75 82 102 82 133 101 99 85 82 66 64 78 121 112 90 76 56 43 45 47 54 63 56 53
89 86 86 80 75 74 67 69 71 82 83 88 92 92 83 83 97 90 82 85 91 111 95 80 119 113 94 76 73 55 49 82 137 128 97 93 56 48 52 71 53 69 49
75 72 65 70 68 67 62 70 81 88 101 97 115 95 94 90 97 100 109 103 118 149 114 112 109 96 101 81 84 64 53 47 61 109 154 128 98 85 79 42 63 66 108
65 59 60 71 64 75 72 81 92 118 117 113 126 132 132 112 126 95 130 161 155 183 137 131 118 105 107 138 180 120 111 58 48 48 112 171 126 106 105 104 88 106 85
73 73 72 65 71 93 108 108 115 131 143 141 149 168 181 131 180 219 217 198 180 180 150 153 153 147 127 133 144 139 154 129 94 57 60 136 116 132 113 98 92 100 52
59 77 75 73 94 125 133 139 143 154 182 186 222 147 152 218 198 207 231 185 171 162 149 153 163 153 147 148 143 185 182 141 109 96 48 45 119 158 126 39 69 41 80
28 43 67 63 94 136 150 142 163 184 182 178 197 235 182 188 211 237 219 188 173 149 167 150 153 155 150 159 158 168 182 155 137 138 109 50 42 103 128 16 173 145 165
66 29 52 89 107 123 135 147 146 160 174 187 189 212 279 246 214 243 215 175 144 177 138 145 149 146 149 151 163 198 181 136 135 159 153 163 136 131 153 261 339 305 235
60 89 83 103 134 141 142 146 154 167 182 189 195 211 232 199 228 226 161 138 127 171 151 142 145 163 168 160 151 185 168 135 152 149 186 284 188 215 268 339 327 235 204
172 156 128 112 126 148 169 171 184 194 195 201 192 224 256 292 253 251 218 153 140 166 161 192 173 172 150 158 164 227 196 215 251 289 295 230 173 175 195 209 184 167 154
188 151 132 139 174 178 173 189 204 202 211 239 269 288 297 289 251 225 188 171 176 183 155 221 162 140 147 142 158 169 187 206 195 190 170 150 148 145 146 137 150 134 121
127 134 138 144 146 156 160 174 211 243 260 277 295 317 314 277 256 208 191 184 185 197 192 237 189 145 121 89 110 113 110 116 153 144 129 122 125 122 116 125 128 113 110
160 157 158 159 151 150 147 166 178 189 229 240 254 258 262 242 219 188 180 192 185 183 180 193 176 131 94 66 52 62 73 80 88 111 104 111 114 122 127 138 143 145 135
181 186 175 169 162 155 154 166 181 208 221 239 264 270 272 232 193 152 170 174 175 156 170 175 137 97 64 66 64 66 78 84 94 106 115 125 133 132 130 128 132 121 108
139 147 155 160 163 171 173 184 185 200 226 225 229 226 199 186 187 182 175 155 149 135 142 116 97 79 74 61 65 75 96 98 101 90 91 97 100 88 94 101 115 122 127
104 111 128 132 141 152 174 187 203 221 241 258 269 255 228 207 172 157 145 136 122 116 89 94 88 85 76 82 86 99 89 89 96 87 82 81 74 76 68 69 81 102 114
99 109 111 123 138 152 173 168 187 201 211 220 220 222 216 213 208 162 129 122 103 61 70 99 82 87 92 83 100 111 113 93 87 83 72 56 70 55 55 61 62 82 89
79 98 115 135 145 144 142 165 170 181 186 201 218 200 189 185 186 183 172 159 132 83 101 100 111 83 107 119 100 105 105 87 100 79 73 60 86 58 70 69 122 92 82
75 102 127 129 140 138 126 148 185 217 227 224 210 187 171 175 148 138 114 115 135 146 143 99 94 119 107 104 109 88 91 79 84 91 76 78 80 66 81 76 97 94 71
67 80 97 124 138 132 122 141 154 166 158 151 148 138 126 120 99 62 77 85 91 124 145 125 138 129 126 90 89 76 65 75 71 89 86 94 89 73 85 88 125 109 119
62 77 78 106 126 147 116 117 154 160 147 138 131 105 104 78 58 55 71 74 91 97 118 130 132 118 111 99 93 78 82 98 100 104 99 100 101 79 84 103 130 118 114
84 68 103 112 110 126 111 94 115 129 129 117 100 99 80 58 51 57 63 69 76 76 83 80 78 84 81 92 85 82 98 104 115 105 111 107 101 103 109 132 128 137 140

GFSMA_con_3kmhel_099.txt.gz
Helicity
33 39 20 29 23 27 37 37 35 22 5 31 33 42 46 47 60 61 56 75 69 76 80 86 82 84 80 69 59 53 46 46 45 46 50 52 57 58 61 65 65 64 68
38 45 44 29 24 26 8 28 44 38 30 45 35 41 47 42 49 72 65 63 74 73 74 77 88 89 90 81 68 63 53 47 48 45 45 47 46 55 61 65 63 64 65
51 72 70 56 49 40 35 31 45 78 72 57 55 57 44 39 40 57 75 74 75 70 75 71 77 86 109 95 86 77 68 54 53 47 50 52 53 55 56 57 57 60 61
106 116 133 85 89 91 105 107 105 79 60 58 50 44 49 61 63 59 54 81 96 92 86 76 76 68 79 72 69 91 104 73 67 57 59 54 57 54 45 62 55 49 46
138 143 156 149 135 135 129 118 89 82 71 57 54 53 60 57 52 59 63 80 104 115 111 89 96 76 68 70 52 45 57 102 87 79 62 79 70 66 70 70 66 36 50
139 148 143 143 141 155 138 120 88 70 76 69 63 54 55 63 65 67 67 80 87 123 130 123 123 101 82 63 47 41 14 37 75 77 64 62 73 88 75 68 73 49 60
122 135 134 123 141 149 126 107 88 78 71 91 98 75 65 59 64 65 85 91 98 137 182 182 177 149 106 87 95 66 58 38 48 47 52 80 82 86 85 82 54 66 72
142 116 91 100 108 132 113 90 88 98 82 83 97 102 77 85 77 53 89 108 155 224 275 257 256 237 189 185 195 158 123 86 82 72 69 40 67 107 91 97 84 83 97
152 139 103 85 84 97 104 95 95 124 129 97 102 109 92 55 85 118 166 218 262 283 299 286 279 247 229 200 163 128 120 108 88 83 88 74 43 85 114 94 117 117 109
97 90 134 201 236 206 190 97 100 114 151 133 106 84 120 133 130 130 204 250 264 289 279 263 255 247 210 173 157 151 129 127 113 100 88 86 72 33 74 110 107 140 149
110 126 128 127 120 134 201 174 72 86 110 150 129 125 121 174 167 190 174 229 277 262 250 235 228 206 185 158 136 131 127 122 106 92 80 46 35 12 7 66 126 128 140
146 106 180 134 168 133 162 155 141 114 120 112 193 138 125 124 198 234 210 199 207 241 238 246 234 183 154 141 143 140 112 94 79 81 70 113 127 57 37 61 73 292 282
229 122 159 99 148 100 112 92 141 175 106 107 92 107 129 201 196 192 219 178 239 249 229 241 199 156 147 151 159 175 201 205 131 122 209 192 147 141 136 167 183 148 174
128 182 155 127 102 196 163 179 109 71 95 165 147 156 162 182 202 228 230 239 221 261 205 197 186 181 161 143 164 175 167 214 241 237 207 168 170 186 192 190 180 153 152
191 191 160 91 122 130 143 100 95 93 117 128 171 171 201 194 214 222 241 241 225 245 188 221 198 166 153 144 144 138 172 167 172 158 126 132 123 128 139 136 127 111 99
200 172 188 169 161 161 165 156 155 137 144 149 165 157 191 201 217 219 216 232 236 205 231 242 211 199 158 153 110 116 130 138 120 100 105 114 99 89 94 98 96 96 100
179 184 187 161 143 140 147 148 144 136 130 142 149 164 180 204 211 212 232 217 228 236 209 261 268 221 181 143 114 102 103 83 79 77 84 101 91 87 100 116 126 121 120
133 140 151 151 160 167 162 132 117 127 124 131 144 164 192 190 216 208 202 205 215 222 207 250 256 230 181 135 116 86 67 77 74 76 95 119 121 114 111 113 105 101 98
146 155 150 129 137 151 156 163 131 117 127 145 151 159 182 194 193 193 209 195 183 194 195 214 229 210 174 142 108 87 76 85 76 83 100 97 93 82 89 91 92 95 91
158 133 134 139 134 139 157 158 159 148 164 177 178 168 165 173 175 174 191 178 168 183 179 202 191 175 155 115 105 105 90 89 93 93 89 70 69 74 75 67 71 79 78
154 148 147 143 136 123 126 140 147 158 163 183 205 213 207 187 176 155 174 173 192 187 183 181 162 155 111 114 101 98 94 100 95 80 67 69 69 68 61 62 74 71 67
163 146 128 101 89 84 105 123 129 135 152 164 179 201 206 199 176 162 152 144 142 172 184 154 130 99 97 101 115 118 119 107 75 66 65 62 64 64 67 68 77 77 73
126 126 121 101 79 57 58 88 142 141 150 162 169 176 192 193 191 181 182 217 219 171 118 100 87 72 100 90 126 121 104 89 79 60 64 71 79 85 88 80 84 82 67
112 112 106 99 89 62 43 87 126 143 160 160 164 172 181 176 172 178 178 189 178 161 127 89 85 85 91 94 95 82 88 99 99 86 74 86 92 84 80 85 87 80 69
116 94 90 88 98 94 48 44 109 135 151 154 154 150 153 142 112 129 150 144 147 141 111 109 105 120 109 99 98 129 111 110 98 84 86 86 93 86 82 86 93 89 94
99 100 94 95 91 102 58 44 113 133 148 154 149 120 102 105 82 94 113 112 84 72 93 125 133 153 139 102 105 86 81 101 100 97 73 93 91 98 98 96 100 104 102

GFSMA_con_3kmhel_105.txt.gz
Helicity
-52 -43 -36 -22 -14 7 15 18 20 17 10 9 15 14 22 28 34 29 22 16 18 33 41 43 46 50 58 63 65 57 49 48 42 39 39 38 43 50 48 47 48 49 50
-22 -15 -9 -0 7 18 30 37 36 36 29 19 12 22 28 33 32 39 34 26 20 23 32 43 52 47 55 71 70 65 55 54 47 44 46 46 54 47 53 52 41 48 43
2 16 23 21 25 38 40 41 40 43 35 39 23 23 29 38 38 40 43 43 36 26 25 20 27 44 64 62 80 72 72 63 59 53 54 58 64 53 59 52 50 52 51
37 59 59 40 47 65 74 69 60 51 52 61 54 45 39 36 36 39 47 53 51 52 42 26 7 21 40 44 39 60 87 80 80 71 67 71 66 66 60 62 58 55 61
62 71 61 51 73 77 79 90 88 92 96 80 69 57 49 40 35 47 48 50 53 60 60 51 36 28 23 21 15 4 43 78 88 79 75 88 84 80 65 70 63 58 53
79 77 82 82 103 112 99 110 116 118 104 98 94 81 62 56 51 44 44 54 57 64 74 72 68 64 61 41 29 19 43 44 51 81 81 86 88 86 71 75 64 69 51
120 132 120 121 133 131 116 122 133 120 107 112 120 106 94 71 75 58 56 58 63 68 79 95 108 137 126 156 123 89 74 71 68 14 49 85 94 94 85 72 78 77 73
158 168 161 158 147 161 139 128 138 133 105 101 131 112 129 134 124 120 90 105 117 125 141 150 188 170 164 163 132 132 95 73 55 54 42 35 27 80 89 89 89 86 78
145 155 160 149 153 163 176 200 151 123 235 186 164 131 120 134 140 103 117 104 142 161 156 192 220 214 151 149 136 116 103 81 60 50 52 56 44 20 46 82 94 96 92
177 177 163 177 162 156 125 185 141 167 261 196 140 137 193 210 194 244 146 154 125 127 150 191 133 203 179 141 141 120 92 71 70 67 60 62 47 31 15 23 64 108 97
219 201 181 162 152 169 168 164 116 233 205 171 158 185 177 198 216 250 200 125 131 155 136 177 137 188 161 150 153 111 83 63 65 72 69 51 35 27 4 -7 16 81 107
240 188 152 158 133 162 197 253 196 227 210 255 164 158 153 164 231 234 190 253 240 100 186 200 184 201 191 184 185 153 131 104 76 80 76 71 88 79 81 18 3 37 127
170 145 144 117 124 134 156 177 172 171 151 101 90 114 116 170 168 113 209 146 131 146 192 219 228 232 210 195 201 170 172 190 175 151 216 259 225 141 95 104 50 14 140
120 137 141 133 127 133 146 148 131 110 106 100 85 126 131 134 119 125 138 163 157 187 243 218 235 248 219 209 189 182 174 215 240 231 209 210 220 183 123 125 167 375 431
123 126 121 110 107 103 104 112 102 90 73 82 74 72 93 111 119 131 167 210 207 191 184 204 247 217 214 191 185 177 173 196 206 204 204 166 151 142 125 130 135 96 91
120 124 133 146 160 145 148 132 116 114 101 90 78 82 84 100 108 122 143 163 186 182 181 213 215 216 217 198 186 204 179 182 192 184 182 162 117 120 108 95 87 80 78
150 150 158 190 175 161 173 151 125 102 88 81 83 77 75 86 103 117 123 145 155 183 198 240 242 207 240 219 197 198 175 148 155 164 173 135 87 85 92 93 110 105 91
177 165 148 132 127 123 130 130 108 87 74 71 75 84 81 95 97 121 139 139 153 181 215 260 262 256 243 248 212 199 175 151 155 144 120 93 84 109 113 100 102 106 97
187 160 172 144 138 131 126 116 102 97 85 78 82 82 96 97 101 126 143 154 161 181 207 206 226 270 242 195 217 220 200 178 176 154 106 91 89 94 102 89 94 97 92
165 172 161 153 151 148 142 129 115 103 95 102 116 114 113 117 108 114 122 139 164 169 199 202 219 225 230 232 238 237 195 163 153 133 117 103 98 96 93 75 78 72 74
162 160 163 161 145 143 140 141 131 113 103 98 105 113 116 123 122 118 131 134 163 171 174 189 188 195 205 255 236 216 191 160 117 102 93 104 92 95 93 89 74 51 53
174 160 151 139 142 140 143 136 117 103 97 84 77 92 110 133 144 130 128 131 128 157 163 189 193 185 184 191 224 203 213 168 118 86 92 92 90 81 71 68 62 68 68
137 141 143 135 122 109 110 105 100 87 82 78 74 81 103 131 156 168 179 169 137 123 135 156 162 155 168 157 194 188 154 146 112 95 120 96 96 78 69 84 72 73 69
119 110 106 101 99 99 106 107 114 104 102 98 82 67 94 127 145 143 147 151 154 162 158 144 123 114 112 122 138 135 149 163 160 137 109 99 94 79 78 97 89 77 71
102 95 93 99 101 103 109 103 100 107 110 114 83 8 77 125 123 118 130 141 151 155 161 164 128 130 116 94 114 166 166 170 145 115 106 96 93 91 92 89 106 111 98
86 97 91 91 89 93 88 94 106 107 95 110 96 55 96 111 101 102 115 117 137 141 137 169 180 199 167 103 89 113 134 154 140 118 90 109 106 103 99 91 107 118 117

GFSMA_con_3kmhel_111.txt.gz
Helicity
-55 -58 -50 -39 -25 -11 -6 2 6 7 6 4 5 7 16 22 22 18 14 3 -3 10 24 25 29 31 32 35 43 30 27 30 30 34 42 41 42 40 42 49 54 53 48
-45 -38 -27 -21 -7 -1 8 15 15 18 18 17 20 20 24 29 32 33 31 29 15 8 11 22 28 35 38 33 38 41 38 33 38 40 43 47 44 42 47 52 52 46 48
-36 -22 -13 -7 4 17 33 39 43 38 30 29 28 35 34 37 40 42 40 38 38 22 10 0 15 32 35 30 41 53 47 47 48 53 51 56 55 52 53 60 58 54 46
-17 -5 2 10 26 36 43 52 54 50 44 42 49 50 48 53 54 54 52 47 45 42 33 12 5 14 26 21 19 34 47 39 34 53 53 54 51 58 56 57 56 53 59
0 11 14 25 42 51 51 59 65 62 62 57 57 54 54 54 61 67 59 59 54 51 51 41 26 28 37 30 35 35 36 33 41 56 58 58 49 51 64 68 56 56 61
17 23 30 45 59 67 68 68 78 79 85 98 100 85 64 45 45 60 86 74 67 58 48 48 51 59 65 55 47 71 87 83 47 45 58 63 66 59 69 91 67 61 70
26 24 43 57 72 65 70 96 106 100 112 117 111 114 123 65 67 92 89 78 67 72 72 79 98 89 92 136 136 96 76 93 96 92 44 25 51 74 65 83 85 65 75
45 43 45 62 77 92 101 98 101 115 112 85 78 87 91 75 111 122 111 87 96 88 109 114 106 102 112 107 133 132 105 83 97 102 77 63 44 24 58 71 77 86 87
52 46 44 69 88 100 98 91 99 96 77 39 80 110 129 53 58 123 98 144 154 162 166 166 129 132 173 191 154 83 104 69 84 80 62 65 72 75 50 43 61 82 82
59 43 64 64 114 133 100 73 66 40 73 137 83 88 128 134 107 67 96 114 170 214 193 161 195 193 206 226 169 89 82 43 76 65 63 60 65 67 57 42 15 34 86
84 88 86 115 154 102 39 74 89 167 114 99 118 123 115 106 105 107 115 75 80 84 97 124 99 100 147 129 102 57 74 61 66 53 61 55 59 73 80 63 -7 -5 36
152 92 140 145 123 112 136 119 107 67 76 90 104 114 110 99 89 118 94 62 60 109 90 118 115 112 145 105 103 95 80 83 78 75 67 97 124 158 154 120 77 4 13
108 123 126 145 123 62 52 61 72 93 93 102 91 107 79 70 90 85 94 104 84 73 90 71 93 112 136 140 142 133 123 113 106 111 159 199 207 224 175 118 77 18 12
106 158 136 90 68 69 75 82 95 102 84 83 82 73 69 69 70 70 79 78 88 91 91 87 89 116 135 139 159 146 143 237 207 240 200 198 198 169 155 90 72 102 42
74 119 145 150 101 100 105 103 107 105 106 107 109 108 100 106 103 98 94 89 107 124 110 94 108 92 140 166 140 113 150 160 227 190 181 183 177 151 143 120 85 182 283
177 185 173 138 148 145 121 114 124 130 129 112 110 113 111 104 100 93 90 97 102 101 145 141 118 132 120 128 140 155 184 179 161 166 142 178 175 154 157 141 111 86 142
162 162 142 156 149 134 118 121 119 104 106 106 99 96 96 91 94 98 105 110 120 145 156 184 170 144 154 190 210 206 181 171 207 152 148 133 177 173 164 150 109 65 64
159 142 138 150 142 134 130 122 125 118 117 120 115 102 93 94 97 102 106 112 122 136 166 167 175 162 172 170 193 232 218 212 203 168 133 89 158 168 157 150 134 108 86
158 141 142 156 162 143 140 138 131 127 133 134 131 126 118 106 101 105 107 105 115 127 147 160 156 153 192 192 226 238 282 263 229 184 138 132 151 156 150 133 103 100 94
175 172 176 177 169 142 140 123 124 131 127 127 126 120 118 115 108 102 105 113 120 128 153 173 180 184 180 200 226 245 241 243 238 287 219 187 155 135 132 111 104 95 82
178 169 175 189 177 156 138 142 145 137 129 128 121 111 109 112 116 119 115 121 134 146 160 180 202 193 183 191 183 207 241 248 192 185 175 165 137 136 133 96 88 85 72
204 198 199 173 161 148 153 154 135 120 119 122 126 119 121 131 140 134 130 139 143 161 173 190 200 194 184 173 198 215 254 261 215 159 166 134 125 91 91 81 77 54 68
197 207 181 148 140 139 137 139 142 119 115 106 101 105 117 125 137 136 110 84 173 225 205 176 162 155 155 147 179 196 220 219 195 157 154 123 114 71 80 81 64 46 62
163 140 140 152 143 130 122 115 110 88 77 75 81 93 101 114 117 113 100 40 102 168 177 163 138 123 121 120 141 140 166 232 221 173 144 95 90 79 81 81 92 47 57
161 147 136 124 119 110 88 66 54 42 47 75 92 93 91 99 100 104 114 78 67 138 156 174 156 130 120 105 136 178 166 202 169 129 103 86 78 86 78 75 93 52 57
125 121 119 111 93 85 50 32 24 33 52 66 76 82 80 82 85 90 108 101 61 110 127 122 122 145 161 149 133 128 116 157 144 118 80 87 84 77 68 79 85 95 88

GFSMA_con_3kmhel_114.txt.gz
Helicity
-30 -55 -70 -66 -55 -38 -32 -23 -17 -9 -5 1 5 7 12 12 14 20 27 35 13 20 33 35 32 34 29 23 26 32 36 29 29 32 34 40 42 46 48 48 42 40 36
-40 -53 -48 -42 -31 -25 -13 -10 -4 1 5 3 11 18 26 31 29 31 32 48 33 21 18 24 30 34 31 25 27 32 37 41 36 38 39 45 48 48 47 44 37 41 39
-36 -24 -18 -13 -5 2 9 13 14 11 13 17 17 22 28 36 42 43 47 45 64 39 19 5 23 28 32 29 35 28 31 37 45 49 43 43 50 47 47 42 37 40 41
3 8 10 13 21 24 24 23 24 23 23 23 29 32 34 41 39 48 54 60 60 58 61 26 19 18 16 9 10 14 26 26 31 50 55 47 50 44 47 56 46 49 47
27 32 34 32 32 35 38 42 40 37 44 45 48 47 49 53 55 56 52 59 64 64 58 84 49 33 34 28 8 13 14 30 35 49 60 63 58 52 46 60 56 51 54
41 45 47 40 44 45 52 55 60 68 70 71 60 46 49 48 40 43 56 75 87 68 60 51 66 72 69 59 47 37 36 33 31 47 51 61 64 71 56 69 77 72 63
53 58 63 59 62 60 65 77 90 84 75 56 44 47 47 52 56 83 92 97 88 69 73 62 76 90 124 118 88 108 88 69 70 59 32 41 48 53 60 70 74 83 81
62 65 74 66 59 73 75 77 80 88 60 31 44 49 79 58 89 89 85 79 53 112 104 117 111 120 95 118 180 169 150 76 60 57 49 60 51 23 39 63 75 85 99
82 86 81 84 86 89 88 80 67 63 62 90 82 80 22 19 70 93 95 98 67 48 90 139 153 169 158 181 204 187 239 141 56 53 30 38 54 47 46 43 52 70 94
102 98 98 79 74 76 81 80 81 69 54 113 104 54 54 64 79 60 78 75 79 79 77 83 97 121 138 182 171 157 65 60 27 46 44 34 43 42 51 59 57 49 53
104 87 82 76 77 78 79 102 15 115 105 75 47 87 68 69 82 96 94 96 59 38 57 63 98 112 99 130 109 72 69 67 52 29 33 35 42 48 64 66 62 29 17
158 112 102 87 113 75 81 43 72 38 62 35 50 63 103 125 106 106 126 114 94 67 76 59 72 100 126 101 76 92 65 52 56 21 34 44 87 117 136 125 103 60 25
169 124 102 101 96 71 89 16 -6 42 50 52 74 79 99 88 77 73 67 76 86 83 71 74 88 117 136 133 122 107 84 77 54 6 24 154 158 163 145 120 92 62 37
112 128 99 123 93 122 25 10 45 68 73 87 82 90 89 77 75 80 90 85 86 73 76 66 91 94 108 128 138 140 124 123 140 179 216 143 117 146 131 103 81 76 38
165 126 153 121 117 79 79 93 117 109 107 111 104 111 113 118 103 97 91 97 110 107 94 89 111 96 98 96 97 106 97 151 245 251 206 161 110 108 119 109 100 104 191
120 72 165 136 131 137 136 118 117 117 113 119 114 108 97 89 85 88 91 93 108 130 166 147 162 146 135 132 117 103 132 162 164 201 159 117 128 110 123 115 121 100 169
106 184 163 130 152 149 128 121 122 111 98 93 86 97 97 97 100 98 96 97 106 117 134 155 156 154 164 143 144 170 174 163 176 173 175 161 126 129 117 121 117 104 95
170 183 166 158 157 154 138 118 113 98 96 97 96 91 89 90 93 96 104 98 104 116 147 132 157 151 159 152 167 180 183 180 178 159 171 173 113 101 126 153 197 197 178
192 182 169 184 177 155 142 121 114 115 110 115 117 119 124 107 104 101 103 96 107 126 138 155 152 152 149 159 200 229 211 211 202 161 179 167 125 102 109 137 179 161 156
209 199 183 182 169 160 150 146 136 136 139 148 146 143 140 119 107 106 102 104 96 111 124 140 160 169 164 175 194 218 235 221 208 208 264 223 131 105 111 132 145 129 109
205 197 184 181 182 180 180 173 162 153 145 135 135 127 122 122 112 116 114 111 110 114 117 137 168 186 183 185 176 195 225 224 201 206 218 210 162 141 150 145 155 112 89
200 196 195 199 212 220 203 180 148 147 138 118 118 111 108 88 84 111 131 145 128 91 106 155 190 191 176 172 186 206 237 232 200 163 189 174 160 121 136 130 108 83 78
202 211 212 205 196 176 161 165 171 150 128 122 102 90 94 106 107 120 120 121 118 108 87 139 153 177 179 160 167 182 190 196 187 163 137 148 160 124 130 103 82 68 67
198 204 210 195 177 157 137 147 129 108 99 96 90 91 99 105 111 115 115 116 114 108 79 106 126 130 135 117 118 129 152 201 194 164 164 153 121 100 101 78 58 49 60
208 201 181 168 151 138 106 83 71 76 70 56 57 76 90 88 95 86 95 101 110 117 108 111 154 164 123 97 114 162 167 193 166 136 120 157 121 118 69 67 72 54 56
192 186 176 150 125 96 64 55 43 45 16 15 34 58 57 64 88 81 84 95 110 127 116 96 125 147 145 150 158 137 135 161 175 129 118 128 115 70 48 66 70 85 67

GFSMA_con_3kmhel_117.txt.gz
Helicity
56 59 24 -7 -20 -27 -21 -18 -14 -8 -10 -4 4 7 6 11 22 28 60 56 40 37 38 34 34 34 30 28 29 30 33 30 32 36 44 48 50 46 46 41 43 37 29
80 3 1 -29 -8 -4 -5 -2 1 3 3 3 6 11 14 22 24 37 59 65 64 47 38 38 38 37 34 29 25 24 25 31 36 36 37 43 49 49 42 44 43 44 39
51 13 -14 -2 2 13 9 12 16 13 10 13 10 16 22 28 38 45 53 75 71 63 45 29 34 40 33 34 29 23 18 19 22 37 43 48 48 48 41 46 48 43 45
50 46 32 12 20 30 28 25 21 18 15 19 18 23 25 37 36 42 62 60 77 72 64 50 32 32 28 18 15 20 20 20 17 43 52 56 58 47 45 40 47 43 48
39 50 41 34 37 42 36 32 28 25 28 32 27 27 36 44 39 40 48 53 60 62 60 93 63 49 50 35 18 13 11 20 29 37 56 54 57 57 49 48 57 52 55
49 66 66 56 56 52 44 43 34 48 47 37 32 36 39 49 58 61 47 64 94 88 71 67 76 73 79 68 48 39 33 54 47 34 37 54 51 55 60 68 63 59 55
73 81 88 68 65 52 44 46 52 44 52 42 45 56 51 75 60 51 79 89 91 106 92 69 33 106 89 120 144 131 118 116 86 81 49 43 32 37 48 56 68 81 67
90 108 83 80 75 73 65 52 60 66 59 59 79 99 102 71 79 85 98 83 88 103 112 123 78 87 139 128 126 166 204 219 170 84 46 23 41 19 12 36 57 79 83
101 112 102 95 82 81 77 77 77 59 63 94 131 158 108 33 89 94 91 83 92 90 89 84 95 119 137 151 148 179 198 194 207 79 42 19 32 19 28 16 26 41 74
130 144 130 113 120 136 105 80 63 56 61 111 105 118 83 70 79 86 63 86 81 61 73 87 68 108 108 130 135 132 132 118 64 64 38 24 12 11 1 17 26 34 44
144 161 160 142 133 124 99 77 104 81 12 84 36 99 37 53 46 71 79 79 87 69 62 68 70 95 83 85 94 96 113 116 79 68 66 13 15 10 20 30 39 44 52
211 182 172 163 160 138 119 107 98 97 23 25 37 27 28 50 64 89 88 67 72 88 76 71 83 78 83 97 100 76 61 58 58 72 42 39 17 54 87 71 78 49 36
246 216 195 152 132 133 100 116 117 20 -42 -58 -43 36 50 73 101 97 86 80 91 86 60 68 91 101 116 115 117 105 79 68 61 58 76 108 166 131 91 78 66 52 24
210 208 176 142 143 104 113 45 67 25 -50 -27 40 77 94 125 131 111 103 115 76 58 49 46 102 118 110 105 141 137 103 92 89 78 33 185 241 183 91 49 58 44 52
236 174 151 156 74 24 37 88 49 -3 18 82 129 135 119 107 89 89 82 88 99 81 45 50 103 86 86 104 104 101 113 118 156 207 254 223 167 155 110 66 65 70 117
181 173 103 193 193 205 86 36 103 116 141 126 120 97 98 89 72 84 86 87 112 131 143 128 168 144 86 95 132 119 144 165 181 182 193 208 161 110 94 68 75 92 112
300 162 106 145 131 197 131 165 149 144 139 141 123 103 88 82 86 89 102 101 102 116 121 102 131 125 109 114 123 127 165 167 178 173 168 166 152 121 101 93 76 86 106
71 73 35 110 113 144 118 117 126 132 125 118 110 95 96 118 95 107 101 102 127 110 134 109 121 112 102 113 124 140 151 169 183 168 145 143 140 149 154 113 108 148 154
1 48 148 167 165 142 127 129 124 133 135 135 133 125 130 114 116 124 99 95 105 112 115 125 120 129 133 138 154 163 164 185 190 172 138 126 117 139 131 105 126 148 190
196 200 187 153 160 167 173 178 183 185 182 170 169 157 132 118 126 120 112 109 135 101 87 87 111 118 121 144 151 156 188 207 185 184 216 186 161 131 111 76 100 161 168
181 219 230 200 203 212 209 212 213 199 181 169 162 147 145 159 144 146 124 123 96 96 100 111 110 117 134 147 157 164 172 192 184 163 155 187 176 167 124 121 111 142 149
244 234 224 221 239 247 235 229 218 206 182 151 144 147 127 112 105 120 136 150 167 136 86 73 64 61 97 143 173 176 187 196 191 129 141 152 170 162 150 139 105 120 127
195 217 211 209 207 209 206 217 208 188 189 187 168 138 123 119 105 105 106 113 111 128 128 117 83 55 101 139 160 168 171 177 177 160 160 152 150 121 115 124 81 89 98
205 223 240 235 237 225 208 198 199 198 180 155 126 113 104 97 113 121 119 143 113 109 131 135 106 70 79 111 129 135 146 164 170 154 158 143 132 109 114 110 89 67 58
205 202 206 206 208 206 182 176 178 162 137 100 82 71 72 77 117 105 110 125 114 123 143 138 135 107 88 102 116 156 161 195 161 138 130 149 123 140 134 103 83 48 46
198 208 212 205 197 183 162 143 144 155 124 94 67 53 34 44 84 86 100 106 120 146 148 132 126 129 124 140 161 136 127 150 166 134 106 147 140 140 111 101 90 63 78

GFSMA_con_3kmhel_120.txt.gz
Helicity
155 136 92 52 12 -19 -16 -16 -37 -13 -10 -14 5 14 22 17 45 40 35 54 44 42 43 40 36 34 32 33 38 39 40 42 43 42 41 41 42 48 52 48 43 30 31
158 140 84 41 9 -17 -22 1 2 3 -7 4 3 11 8 31 40 71 63 50 65 51 43 40 41 41 37 38 40 40 38 36 37 44 49 52 50 50 55 52 51 47 48
159 131 87 39 14 43 26 27 18 19 8 8 12 12 15 28 35 48 84 62 64 59 48 35 36 40 35 33 38 43 33 21 33 48 61 54 64 62 52 52 52 47 43
148 113 49 13 49 64 41 41 36 21 18 13 1 17 32 41 44 44 60 90 79 59 53 48 32 38 33 31 26 32 40 40 42 47 56 54 55 54 43 37 39 42 39
128 57 50 123 87 85 68 49 36 24 21 21 18 33 35 43 50 57 64 55 80 97 83 75 63 50 36 28 24 27 24 25 46 53 55 58 56 48 49 42 38 45 46
175 195 179 131 106 89 65 49 38 29 23 23 31 34 41 52 61 62 53 46 84 101 81 97 89 72 65 50 48 80 65 84 110 110 86 52 50 41 45 44 61 54 63
200 193 166 129 110 89 64 50 52 44 57 58 63 47 51 44 75 59 87 95 130 130 140 100 116 116 122 114 127 153 160 143 169 155 143 110 81 21 39 51 52 58 61
196 178 158 135 112 81 63 63 68 61 51 52 64 79 86 93 96 102 92 84 79 99 107 84 79 122 121 105 115 139 165 165 196 197 227 96 50 33 22 27 29 48 63
182 176 158 133 101 102 100 75 83 78 70 116 108 96 100 72 55 62 86 65 72 80 81 82 102 120 104 136 102 108 98 110 126 107 80 78 74 56 23 32 43 28 36
170 175 152 140 138 144 115 122 112 95 109 107 114 104 121 76 38 48 73 45 74 76 70 76 72 64 66 67 70 87 92 74 59 65 42 45 63 43 20 11 27 39 40
158 193 193 202 205 200 166 151 173 169 144 100 81 53 85 81 63 77 57 51 62 61 58 60 59 55 58 53 59 64 59 46 40 40 47 48 44 56 79 62 65 50 50
260 254 252 232 207 201 190 167 141 107 109 107 56 48 43 37 54 76 63 -10 19 44 59 60 60 65 78 83 99 93 77 57 41 42 44 66 52 69 127 73 69 57 56
275 240 228 218 206 186 163 141 146 107 64 86 9 63 38 12 11 105 92 51 45 61 57 45 52 71 96 93 89 89 89 89 80 58 60 81 88 205 121 123 105 43 22
279 276 268 240 206 173 177 144 130 143 67 27 5 9 28 86 139 137 107 81 42 46 50 23 75 77 77 76 96 116 108 111 107 133 89 151 226 194 175 121 98 60 37
217 222 240 232 210 197 194 177 163 96 52 30 -2 58 131 146 132 110 116 93 70 42 38 77 67 78 67 66 58 80 88 111 123 154 230 270 224 197 152 102 84 92 61
209 229 245 254 255 236 189 132 81 112 2 73 126 130 125 123 120 106 97 92 105 109 94 107 107 82 66 65 85 92 108 137 135 154 166 170 150 125 99 78 90 63 69
204 220 227 252 232 196 138 119 180 120 30 101 151 112 109 110 94 96 99 99 100 113 101 74 77 86 67 65 63 75 94 113 129 153 158 149 154 144 128 121 89 63 71
192 289 291 232 225 194 233 232 243 188 153 136 116 121 119 127 125 119 118 127 127 138 123 80 91 96 93 94 95 102 98 108 134 156 143 132 123 154 144 112 113 98 85
178 235 328 237 260 183 191 255 147 150 141 125 121 131 141 134 133 133 121 117 125 122 113 96 86 99 97 109 121 135 152 153 147 157 160 135 137 132 131 133 124 133 137
23 7 21 198 152 76 70 138 182 163 187 205 204 187 187 169 166 145 125 118 133 127 100 85 102 115 100 104 115 118 127 165 153 168 206 174 136 157 123 110 107 103 133
78 84 92 120 153 183 214 209 193 206 225 223 208 198 197 185 186 171 147 154 125 103 95 103 105 123 100 85 69 108 129 155 164 156 169 191 178 132 110 132 117 117 80
142 163 186 202 218 187 176 200 229 222 196 190 189 195 184 163 137 126 131 148 134 123 124 126 115 103 70 39 45 71 119 153 173 167 177 171 140 141 124 102 115 104 57
194 197 177 181 196 196 189 193 213 233 231 212 199 187 169 144 120 103 95 106 117 135 139 144 116 105 95 93 55 65 99 140 162 171 178 184 168 139 121 121 95 82 63
173 194 195 194 208 209 214 215 220 228 228 207 182 151 143 122 111 131 135 140 131 112 122 135 117 107 94 76 66 69 109 130 155 153 154 169 145 128 129 115 81 58 68
160 172 167 168 188 196 201 216 244 244 228 206 176 158 135 112 87 104 116 124 126 124 133 130 118 108 103 103 78 108 113 148 150 135 135 163 122 130 125 101 86 56 58
135 147 157 163 163 189 187 199 234 243 223 198 170 140 116 104 84 75 80 86 111 145 148 136 127 120 127 131 129 118 116 135 158 142 110 149 142 134 111 94 100 90 64

GFSMA_con_3kmhel_123.txt.gz
Helicity
200 187 150 119 86 51 13 -15 -19 -17 -23 -42 -38 -7 20 27 22 9 9 36 36 32 34 35 33 30 29 31 31 34 39 35 32 34 45 49 44 40 42 39 23 24 22
205 183 161 122 67 30 -2 -21 -17 -18 -8 -2 10 15 27 39 28 31 27 23 45 47 45 43 41 40 42 38 34 33 31 30 29 38 47 47 52 54 60 65 50 45 31
197 188 153 100 35 5 -9 -5 -9 -4 9 11 7 11 14 23 54 42 40 35 38 50 53 49 50 46 54 45 47 48 53 44 41 66 65 66 70 72 76 60 54 49 47
201 177 157 87 38 19 9 6 15 21 13 18 22 12 24 31 40 56 45 55 49 43 40 45 41 46 61 50 48 59 79 73 59 70 92 90 86 56 54 61 62 54 49
229 191 155 85 60 54 50 38 41 42 23 24 33 31 44 52 47 56 63 53 50 54 59 54 51 29 31 35 31 32 59 98 83 83 81 79 77 61 63 58 63 53 53
219 192 138 108 107 96 77 65 59 56 40 28 39 51 43 40 45 53 59 66 66 76 61 50 55 39 32 38 38 47 79 126 128 128 127 90 66 60 50 51 51 57 51
205 199 150 116 153 114 97 76 83 55 59 57 70 60 48 46 65 64 71 87 97 103 124 88 61 54 47 57 50 64 83 102 121 130 133 143 136 61 43 41 47 52 55
230 173 194 228 169 145 107 91 92 91 96 73 72 80 70 87 94 87 73 64 49 62 87 65 60 71 81 66 63 84 80 96 103 90 48 40 67 76 58 60 49 40 59
283 240 253 229 170 153 113 108 100 94 109 96 80 84 104 87 99 58 57 48 57 41 42 58 71 73 85 87 61 79 72 74 66 51 37 28 44 65 66 59 22 38 44
307 281 239 199 158 165 136 119 112 102 127 121 117 125 144 144 100 56 56 57 37 19 43 44 53 66 72 67 56 58 51 63 68 56 35 23 32 40 57 67 33 58 70
288 237 198 169 162 158 155 158 151 145 148 132 128 135 116 127 104 77 66 63 10 -1 36 34 48 43 54 61 53 40 54 74 70 60 43 38 50 54 64 107 117 39 40
251 228 211 188 194 191 201 201 199 166 157 150 133 121 124 98 94 62 66 43 22 -11 25 57 63 50 46 56 57 62 76 72 71 59 50 53 67 90 135 128 57 42 57
256 244 234 227 225 217 221 219 193 178 168 157 126 122 148 98 53 55 74 59 33 22 38 71 73 74 65 63 63 78 84 89 92 75 58 69 107 191 176 135 89 86 57
241 230 253 260 247 231 230 225 224 212 191 146 95 95 96 54 74 62 58 60 47 41 51 72 97 84 75 85 96 101 91 97 112 122 134 199 211 211 174 117 73 60 46
267 285 281 278 249 238 235 226 231 226 191 125 102 78 64 82 104 82 100 98 65 36 39 75 79 104 89 75 79 80 81 105 111 127 147 205 218 196 136 102 50 55 50
306 276 262 247 245 235 248 238 244 214 181 124 128 -10 41 104 86 94 110 111 96 75 55 80 111 92 70 58 67 83 91 93 110 115 133 144 149 127 140 103 96 78 68
293 260 240 241 241 247 253 284 296 267 219 217 145 170 22 106 110 106 109 109 97 93 76 90 106 81 72 63 66 80 89 98 107 113 117 121 115 120 130 130 121 106 87
189 199 210 224 240 259 282 271 252 212 228 200 177 131 78 137 110 95 97 87 83 96 98 86 92 104 102 94 77 86 86 109 130 137 133 136 122 117 133 144 132 149 109
203 217 216 214 229 263 288 272 199 163 164 210 294 71 114 132 127 125 108 92 101 116 112 104 97 97 95 80 74 69 90 99 117 129 141 136 135 135 137 135 116 114 111
81 129 242 296 280 223 221 262 210 235 216 261 340 250 157 144 127 116 110 108 119 119 109 104 93 89 89 86 76 66 82 103 115 142 154 173 124 150 134 135 133 115 110
-1 84 134 187 191 235 370 388 263 229 345 261 177 189 191 178 155 128 127 116 120 125 109 102 115 104 97 90 85 89 82 83 92 119 156 174 191 174 136 111 103 113 116
55 33 21 55 79 152 211 216 203 131 245 195 200 199 195 181 165 160 172 150 136 122 109 126 124 113 98 94 104 98 89 81 86 140 156 171 182 160 115 113 112 115 104
67 77 90 135 169 168 126 190 191 173 174 187 207 207 202 180 166 164 147 141 126 112 115 122 116 116 116 122 129 104 78 70 89 117 157 153 159 154 126 111 98 102 102
95 103 118 118 88 99 111 151 177 195 200 187 191 182 192 178 161 159 154 136 117 107 109 119 113 123 126 122 110 106 92 72 64 91 147 163 175 148 127 108 89 92 91
100 106 117 113 131 110 141 158 182 214 225 192 212 200 173 168 133 126 139 114 105 116 112 117 126 132 135 128 98 108 104 106 80 89 130 171 141 143 122 112 103 73 59
62 77 87 80 78 95 117 136 150 205 238 219 213 203 170 160 120 107 118 103 94 92 112 137 151 153 151 135 132 126 117 115 105 95 117 151 156 152 154 114 107 88 66

GFSMA_con_3kmhel_129.txt.gz
Helicity
261 253 182 160 144 114 88 85 72 57 52 35 22 4 -3 -9 -15 -9 -7 7 18 26 30 33 37 33 31 32 35 32 30 25 20 33 38 48 41 51 43 43 54 50 46
262 244 201 161 143 122 88 77 73 63 46 24 11 5 -0 3 -6 -3 2 6 19 24 30 31 32 32 33 33 35 31 24 34 20 26 37 44 42 58 52 45 64 64 56
260 215 214 183 143 138 111 100 89 83 57 38 19 12 13 15 10 8 15 19 17 17 17 18 27 29 31 31 33 34 32 30 35 41 46 50 54 60 62 68 72 61 67
251 239 222 194 168 163 142 115 108 86 62 50 42 26 14 26 15 18 26 24 27 22 13 8 7 21 20 14 13 17 31 56 62 56 48 60 64 66 61 53 54 68 77
226 244 216 209 200 196 155 128 122 99 93 64 47 39 29 27 22 35 27 26 26 28 33 22 9 -3 -7 7 7 20 38 33 47 43 43 51 52 52 54 52 49 61 74
207 240 227 196 228 223 179 153 143 114 92 64 80 74 64 55 50 45 33 36 30 36 35 19 31 30 22 21 41 44 58 65 75 73 76 80 65 50 21 36 47 62 70
216 237 272 210 216 229 177 145 163 139 126 121 152 125 102 84 72 71 72 68 72 70 71 66 56 52 63 100 85 80 67 67 80 79 80 45 37 26 28 41 43 58 57
205 239 294 240 236 236 223 190 193 203 158 129 155 168 101 89 92 97 99 87 92 88 88 76 66 79 83 87 80 83 69 75 67 63 48 33 30 25 28 30 35 56 48
213 256 257 264 231 203 236 202 176 181 203 151 142 141 120 85 126 111 108 98 85 93 89 85 87 87 83 79 77 85 85 84 66 59 43 37 29 29 44 66 75 98 95
233 279 250 264 262 204 220 205 180 176 231 173 185 154 126 100 122 124 126 103 90 89 84 103 101 83 75 77 83 77 78 76 72 57 51 48 32 33 67 99 113 96 91
352 376 356 243 265 221 211 200 204 208 198 214 210 200 161 151 144 142 123 112 110 100 94 112 70 74 91 81 92 91 81 79 73 62 55 54 51 52 82 122 108 99 87
294 334 247 241 181 166 239 218 199 204 219 209 222 201 203 192 158 149 146 141 145 145 140 123 91 84 105 100 91 83 82 88 83 78 71 66 70 74 108 137 118 106 100
371 329 313 258 180 195 254 216 212 218 210 199 171 177 188 171 155 164 145 144 159 164 152 120 121 99 102 98 75 90 93 99 95 91 104 123 132 160 188 152 124 103 116
492 439 302 203 182 215 270 239 228 228 226 208 173 193 180 180 167 164 162 165 157 145 135 100 127 97 111 115 93 95 89 85 94 96 108 115 152 154 160 153 131 117 108
431 420 309 204 206 255 263 245 248 238 225 211 181 194 223 192 167 157 171 153 152 129 41 103 143 116 123 118 87 65 66 77 99 92 91 104 103 127 134 136 135 122 100
499 395 316 256 222 278 257 238 255 248 236 230 223 217 240 228 196 173 174 146 101 137 74 198 139 162 136 118 89 73 73 92 89 88 102 102 99 110 126 132 131 123 103
306 216 226 230 255 290 270 256 259 252 227 244 256 238 218 249 220 225 268 178 161 138 160 201 172 183 176 132 103 90 90 80 93 102 101 99 108 116 117 123 124 128 129
228 183 204 249 281 253 246 247 266 260 260 259 262 269 248 284 281 293 214 202 212 218 245 220 181 185 171 128 106 86 80 87 93 95 99 99 105 110 110 145 145 137 140
261 244 244 259 257 226 220 225 250 256 264 277 270 262 261 320 332 322 247 294 258 323 301 262 205 214 178 152 116 92 86 86 85 94 95 95 103 103 121 159 166 157 165
347 188 158 173 194 193 172 196 248 247 253 285 258 190 277 268 275 264 263 232 353 324 385 467 363 209 184 141 129 98 89 90 98 104 98 90 95 95 112 153 176 170 176
159 157 187 173 199 174 177 186 189 216 241 285 304 224 245 291 332 309 302 321 358 346 450 481 215 174 168 172 134 107 105 98 94 99 99 103 115 124 144 166 167 167 165
166 273 153 150 106 138 121 79 137 177 226 241 338 311 344 376 395 351 361 282 268 373 367 228 213 166 146 140 141 126 119 120 115 118 120 109 114 112 124 143 149 152 155
106 142 228 224 181 139 171 187 212 228 253 307 297 378 423 430 316 357 503 282 256 355 220 206 175 163 153 143 176 160 146 143 121 131 116 97 116 109 115 130 128 131 131
52 70 96 110 148 120 126 65 86 142 201 184 294 405 455 422 462 562 689 490 318 194 170 154 148 143 161 168 173 163 160 159 150 127 124 100 113 101 126 130 109 126 130
56 59 80 83 72 98 104 104 81 105 134 169 173 197 183 255 275 173 198 226 177 179 171 154 168 149 164 176 188 216 190 186 140 130 130 122 109 108 120 126 126 110 112
123 113 112 107 119 105 89 82 78 66 101 102 141 179 126 125 123 126 230 225 178 162 180 238 196 176 168 152 130 146 170 166 172 146 128 124 121 123 141 121 111 100 103